[[[{"header":{"parameterUnit":"kt","parameterCategory":2,"dx":1,"dy":1,"la1":29.285339999999998,"la2":30.599998999999997,"lo1":-89.70041500000002,"lo2":-87.6738589999976,"nx":112,"ny":82,"refTime":"2022-10-04T00:00:00:Z","depth":0,"parameterNumber":1,"parameterNumberName":"U-component_of_WINDS"},"data":[7.9415,8.0917,8.0293,7.0817,6.7684,6.4212,5.3732,5.2606,5.3394,5.1875,5.576,5.9382,5.9082,0.0,0.0,0.0,0.0,0.0,0.0,3.9462,0.0,0.0,0.0,0.0,0.0,0.0,0.0,0.0,0.0,0.0,0.0,8.9028,8.9028,8.9028,8.9028,8.9028,8.9028,8.9028,8.9028,8.9028,8.9028,8.9028,8.9028,8.9028,8.9028,8.9028,8.9028,8.9028,8.884,8.6697,8.5155,8.3952,8.1696,8.0193,7.929,7.929,7.929,7.929,7.929,7.929,7.929,7.929,7.929,7.9314,7.9316,7.9301,7.9456,8.0082,7.9852,7.9528,8.0286,8.0026,7.959,7.975,7.9787,7.9776,7.9864,7.9873,7.9878,7.9878,7.9879,7.9879,7.9879,7.9875,7.9873,7.9879,7.9878,7.9905,7.9905,7.9886,8.0514,8.2259,8.2866,8.317,8.317,8.2601,8.2525,8.3132,8.1576,8.04,7.9907,7.9907,7.9907,7.9907,7.9907,7.9907,7.9907,7.9907,7.9901,7.9887,7.9901,7.9901,7.6098,7.7374,7.6424,6.5254,6.171,5.8013,4.6889,4.6514,4.7752,4.502,5.0475,5.4782,5.1505,0.0,0.0,0.0,0.0,0.0,0.0,0.0,0.0,0.0,0.0,0.0,0.0,0.0,0.0,0.0,7.8493,0.0,8.8652,8.9028,8.9028,8.9028,8.9028,8.9028,8.9028,8.9028,8.9028,8.9028,8.9028,8.9028,8.9028,8.9028,8.9028,8.9028,8.9028,8.9028,8.8915,8.7336,8.5719,8.399,8.2298,8.0681,7.929,7.929,7.929,7.929,7.929,7.9666,8.0005,7.9478,7.9666,8.0005,7.9441,7.929,7.9314,7.9332,7.9294,7.9338,7.9404,7.9422,7.9485,7.9596,7.9621,7.9647,7.9804,7.9825,7.9842,7.989,7.9899,7.9905,7.9905,7.9873,7.9873,7.9895,7.9875,8.0107,8.0677,8.075,8.1617,8.3818,8.4605,8.5393,8.657,8.6142,8.556,8.4991,8.336,8.1652,7.9983,7.9907,7.9907,7.9907,7.9907,7.9907,7.9907,7.9907,7.9907,7.9907,7.9907,8.1121,7.5397,7.3646,7.0609,5.7615,5.4316,5.173,4.1908,4.3258,4.6165,4.4655,4.9146,5.3405,5.3546,0.0,0.0,0.0,0.0,0.0,0.0,0.0,0.0,0.0,0.0,0.0,0.0,7.0876,7.1802,8.0499,7.6601,7.8297,8.8501,8.9028,8.9028,8.9028,8.9028,8.9028,8.9028,8.9028,8.9028,8.9028,8.9028,8.9028,8.9028,8.9028,8.9028,8.9028,8.9028,8.9028,8.8915,8.7411,8.5794,8.4065,8.2373,8.0757,7.9403,7.9403,7.9328,7.929,7.929,8.0305,8.132,7.9854,8.0418,8.1358,7.9817,7.9328,7.929,7.929,7.929,7.9338,7.9301,7.9322,7.9343,7.9443,7.9518,7.9536,7.9658,7.9698,7.9741,7.9864,7.988,7.9902,7.9902,7.9951,7.9985,7.9955,7.9994,8.0627,8.2294,8.2483,8.3736,8.6925,8.5915,8.637,8.9709,8.8472,8.6819,8.5073,8.3322,8.1614,7.9951,7.9913,7.9907,7.9907,7.9907,7.9907,7.9907,7.9907,7.9907,7.9907,8.0097,8.3739,6.432,6.4666,6.4734,5.8819,5.6412,5.3476,4.5871,4.2452,4.179,4.4826,4.4036,0.0,0.0,0.0,0.0,0.0,0.0,5.2502,4.7619,5.5273,6.2698,0.0,0.0,7.2226,7.8875,7.7381,7.921,8.6887,8.1609,8.1217,8.8489,8.8525,8.8492,8.8856,8.8923,8.8923,8.8923,8.8923,8.8923,8.8886,8.9019,8.9047,8.9047,8.9,8.9028,8.9028,8.9028,8.9028,8.899,8.8559,8.7432,8.5832,8.405,8.2344,8.0864,8.0864,8.014,7.9178,7.9178,7.9504,8.0042,8.0757,8.1283,8.1546,8.1132,8.0193,7.929,7.929,7.929,7.9314,7.9301,7.9301,7.9309,7.9343,7.9364,7.9404,7.9536,7.955,7.9598,7.9709,7.9748,7.9784,7.9865,8.0833,8.1604,8.1565,8.2632,8.3574,8.4067,8.4174,8.5027,8.7076,8.6893,8.7503,8.9669,8.9445,8.7966,8.5118,8.2192,8.0361,7.9905,7.9886,7.9907,7.9907,7.9907,7.9907,7.9907,7.9907,7.9907,8.0021,8.4953,8.8216,6.2018,6.2374,6.3003,5.8419,5.7576,5.5383,4.5971,4.3225,4.3115,4.4597,0.0,0.0,0.0,0.0,0.0,0.0,5.4019,5.788,5.442,6.3153,7.1125,7.4289,7.857,8.1733,8.2938,8.1127,8.2551,8.9037,8.3337,8.2066,8.7877,8.7913,8.7875,8.8138,8.8175,8.8175,8.8175,8.8175,8.8175,8.8212,8.8496,8.8632,8.8632,8.8856,8.8944,8.8944,8.8944,8.8944,8.8944,8.8923,8.7985,8.6409,8.5112,8.4176,8.3292,8.1943,8.0846,8.0001,7.925,7.9539,8.0493,8.2108,8.3084,8.3411,8.2072,8.0982,8.0155,7.9478,7.929,7.929,7.929,7.929,7.9314,7.9309,7.9294,7.9316,7.9404,7.9423,7.9443,7.9625,7.9642,8.0095,8.158,8.2607,8.3195,8.3207,8.4024,8.4912,8.5669,8.5788,8.6471,8.8156,8.833,8.8722,8.9715,8.9805,8.8712,8.6093,8.3483,8.1702,8.098,8.0258,7.9875,7.9875,7.9902,8.1299,8.4146,8.4131,8.4141,8.4239,8.8177,8.9999,6.3156,6.2293,6.2004,5.6631,5.7009,5.5916,4.528,0.0,4.802,4.6693,0.0,4.8384,5.1803,0.0,0.0,5.2284,6.0047,6.5427,6.3657,7.0735,7.6548,7.7739,8.8066,9.2688,8.6658,8.3733,8.4082,8.8464,8.3326,8.212,8.6992,8.7214,8.7214,8.7258,8.7258,8.7258,8.7258,8.7258,8.7258,8.7258,8.7756,8.7952,8.7989,8.8425,8.8664,8.8664,8.8664,8.8664,8.8664,8.8632,8.7803,8.6423,8.5941,8.5866,8.5755,8.2873,8.16,8.1039,7.9533,8.002,8.1593,8.33,8.4979,8.5796,8.3009,8.1871,8.1295,7.9679,7.929,7.929,7.929,7.929,7.929,7.929,7.929,7.9301,7.9316,7.9301,7.9418,7.9707,7.9763,8.0783,8.4009,8.4688,8.4839,8.4822,8.4973,8.5654,8.7161,8.7367,8.8005,8.9594,8.9796,8.9808,8.9808,8.9817,8.9084,8.7376,8.5816,8.4184,8.2559,8.081,8.024,8.0999,8.1018,8.3979,9.0016,8.9999,9.0011,8.9965,8.9978,8.9978,5.2615,5.1097,5.1439,5.2983,5.0668,4.9093,0.0,0.0,0.0,6.2098,6.1222,6.0023,6.4579,6.3197,6.2683,6.6582,7.3081,7.662,7.3695,8.348,9.0594,8.9619,9.2796,9.3591,8.9835,9.0052,8.9967,8.8792,8.5995,8.5163,8.7011,8.6706,8.6706,8.7095,8.7095,8.7095,8.7095,8.7095,8.7095,8.7095,8.7362,8.745,8.745,8.7512,8.7559,8.7559,8.7559,8.7559,8.7596,8.7586,8.7607,8.7617,8.7056,8.6024,8.4812,8.4183,8.2382,8.0169,7.9836,7.9986,8.0696,8.2695,8.4228,8.5227,8.5255,8.3427,8.0977,7.9291,7.9051,7.929,7.929,7.929,7.929,7.929,7.929,7.9314,7.9301,7.9301,7.97,8.1093,8.1378,8.2019,8.4055,8.5525,8.6436,8.6445,8.7598,8.8579,8.8921,8.9072,8.9275,8.9632,8.9745,8.9799,8.9799,8.9811,8.9102,8.7397,8.568,8.4272,8.3119,8.1032,8.2411,8.7798,8.7915,8.8563,9.0006,9.0011,8.9935,8.9851,8.9857,8.9895,4.914,4.8425,4.8995,4.9994,4.9495,0.0,0.0,5.055,5.3405,6.1426,6.2402,6.3513,6.911,6.9471,6.9435,7.1059,7.7992,8.348,8.4275,9.0557,9.4782,9.3988,9.4602,9.4132,9.1785,9.2977,9.2674,8.969,8.7817,8.667,8.6329,8.6072,8.6015,8.631,8.631,8.631,8.631,8.631,8.6748,8.7588,8.7045,8.7197,8.7931,8.7427,8.7197,8.7197,8.7197,8.7197,8.7197,8.7179,8.7188,8.7114,8.6806,8.6365,8.5712,8.4865,8.3539,8.2112,8.1301,8.1603,8.2509,8.3539,8.4903,8.6038,8.5633,8.3782,8.1361,7.9004,7.8561,7.8822,7.8822,7.8906,7.9025,7.9025,7.9178,7.929,7.929,7.9929,8.0743,8.1582,8.3111,8.4805,8.6423,8.7402,8.7954,8.7951,8.8667,8.9218,8.9325,8.9389,8.9128,8.8317,8.8333,8.835,8.835,8.8399,8.8074,8.7241,8.621,8.4899,8.3276,8.1068,8.3021,8.9665,8.981,8.9861,8.9899,8.9909,8.9855,8.9817,8.981,8.9848,4.6926,4.7154,4.8093,4.8093,4.9502,0.0,4.8745,5.1814,5.6512,6.1643,6.4668,6.799,7.3154,7.5104,7.5681,7.4742,8.1278,8.7849,9.1713,9.3627,9.471,9.5035,9.5071,9.4565,9.3302,9.406,9.3554,9.1027,8.9402,8.7922,8.655,8.6477,8.6477,8.6477,8.6477,8.6477,8.6477,8.6477,8.7163,8.8499,8.7557,8.7786,8.8951,8.8113,8.7697,8.7697,8.7404,8.7257,8.722,8.689,8.6941,8.7094,8.7094,8.7185,8.7073,8.5752,8.4822,8.4138,8.2842,8.3209,8.4321,8.4429,8.558,8.672,8.5621,8.3823,8.1727,7.9391,7.8505,7.8267,7.8267,7.8467,7.8651,7.8651,7.8906,7.9228,7.9617,8.0669,8.1732,8.2317,8.4907,8.7413,8.8709,8.8935,8.9,8.9028,8.9028,8.9081,8.9146,8.8931,8.8299,8.7028,8.6596,8.6541,8.688,8.6995,8.7199,8.7556,8.6863,8.5315,8.2664,8.0834,8.3043,8.9659,8.9807,8.9799,8.9799,8.9799,8.9797,8.9797,8.9807,8.9796,0.0,0.0,0.0,4.8346,4.777,0.0,6.4777,6.6474,6.8207,7.9978,8.265,8.3119,8.3805,8.4094,8.4672,8.5972,8.8247,9.0016,9.0557,9.2002,9.3482,9.489,9.5071,9.4999,9.4818,9.3699,9.2832,9.2471,9.1027,9.0016,8.9871,8.9835,8.9835,8.9835,8.9835,8.9835,8.9835,8.9835,8.9944,9.0124,8.9971,9.0034,9.0215,9.0097,8.9988,8.9916,8.8602,8.795,8.7842,8.6357,8.7383,8.9962,8.9962,8.9156,8.795,8.7709,8.5827,8.3294,8.315,8.3186,8.3409,8.3886,8.4817,8.5844,8.6356,8.4131,8.1427,8.1543,7.9864,7.7984,7.7984,7.8162,7.8403,7.8403,7.8403,7.891,8.0656,8.1173,8.2087,8.4776,8.6794,8.8209,8.8595,8.8696,8.8758,8.9,8.9028,8.9055,8.9055,8.7954,8.7085,8.6919,8.5649,8.537,8.6767,8.69,8.7618,8.922,8.7459,8.4486,8.0455,8.0039,8.3043,8.9659,8.9824,8.9824,8.9824,8.9811,8.9797,8.9797,8.9811,8.9811,0.0,0.0,4.2649,4.6254,0.0,0.0,6.2321,6.5463,6.9037,7.81,8.0772,8.2289,8.5033,8.5539,8.5755,8.6477,8.7958,8.9005,8.9005,9.1171,9.2941,9.3627,9.4493,9.5071,9.5071,9.4493,9.4096,9.4096,9.2616,9.1749,9.1749,9.0882,9.0377,9.0377,9.0377,9.0377,9.0377,9.0377,9.0846,9.1713,9.081,9.0882,9.1713,9.081,9.0377,9.0341,8.9691,8.9402,8.9366,8.8644,8.9149,9.0377,9.0377,8.998,8.9294,8.8391,8.72,8.5864,8.4889,8.4564,8.4623,8.4786,8.5199,8.5418,8.4849,8.2978,8.0909,8.0406,7.8657,7.71,7.7438,7.8385,7.9396,7.9545,8.0397,8.1394,8.2204,8.3134,8.4515,8.6759,8.7766,8.8288,8.8395,8.8395,8.843,8.8567,8.8696,8.8789,8.8789,8.8399,8.7414,8.5495,8.4716,8.4612,8.5253,8.5396,8.6592,8.9314,8.8619,8.5634,8.0117,8.3601,8.6976,8.9754,8.9797,8.9811,8.9797,8.9811,8.9811,8.9797,8.9797,8.9797,3.904,0.0,0.0,0.0,0.0,0.0,6.4596,6.799,7.1493,7.7414,7.9617,8.1495,8.4889,8.5539,8.5539,8.5539,8.655,8.7524,8.7994,8.998,9.1749,9.2616,9.3699,9.4602,9.5035,9.5071,9.5071,9.5071,9.4024,9.3374,9.3374,9.2291,9.1677,9.1677,9.1677,9.1677,9.1677,9.1677,9.2255,9.3338,9.2218,9.2255,9.3338,9.2182,9.1677,9.1641,9.1207,9.128,9.1677,9.1677,9.1677,9.1677,9.1677,9.1424,9.0882,8.9763,8.9041,8.8463,8.6802,8.6225,8.6152,8.5683,8.5539,8.525,8.3661,8.2397,8.1227,7.9858,7.8571,7.7733,7.8184,7.945,8.0645,8.0853,8.1949,8.3149,8.367,8.5045,8.653,8.7719,8.7982,8.8019,8.8137,8.8137,8.8175,8.8251,8.8395,8.8533,8.8533,8.8284,8.7055,8.4334,8.3621,8.3385,8.3463,8.4278,8.5705,8.7838,8.8818,8.7238,8.2613,8.5276,8.6955,8.7085,8.8868,8.9821,8.9807,8.9792,8.9792,8.9807,8.9807,8.9821,0.0,0.0,0.0,6.048,6.2574,6.5246,7.9292,8.0267,7.9509,8.4275,8.5286,8.5358,8.5502,8.5539,8.5539,8.5539,8.5575,8.6152,8.7813,8.8138,8.933,9.2363,9.276,9.3374,9.489,9.5071,9.5071,9.5071,9.5035,9.4999,9.4999,9.4927,9.4927,9.4927,9.4927,9.4927,9.4927,9.4927,9.4927,9.4999,9.4927,9.4927,9.4999,9.4927,9.4927,9.4854,9.3302,9.3518,9.4927,9.4927,9.4927,9.4927,9.4927,9.3988,9.2652,9.2616,9.1641,9.0088,8.8499,8.7958,8.7705,8.6044,8.5539,8.525,8.3661,8.3155,8.2794,8.1242,8.0736,8.0814,8.1055,8.1566,8.195,8.1999,8.2224,8.2982,8.4876,8.629,8.7242,8.7316,8.7316,8.7409,8.7803,8.7888,8.7934,8.8213,8.8251,8.8288,8.8288,8.6834,8.5301,8.3958,8.2311,8.1455,8.1709,8.4266,8.5445,8.4363,8.7296,8.8947,8.8768,8.2877,7.9801,8.0196,8.6501,8.9783,8.9821,8.9791,8.9829,8.9804,8.9804,8.9799,4.5729,5.0118,5.5389,6.4957,7.0157,7.4417,8.0303,8.2433,8.3625,8.5214,8.5539,8.5539,8.5539,8.5539,8.5539,8.5539,8.5539,8.5719,8.6297,8.7344,8.8427,8.9474,9.0557,9.1785,9.3338,9.3482,9.3915,9.4999,9.5071,9.5071,9.5071,9.5071,9.5071,9.5071,9.5071,9.5071,9.5071,9.5071,9.5071,9.5071,9.5071,9.5071,9.5071,9.5071,9.5071,9.5035,9.4493,9.4565,9.5071,9.5071,9.5071,9.5071,9.5071,9.471,9.4132,9.3121,9.2399,9.1713,9.016,8.9619,8.933,8.7705,8.72,8.6911,8.525,8.4022,8.3083,8.2542,8.1639,8.0902,8.0958,8.1254,8.1828,8.3005,8.4356,8.5557,8.6216,8.6708,8.7076,8.7221,8.7269,8.7316,8.7456,8.7456,8.7501,8.7598,8.7851,8.7975,8.7975,8.7653,8.6387,8.3806,8.3022,8.2336,8.1455,8.2562,8.2655,8.1044,8.6034,8.9046,8.9033,8.6934,8.3806,7.958,8.1687,8.4974,8.9297,8.9299,8.93,8.9318,8.9658,8.979,4.8769,5.3913,5.937,6.9301,7.5476,7.964,8.18,8.3817,8.5319,8.5478,8.5539,8.5539,8.5539,8.5478,8.5478,8.5478,8.5416,8.5391,8.5391,8.6328,8.7409,8.8525,8.957,9.1012,9.3137,9.3421,9.3921,9.4931,9.5003,9.5071,9.5071,9.5071,9.5071,9.5071,9.5071,9.5071,9.5071,9.5071,9.5071,9.5071,9.5071,9.5071,9.5071,9.5071,9.5071,9.5071,9.5071,9.4899,9.4692,9.4692,9.4831,9.5071,9.4831,9.4831,9.4927,9.3915,9.3554,9.3338,9.1785,9.1207,9.0955,8.9402,8.8499,8.7741,8.6044,8.4816,8.3914,8.3336,8.2867,8.2542,8.2542,8.2622,8.3103,8.4417,8.5727,8.66,8.66,8.6758,8.6963,8.7076,8.7221,8.7269,8.7269,8.7269,8.7269,8.7269,8.7456,8.7672,8.7672,8.7772,8.6938,8.434,8.3559,8.2849,8.2005,8.1882,8.1501,8.0746,8.5563,8.8606,8.9019,8.9032,8.7088,8.2874,8.2789,8.3699,8.5544,8.5547,8.5536,8.5557,8.5916,8.605,5.0796,5.5521,6.0589,7.3759,7.8555,8.0925,8.403,8.4746,8.4876,8.538,8.5478,8.5478,8.538,8.5293,8.5203,8.5203,8.5076,8.4984,8.4984,8.4984,8.6131,8.9141,8.95,9.0823,9.3944,9.4444,9.4656,9.4764,9.4867,9.4967,9.5035,9.5035,9.5035,9.5035,9.5035,9.5035,9.5035,9.5035,9.5071,9.5071,9.5071,9.5071,9.5071,9.5071,9.5071,9.5035,9.4967,9.4587,9.4049,9.4049,9.4339,9.4899,9.4267,9.441,9.4899,9.4967,9.5003,9.4751,9.3374,9.2832,9.258,9.1027,8.951,8.7958,8.6188,8.5683,8.5322,8.3769,8.4383,8.5539,8.5539,8.5539,8.5599,8.6026,8.6083,8.6083,8.6083,8.6493,8.6825,8.6913,8.7113,8.7269,8.7269,8.7269,8.7269,8.7269,8.7269,8.7269,8.7269,8.7269,8.6782,8.5464,8.3876,8.2995,8.3149,8.2292,8.2253,8.3335,8.5815,8.7808,8.9007,8.9028,8.9028,8.9055,8.902,8.5808,7.9309,7.9325,7.9316,7.9324,7.9309,7.9301,5.4175,6.2024,6.8641,7.7748,8.0603,8.1791,8.3714,8.4176,8.4313,8.4876,8.4941,8.4609,8.3542,8.3326,8.3289,8.3289,8.3289,8.3215,8.3215,8.3215,8.3919,8.582,8.6067,8.7264,9.0396,9.0793,9.156,9.3384,9.3607,9.394,9.4587,9.4622,9.4622,9.4622,9.4622,9.4622,9.4622,9.4622,9.4692,9.4903,9.4903,9.4935,9.5071,9.5071,9.4899,9.4587,9.394,9.3718,9.3864,9.3182,9.326,9.3749,9.3562,9.3373,9.3225,9.4049,9.4122,9.3905,9.4294,9.4493,9.4204,9.2652,9.1857,9.1027,8.8247,8.7416,8.7055,8.5394,8.5214,8.5539,8.5539,8.5539,8.5539,8.5659,8.5695,8.5755,8.6026,8.6197,8.6439,8.681,8.7113,8.7269,8.7269,8.7269,8.7269,8.7269,8.7269,8.7269,8.7269,8.7269,8.6726,8.5233,8.4642,8.3999,8.2956,8.4672,8.594,8.6238,8.6906,8.78,8.8994,8.9028,8.9016,8.9021,8.9039,8.5845,7.931,7.9336,7.9326,7.9283,7.93,7.9298,5.0957,6.0599,7.0215,7.8098,8.0527,8.135,8.2896,8.343,8.3612,8.3965,8.3719,8.3215,8.2733,8.2504,8.2392,8.2392,8.235,8.2385,8.2385,8.2385,8.3186,8.5266,8.5545,8.6763,8.9862,9.0226,9.0878,9.2251,9.2403,9.2761,9.3266,9.3682,9.3867,9.3867,9.4267,9.4446,9.4446,9.4446,9.4552,9.4728,9.4834,9.4798,9.4831,9.4935,9.4195,9.2875,9.26,9.2519,9.2509,9.1976,9.2095,9.2625,9.2579,9.238,9.2274,9.3111,9.3147,9.2875,9.3682,9.4122,9.4231,9.358,9.3065,9.2255,8.9799,8.8572,8.7705,8.6008,8.5539,8.5539,8.5539,8.5539,8.5539,8.5539,8.5539,8.5599,8.5814,8.5873,8.5989,8.6439,8.6825,8.7076,8.7076,8.7173,8.7269,8.7269,8.7269,8.7269,8.7269,8.7269,8.6937,8.609,8.5353,8.4929,8.4812,8.631,8.7247,8.7299,8.7273,8.7575,8.8244,8.825,8.825,8.8278,8.8251,8.6462,8.2814,8.2812,8.1361,7.8539,7.8557,7.8803,4.7083,5.6657,6.8089,7.6051,7.8807,7.9995,8.1559,8.235,8.2762,8.2919,8.215,8.1588,8.2115,8.2001,8.1842,8.1842,8.1751,8.1739,8.1739,8.1739,8.281,8.5815,8.6161,8.7405,9.0514,9.0901,9.1009,9.1185,9.1394,9.1567,9.1652,9.2438,9.2875,9.2875,9.3607,9.4014,9.4014,9.4014,9.4014,9.4014,9.4303,9.4303,9.4122,9.4303,9.3069,9.088,9.1342,9.1167,9.07,9.0609,9.0935,9.148,9.1324,9.1324,9.148,9.206,9.1941,9.1567,9.2227,9.2831,9.3414,9.3718,9.3371,9.2525,9.1041,8.9455,8.7931,8.6333,8.5719,8.5539,8.5539,8.5539,8.5539,8.5539,8.5539,8.5539,8.5539,8.5539,8.5659,8.6026,8.6493,8.681,8.6876,8.7076,8.7269,8.7269,8.7269,8.7269,8.7269,8.7269,8.7269,8.7269,8.609,8.5795,8.7158,8.7242,8.7289,8.7269,8.7251,8.7278,8.7278,8.731,8.7279,8.7279,8.7303,8.7266,8.7281,8.7282,8.4377,7.8877,7.884,7.9432,5.6961,6.1905,6.5992,7.2675,7.5741,7.7478,7.902,8.0322,8.1396,8.1866,8.1042,8.0247,8.0104,8.0015,8.0015,8.0015,7.9925,7.9959,7.9959,7.9959,8.1073,8.4043,8.4414,8.5562,8.8466,8.8836,8.9164,8.9995,9.0089,9.046,9.1236,9.1411,9.1498,9.1498,9.1671,9.1757,9.1757,9.1757,9.1757,9.1757,9.1906,9.2039,9.2239,9.2039,9.1652,9.1094,9.046,9.0241,9.0391,8.9614,8.9649,9.0089,9.0123,8.9839,8.9614,9.0665,9.0756,9.0449,9.148,9.2192,9.2671,9.2751,9.3005,9.2962,9.1904,9.0398,8.8994,8.7904,8.6622,8.5539,8.5539,8.5539,8.5539,8.5539,8.5539,8.5539,8.5539,8.5539,8.5659,8.6026,8.6197,8.6384,8.681,8.7076,8.7269,8.7269,8.7269,8.7269,8.7269,8.7269,8.7269,8.7269,8.7048,8.6974,8.7269,8.7269,8.7269,8.7269,8.7279,8.7289,8.7289,8.7262,8.7271,8.7271,8.7299,8.7299,8.7271,8.7288,8.6696,8.5617,8.5626,8.5712,5.3134,5.8528,6.3765,6.7816,7.245,7.6482,7.7977,7.9644,8.099,8.1497,8.0611,7.9687,7.9572,7.948,7.948,7.948,7.948,7.948,7.948,7.948,8.0284,8.2463,8.3532,8.4776,8.6922,8.7827,8.85,8.8935,8.8935,8.9197,8.9649,9.0216,9.0494,9.0494,9.0915,9.1182,9.1182,9.1182,9.1182,9.1182,9.1201,9.1307,9.1532,9.0322,8.9676,8.9649,8.9197,8.9099,8.9261,8.8836,8.8769,8.9034,8.9295,8.9133,8.8735,8.9552,8.9518,8.9227,9.002,9.0721,9.1254,9.155,9.2179,9.2663,9.1268,9.0536,8.9796,8.8061,8.6972,8.621,8.5694,8.5539,8.5539,8.5539,8.5539,8.5539,8.5539,8.5539,8.5599,8.5719,8.5814,8.5931,8.6384,8.6706,8.6963,8.7221,8.7269,8.7269,8.7269,8.7269,8.7269,8.7269,8.7269,8.7269,8.7269,8.7269,8.7269,8.7269,8.7269,8.7269,8.7269,8.7269,8.7269,8.7269,8.7269,8.7269,8.7269,8.7279,8.7279,8.7242,8.7288,8.7265,5.0099,5.6104,6.2825,6.5203,6.9607,7.4068,7.7142,7.8993,8.0281,8.1041,7.9983,7.9078,7.9413,7.9212,7.9078,7.9413,7.948,7.948,7.948,7.948,8.0117,8.1893,8.3201,8.4609,8.6385,8.7592,8.8296,8.8296,8.8296,8.8296,8.8296,8.9034,8.9524,8.9524,9.0216,9.0552,9.0552,9.0552,9.0552,9.0552,9.0552,9.0574,9.0687,8.8967,8.8296,8.8296,8.8296,8.8296,8.8296,8.8296,8.8296,8.8296,8.8735,8.8669,8.8296,8.8735,8.8635,8.8296,8.8735,8.9261,8.9866,9.0241,9.1148,9.1766,9.0671,9.0432,9.0047,8.8015,8.7121,8.6615,8.5626,8.5319,8.5319,8.5319,8.5478,8.5539,8.5539,8.5539,8.5539,8.5539,8.5539,8.5659,8.6026,8.631,8.66,8.7161,8.7221,8.7269,8.7269,8.7269,8.7269,8.7269,8.7269,8.7269,8.7269,8.7269,8.7269,8.7269,8.7269,8.7269,8.7269,8.7269,8.7269,8.7269,8.7269,8.7269,8.7269,8.7269,8.7269,8.7269,8.7269,8.7279,5.9066,6.2049,6.4764,6.9,6.7524,6.7188,7.541,7.7357,7.7894,7.9438,7.8441,7.7804,7.9212,7.8307,7.7837,7.9245,7.948,7.948,7.948,7.948,8.0519,8.3465,8.3935,8.5011,8.7827,8.8229,8.8296,8.8296,8.8296,8.8296,8.8296,8.8398,8.8398,8.8398,8.8466,8.8466,8.8466,8.8466,8.8466,8.8466,8.8466,8.8568,8.8534,8.8365,8.8296,8.8296,8.8296,8.8296,8.8296,8.8296,8.8296,8.8296,8.8296,8.8296,8.8296,8.8296,8.8296,8.8296,8.8296,8.8635,8.9065,8.9164,8.9552,9.0182,9.1097,9.047,8.9208,8.8668,8.7407,8.5988,8.5074,8.4811,8.4811,8.4811,8.5194,8.5539,8.5539,8.5539,8.5539,8.5539,8.5539,8.5659,8.6026,8.614,8.6365,8.6862,8.7125,8.7269,8.7269,8.7269,8.7269,8.7269,8.7269,8.7269,8.7269,8.7269,8.7269,8.7269,8.7269,8.7269,8.7269,8.7269,8.7269,8.7269,8.7269,8.7269,8.7269,8.7269,8.7269,8.7269,8.7269,8.7269,4.7822,5.2741,5.7724,5.9256,6.3175,6.7781,7.2172,7.3915,7.5491,7.8776,7.9681,7.948,7.8307,7.834,7.8441,7.8139,7.8843,7.948,7.948,7.948,8.0217,8.2296,8.3431,8.4709,8.6754,8.776,8.8296,8.8296,8.8296,8.8296,8.8296,8.8296,8.8296,8.8296,8.8296,8.8296,8.8296,8.8296,8.8296,8.8296,8.8296,8.8296,8.8296,8.8296,8.8296,8.8296,8.8296,8.8296,8.8296,8.8296,8.8296,8.8296,8.8296,8.8296,8.8296,8.8296,8.8296,8.8296,8.8296,8.8365,8.8568,8.8568,8.8935,8.9456,9.0216,9.0298,8.9742,8.8435,8.7545,8.6606,8.4815,8.4548,8.468,8.4346,8.468,8.5068,8.5068,8.5319,8.5539,8.5539,8.5539,8.5599,8.5755,8.5931,8.6197,8.6384,8.681,8.7113,8.7269,8.7269,8.7269,8.7269,8.7269,8.7269,8.7269,8.7269,8.7269,8.7269,8.7269,8.7269,8.7269,8.7269,8.7269,8.7269,8.7269,8.7269,8.7269,8.7269,8.7269,8.7269,8.7269,8.7269,4.1762,4.673,5.2329,5.3795,5.9576,6.574,6.8946,7.0182,7.2104,7.7133,7.8944,7.9279,7.8072,7.8005,7.8072,7.7871,7.8776,7.948,7.948,7.948,7.9983,8.1424,8.2966,8.4572,8.5916,8.7424,8.8296,8.8296,8.8296,8.8296,8.8296,8.8296,8.8296,8.8296,8.8296,8.8296,8.8296,8.8296,8.8296,8.8296,8.8296,8.8296,8.8296,8.8296,8.8296,8.8296,8.8296,8.8296,8.8296,8.8296,8.8296,8.8296,8.8296,8.8296,8.8296,8.8296,8.8296,8.8296,8.8296,8.8296,8.8296,8.8296,8.8466,8.8935,8.9393,8.9969,8.991,8.7829,8.7288,8.683,8.4313,8.3966,8.4174,8.379,8.4242,8.471,8.471,8.5131,8.5539,8.5539,8.5539,8.5539,8.5539,8.5755,8.5989,8.6083,8.6493,8.6862,8.7125,8.7258,8.7269,8.7269,8.7269,8.7269,8.7269,8.7269,8.7269,8.7269,8.7269,8.7269,8.7269,8.7269,8.7269,8.7269,8.7269,8.7269,8.7269,8.7269,8.7269,8.7269,8.7269,8.7269,4.6784,4.8254,5.0835,5.6592,5.738,5.8592,6.5999,6.6596,6.7389,7.3762,7.5055,7.596,7.891,7.7033,7.6027,7.8977,7.9446,7.948,7.948,7.948,7.9983,8.1424,8.2966,8.4572,8.5916,8.7424,8.8296,8.8296,8.8296,8.8296,8.8296,8.8296,8.8296,8.8296,8.8296,8.8296,8.8296,8.8296,8.8296,8.8296,8.8296,8.8296,8.8296,8.8296,8.8296,8.8296,8.8296,8.8296,8.8296,8.8296,8.8296,8.8296,8.8296,8.8296,8.8296,8.8296,8.8296,8.8296,8.8296,8.8296,8.8296,8.8296,8.8296,8.8365,8.8935,8.9393,8.9259,8.6807,8.6437,8.6181,8.3679,8.3024,8.3024,8.3024,8.386,8.471,8.471,8.5131,8.5539,8.5539,8.5539,8.5539,8.5539,8.5539,8.5659,8.6083,8.6365,8.66,8.6825,8.7161,8.7269,8.7269,8.7269,8.7269,8.7269,8.7269,8.7269,8.7269,8.7269,8.7269,8.7269,8.7269,8.7269,8.7269,8.7269,8.7269,8.7269,8.7269,8.7269,8.7269,8.7269,8.7269,4.0462,4.433,4.8809,5.2734,5.5655,5.8977,6.4892,6.6482,6.8022,7.2624,7.2708,7.2574,7.4586,7.6664,7.8005,7.7904,7.8776,7.948,7.948,7.948,7.9983,8.1424,8.2966,8.4572,8.5916,8.7424,8.8296,8.8296,8.8296,8.8296,8.8296,8.8296,8.8296,8.8296,8.8296,8.8296,8.8296,8.8296,8.8296,8.8296,8.8296,8.8296,8.8296,8.8296,8.8296,8.8296,8.8296,8.8296,8.8296,8.8296,8.8296,8.8296,8.8296,8.8296,8.8296,8.8296,8.8296,8.8296,8.8296,8.8296,8.8296,8.8296,8.8296,8.8398,8.8935,8.9099,8.8878,8.6717,8.6212,8.6472,8.698,8.5568,8.4281,8.5255,8.5374,8.5128,8.5128,8.5527,8.5762,8.512,8.5005,8.5131,8.5478,8.5539,8.5599,8.5695,8.6161,8.6529,8.6637,8.6977,8.7269,8.7269,8.7269,8.7269,8.7269,8.7269,8.7269,8.7269,8.7269,8.7269,8.7269,8.7269,8.7269,8.7269,8.7269,8.7269,8.7269,8.7269,8.7269,8.7269,8.7269,8.7269,3.9204,4.3259,4.7651,5.1903,5.4286,5.6876,6.166,6.2701,6.3804,6.8071,6.8153,6.8286,7.0827,7.4788,7.7701,7.7614,7.8474,7.9202,7.948,7.948,7.9782,8.0687,8.2128,8.3637,8.521,8.6586,8.7693,8.8263,8.8296,8.8296,8.8296,8.8296,8.8296,8.8296,8.8296,8.8296,8.8296,8.8296,8.8296,8.8296,8.8296,8.8296,8.8296,8.8296,8.8296,8.8296,8.8296,8.8296,8.8296,8.8296,8.8296,8.8296,8.8296,8.8296,8.8296,8.8296,8.8296,8.8296,8.8296,8.8296,8.8294,8.8966,8.9168,8.9268,9.0184,9.0523,9.0418,8.8772,8.8077,8.8003,8.8841,8.7229,8.5598,8.65,8.6474,8.6216,8.6216,8.6641,8.6697,8.5486,8.5507,8.5528,8.5302,8.538,8.5539,8.5539,8.5989,8.642,8.6475,8.6862,8.7173,8.7269,8.7269,8.7269,8.7269,8.7269,8.7269,8.7269,8.7269,8.7269,8.7269,8.7269,8.7269,8.7269,8.7269,8.7269,8.7269,8.7269,8.7269,8.7269,8.7269,8.7269,4.1799,4.4411,4.7104,5.3098,5.348,5.3517,5.7503,5.679,5.655,6.1112,6.2055,6.3249,6.7311,7.1399,7.5109,7.7823,7.815,7.8473,7.9435,7.9596,7.9596,7.9596,8.0867,8.2334,8.3771,8.5212,8.6687,8.8195,8.8296,8.8296,8.8296,8.8296,8.8296,8.8296,8.8296,8.8296,8.8296,8.8296,8.8296,8.8296,8.8296,8.8296,8.8296,8.8296,8.8296,8.8296,8.8296,8.8296,8.8296,8.8296,8.8296,8.8296,8.8296,8.8296,8.833,8.843,8.8464,8.8464,8.8598,8.8631,8.8866,9.0307,9.0743,9.1011,9.2352,9.3042,9.3229,9.2242,9.1398,9.0632,8.9724,8.82,8.6916,8.702,8.7368,8.775,8.775,8.8108,8.7996,8.6515,8.6592,8.6544,8.5175,8.5203,8.5478,8.5539,8.5873,8.6197,8.642,8.6706,8.7013,8.7221,8.7269,8.7269,8.7269,8.7269,8.7269,8.7269,8.7269,8.7269,8.7269,8.7269,8.7269,8.7269,8.7269,8.7269,8.7269,8.7269,8.7269,8.7269,8.7269,8.7269,3.9753,4.2995,4.6377,4.9479,5.4211,5.8664,6.0808,5.9627,5.8276,5.8849,5.9002,5.9656,6.1812,6.5647,7.0352,7.6383,7.6416,7.7005,8.0341,8.0799,8.0799,8.0799,8.2148,8.2915,8.2979,8.4273,8.6076,8.8093,8.8296,8.8296,8.8296,8.8296,8.8296,8.8296,8.8296,8.8296,8.8296,8.8296,8.8296,8.8296,8.8296,8.8296,8.8296,8.8296,8.8296,8.8296,8.8296,8.8296,8.8296,8.8296,8.8296,8.8296,8.8296,8.8296,8.843,8.9637,9.0073,9.0207,9.1347,9.1715,9.1749,9.2118,9.2252,9.2319,9.2654,9.2862,9.2705,9.2109,9.2675,9.3584,9.4096,9.1391,8.8789,8.9969,8.9431,8.8733,8.8733,8.8818,8.858,8.7487,8.6454,8.5911,8.644,8.5635,8.5068,8.5478,8.5873,8.614,8.6197,8.66,8.6913,8.6977,8.7125,8.7269,8.7269,8.7269,8.7269,8.7269,8.7269,8.7269,8.7269,8.7269,8.7269,8.7269,8.7269,8.7269,8.7269,8.7269,8.7269,8.7269,8.7269,8.7269,4.139,4.4883,4.7382,4.6583,5.1383,5.6127,5.56,5.517,5.4684,5.4264,5.4177,5.5238,5.8647,6.0576,6.3896,7.096,7.2896,7.4715,7.7903,7.8878,7.9788,8.1153,8.0763,8.1333,8.3761,8.3572,8.4309,8.6806,8.7397,8.7607,8.7607,8.8057,8.8296,8.8296,8.8296,8.8296,8.8296,8.9,8.9,8.8296,8.8296,8.8296,8.8296,8.8296,8.8296,8.8296,8.8296,8.8296,8.8296,8.8296,8.8296,8.8363,8.9067,8.9369,8.9536,9.1045,9.1615,9.1715,9.2486,9.2754,9.2855,9.3525,9.376,9.3861,9.4598,9.4799,9.4817,9.5034,9.4726,9.4517,9.5298,9.2804,9.0315,9.1148,9.0697,9.0107,9.0107,9.0107,8.9709,8.8483,8.7869,8.7214,8.6446,8.6053,8.5671,8.5239,8.5539,8.5873,8.6083,8.6365,8.66,8.6706,8.6963,8.7113,8.7113,8.7221,8.7269,8.7269,8.7269,8.7269,8.7269,8.7269,8.7269,8.7269,8.7269,8.7269,8.7269,8.7269,8.7269,8.7269,8.7269,8.7269,4.3814,4.7653,4.9604,4.6268,4.8849,5.1556,4.9132,4.9195,4.9793,4.9793,4.9793,5.1241,5.5931,5.634,5.7882,6.3768,6.8136,7.1888,7.4874,7.6396,7.8144,8.0561,7.8759,7.918,8.418,8.2506,8.2355,8.5248,8.645,8.7127,8.7235,8.8173,8.8759,8.8863,8.8966,8.8759,8.8517,8.9818,8.9818,8.8726,8.8726,8.8625,8.8631,8.8631,8.8531,8.833,8.8564,8.8631,8.8665,8.8899,8.8966,8.9101,9.0408,9.0944,9.1078,9.2285,9.2889,9.309,9.309,9.3224,9.3626,9.4866,9.5235,9.5503,9.6811,9.7213,9.7404,9.8363,9.6534,9.4417,9.4813,9.315,9.1356,9.1232,9.1321,9.1356,9.1356,9.1356,9.0974,8.9656,8.9633,8.9,8.6216,8.634,8.6336,8.4829,8.5068,8.5539,8.5873,8.6026,8.6197,8.6475,8.6706,8.6862,8.6963,8.7113,8.7221,8.7269,8.7269,8.7269,8.7269,8.7269,8.7269,8.7269,8.7269,8.7269,8.7269,8.7269,8.7269,8.7269,8.7564,8.7527,4.2176,4.7559,5.3381,5.3917,5.3791,5.3444,5.3004,5.1304,4.9793,4.9793,4.9793,5.0045,5.0895,5.3728,5.6309,5.7347,6.2916,6.9359,7.5665,7.766,7.8673,7.9116,7.8768,7.9058,8.0706,8.0496,8.173,8.5248,8.684,8.7898,8.8821,9.0055,9.1083,9.1943,9.2084,9.1259,8.9614,8.9843,9.0156,9.0684,9.0684,9.0561,9.024,9.024,8.9536,8.8363,8.967,9.024,9.0341,9.1581,9.2084,9.2084,9.2319,9.2419,9.2453,9.2687,9.3525,9.4565,9.4565,9.5436,9.6576,9.6777,9.6844,9.6911,9.7112,9.7213,9.7292,9.7889,9.6222,9.4317,9.4417,9.2869,9.1232,9.0872,9.1053,9.1356,9.1356,9.1356,9.1252,9.1044,9.0021,8.8783,8.7575,8.6371,8.5266,8.425,8.4548,8.484,8.4941,8.5599,8.6197,8.6475,8.6529,8.6758,8.7173,8.7026,8.7026,8.7269,8.7269,8.7269,8.7269,8.7269,8.7269,8.7269,8.7269,8.7269,8.7269,8.7269,8.7269,8.7306,8.8742,8.8669,4.6646,5.0958,5.4798,5.398,5.3791,5.3665,5.2941,5.1839,5.0706,4.9951,4.9793,5.0014,5.0769,5.1839,5.3854,5.7599,6.0873,6.5122,7.1354,7.4029,7.6484,7.9506,7.853,7.876,8.1322,8.1544,8.2605,8.4999,8.695,8.8233,8.8706,8.9908,9.0583,9.1106,9.1106,9.1125,9.0935,9.0935,9.0783,9.0467,9.0467,9.0369,9.0117,9.0117,8.9755,8.9128,9.0375,9.0893,9.0927,9.2237,9.2754,9.2821,9.3626,9.3928,9.4028,9.4833,9.557,9.614,9.614,9.6609,9.7213,9.7213,9.7213,9.7213,9.7213,9.7213,9.7213,9.7482,9.5761,9.3843,9.3843,9.2391,9.0838,9.0655,9.0928,9.1356,9.1356,9.1356,9.1356,9.1356,9.0766,8.9882,8.8658,8.8114,8.7171,8.505,8.5489,8.5712,8.4853,8.5319,8.5873,8.5953,8.6273,8.66,8.6862,8.6862,8.7013,8.7269,8.7269,8.7674,8.8595,8.8632,8.9037,8.9884,8.9884,8.9884,8.9884,8.9884,8.9884,8.9884,8.9848,8.9848,5.3413,0.0,5.6907,5.4829,5.4829,5.4987,0.0,5.2815,5.1965,5.058,5.0014,5.0108,5.121,5.0769,5.2122,5.7725,5.9204,6.1565,6.7105,6.9717,7.299,7.8247,7.7586,7.8215,8.2024,8.2968,8.3944,8.536,8.7346,8.8642,8.8891,8.9919,9.0565,9.0773,9.0323,9.0718,9.1784,9.1784,9.139,9.0445,9.0445,9.0403,9.0285,9.0285,9.0123,8.983,9.0911,9.1387,9.142,9.2531,9.3177,9.3532,9.4601,9.518,9.5604,9.6777,9.7213,9.7213,9.7213,9.7213,9.7213,9.7213,9.7213,9.7213,9.7213,9.7213,9.7213,9.7213,9.5598,9.3902,9.346,9.2273,9.0976,9.054,9.0838,9.1356,9.1356,9.1356,9.1356,9.1356,9.1356,9.0836,8.931,8.9459,8.8744,8.5631,8.6052,8.6127,8.4762,8.5005,8.5416,8.5659,8.6104,8.6475,8.6547,8.7228,8.7701,8.7858,8.8227,8.9,9.029,9.0326,9.0916,9.2095,9.2132,9.2132,9.2132,9.2132,9.1947,9.1579,9.0732,9.0805,0.0,6.2604,6.1722,6.1533,6.0558,5.9299,5.803,5.5585,0.0,5.2028,5.0706,4.9825,4.9919,5.0926,5.2311,5.4042,5.6497,6.0237,6.5657,6.6601,6.8301,7.2613,7.5288,7.7837,8.067,8.3283,8.5391,8.6808,8.8161,8.9405,9.033,9.1705,9.2887,9.3789,9.2088,9.1135,9.1229,9.1229,9.1595,9.2538,9.2538,9.2211,9.1748,9.1748,9.1033,8.9895,9.1283,9.1836,9.1966,9.339,9.4551,9.5448,9.5547,9.6113,9.7045,9.7179,9.7213,9.7213,9.7213,9.7213,9.7213,9.7213,9.7213,9.7213,9.7213,9.7213,9.7213,9.7213,9.6338,9.508,9.3197,9.2723,9.2061,9.0311,9.0655,9.1356,9.1356,9.1356,9.1356,9.1356,9.1356,9.0836,8.931,8.9032,8.8112,8.5091,8.5097,8.5116,8.4179,8.4481,8.5131,8.5989,8.614,8.6365,8.681,8.8509,8.9627,8.9627,9.099,9.1837,9.1947,9.1947,9.2021,9.2132,9.2132,9.2132,9.2132,9.2132,9.1395,8.9995,9.1321,9.1247,6.1313,6.2604,6.3328,6.2415,6.1817,6.0841,5.8661,5.656,5.4546,5.2343,5.0769,4.9793,4.9793,5.0234,5.1871,5.5837,5.7463,5.9796,6.4398,6.8017,7.0126,6.9969,7.469,7.9065,8.1835,8.4636,8.6839,8.8193,8.9578,9.0466,9.0861,9.15,9.1917,9.2245,9.152,9.112,9.112,9.112,9.1387,9.1785,9.1785,9.1631,9.148,9.148,9.1193,9.0747,9.1895,9.2404,0.0,9.3639,9.436,9.4725,9.4725,9.4879,9.5272,9.5272,9.5661,9.6279,9.6279,9.6658,9.7213,9.7213,9.7213,9.7213,9.7213,9.7213,9.7213,9.7213,9.6184,9.5093,9.4804,9.3504,9.2391,9.3063,9.2253,9.1599,9.257,9.2778,9.25,9.1529,9.2119,9.198,8.9448,8.9032,8.8026,8.5009,8.5297,8.5378,8.4109,8.468,8.5416,8.5719,8.6104,8.684,8.8006,8.893,8.9993,9.1174,9.18,9.261,9.3642,9.3716,9.4158,9.5152,9.5152,9.5152,9.5152,9.5152,9.4342,9.2795,9.1358,9.0879,6.2887,6.3831,6.4712,6.3737,6.3485,6.2792,6.0023,5.7945,5.5962,5.3665,5.1713,5.058,5.1021,5.1084,5.2469,5.6718,5.8134,6.0337,6.4964,6.9245,7.17,7.107,7.5571,7.982,8.259,8.621,8.8728,8.9641,9.0585,9.112,9.112,9.112,9.112,9.112,9.112,9.112,9.112,9.112,9.112,9.112,9.112,9.112,9.112,9.112,9.112,9.1254,9.1948,9.2211,9.2309,9.289,9.3366,9.3649,9.3649,9.3866,9.4082,9.4082,9.4725,9.5595,9.5595,9.6279,9.7213,9.7213,9.7213,9.7213,9.7213,9.6953,9.6806,9.7066,9.6442,9.5614,9.5505,9.4418,9.37,9.4744,9.3495,9.2362,9.3402,9.3263,9.2604,9.1564,9.1807,9.1668,9.0038,8.9344,8.82,8.5633,8.5875,8.5794,8.418,8.4548,8.5131,8.5478,8.6047,8.7259,8.9449,9.0453,9.1487,9.2868,9.3384,9.4194,9.5336,9.5373,9.5889,9.6957,9.6994,9.6994,9.6994,9.6478,9.5705,9.4563,9.1321,9.0363,6.7262,6.7356,6.6286,6.6286,6.6286,6.5562,6.2855,6.0054,5.7747,5.6246,5.3791,5.228,5.3602,5.3854,5.4326,5.5742,5.8323,6.2037,6.7545,6.9654,7.2078,7.6075,7.7869,7.9852,8.259,8.7878,9.112,9.112,9.112,9.112,9.112,9.112,9.112,9.112,9.112,9.112,9.112,9.112,9.112,9.112,9.112,9.112,9.112,9.112,9.112,9.112,9.112,9.112,9.112,9.112,9.1785,9.273,9.273,9.3304,9.4082,9.4082,9.4725,9.5628,9.5595,9.6279,9.7213,9.7213,9.7213,9.7213,9.7213,9.6428,9.5863,9.6919,9.7213,9.6844,9.5336,9.5766,9.6228,9.4692,9.397,9.3645,9.3645,9.2431,9.1356,9.1321,9.0073,8.9518,9.1044,9.0003,8.8477,8.6951,8.6708,8.6009,8.425,8.4002,8.4417,8.5453,8.5945,8.7542,9.1071,9.3402,9.4637,9.4673,9.611,9.6994,9.6994,9.6994,9.6994,9.6994,9.6994,9.6994,9.6957,9.541,9.4637,9.4526,9.1284,8.9811,6.6821,6.6601,6.6286,6.6286,6.6286,6.5466,6.2327,5.9546,5.7172,5.5682,5.3218,5.1908,5.3523,5.3854,5.464,5.7116,5.8953,6.1376,6.5027,6.9245,7.2392,7.3588,7.8404,8.1961,8.2779,8.6997,9.005,9.1057,9.112,9.112,9.112,9.112,9.112,9.112,9.112,9.112,9.112,9.112,9.112,9.112,9.112,9.112,9.112,9.112,9.112,9.112,9.112,9.112,9.112,9.112,9.1387,9.1684,9.1684,9.1785,9.1984,9.1984,9.2666,9.3682,9.436,9.5239,9.613,9.613,9.613,9.6013,9.5239,9.5239,9.5713,9.6013,9.6658,9.7112,9.6643,9.58,9.5337,9.6648,9.4501,9.2327,9.3402,9.2431,9.1009,8.9934,8.9344,8.8859,8.82,8.7714,8.6916,8.5425,8.6462,8.6953,8.5773,8.6911,8.811,8.8869,8.9206,9.0401,9.2807,9.3789,9.4848,9.6221,9.6736,9.6994,9.6994,9.6994,9.6994,9.6994,9.6994,9.6442,9.5336,9.4894,9.3458,9.1211,9.0253,8.9148,6.6507,6.609,6.5992,6.5992,6.5992,6.5076,6.1854,5.962,5.7752,5.6093,5.4134,5.3261,5.4911,5.544,5.6623,5.9991,6.2163,6.4775,6.871,7.3053,7.6043,7.6579,8.1331,8.4321,8.3755,8.7437,8.9987,9.027,9.0805,9.112,9.112,9.112,9.112,9.112,9.0585,9.0553,9.112,9.0585,9.0585,9.112,9.112,9.112,9.112,9.0553,9.0302,9.0302,9.0151,9.0182,9.0333,9.0977,9.1128,9.112,9.112,9.112,9.112,9.112,9.1436,9.2057,9.3078,9.4123,9.4835,9.4922,9.4967,9.4846,9.4237,9.4846,9.5713,9.613,9.6658,9.7213,9.7213,9.6025,9.5034,9.5815,9.3566,9.1425,9.1737,9.0593,8.924,8.8304,8.7645,8.7125,8.6778,8.6743,8.6431,8.5564,8.7007,8.796,8.7331,8.8334,8.9436,9.0313,9.1867,9.3359,9.4558,9.4998,9.573,9.692,9.6994,9.6994,9.6994,9.6994,9.6699,9.6073,9.6036,9.5263,9.3642,9.3016,9.1726,8.9774,8.9111,8.8264,6.6189,6.5894,6.5496,6.5427,6.5427,6.4582,6.1276,5.9931,5.8786,5.6915,5.5764,5.5552,5.7037,5.8064,5.9865,6.3705,6.6821,7.0535,7.5634,7.8719,8.0891,8.215,8.4793,8.6052,8.4888,8.8287,9.0144,8.9106,9.0207,9.0963,9.0963,9.1057,9.112,9.112,8.9766,8.9704,9.112,8.9735,8.9672,9.0963,9.0963,9.0868,9.0711,8.942,8.8822,8.8728,8.8357,8.8515,8.9011,9.045,9.0888,9.0774,9.0774,9.0774,9.0774,9.09,9.077,9.0682,9.2249,9.3055,9.3461,9.3814,9.399,9.4082,9.399,9.4725,9.5863,9.6806,9.6966,9.7012,9.6978,9.6178,9.4791,9.2961,9.1723,9.0523,8.9136,8.761,8.6535,8.6535,8.5356,8.4835,8.6292,8.6535,8.6535,8.6535,8.7957,8.9033,8.8673,8.8968,8.9582,9.0681,9.3915,9.5994,9.6055,9.6633,9.692,9.6773,9.6773,9.6699,9.6552,9.6405,9.5705,9.4452,9.4268,9.3384,9.1689,9.029,8.959,8.9516,8.8006,8.7269,6.5795,6.5596,6.5427,6.5023,6.4921,6.401,6.0787,5.9111,5.7801,5.6216,5.4969,5.4805,5.6949,6.0143,6.2859,6.4146,6.8458,7.2078,7.3274,7.5855,7.7712,7.8026,8.0481,8.2464,8.3251,8.514,8.706,8.8885,8.9326,8.9483,8.9483,9.0553,9.112,9.112,8.9766,8.9704,9.112,8.9735,8.92,8.9483,8.9483,8.8948,8.7941,8.7626,8.7088,8.6489,8.6332,8.7186,8.8643,8.8833,8.8546,8.7941,8.7941,8.7941,8.8067,8.9106,8.9426,8.9623,9.196,9.2762,9.2917,9.2986,9.3524,9.399,9.3177,9.427,9.5713,9.5863,9.5677,9.5513,9.5808,9.4418,9.241,9.1305,8.9339,8.761,8.7298,8.6084,8.5044,8.5044,8.3795,8.3205,8.4766,8.5044,8.5044,8.5044,8.7764,8.9488,8.8713,9.1149,9.3228,9.3957,9.5068,9.5785,9.5994,9.6444,9.6265,9.5226,9.5152,9.4563,9.3237,9.1984,9.1763,9.2647,9.1468,8.9983,8.8351,8.7983,8.7847,8.7785,8.7453,8.7269,6.5496,6.5124,6.4747,6.4438,6.4364,6.3864,6.1789,6.1046,6.0299,5.8614,5.748,5.6946,5.7499,6.0303,6.3106,6.4611,6.8703,7.2046,7.3368,7.4816,7.598,7.6673,7.8561,8.0072,8.0796,8.2748,8.4542,8.5958,8.7343,8.7815,8.7123,8.7784,8.8507,8.9168,8.7815,8.7752,8.9168,8.7784,8.7406,8.8098,8.8098,8.7752,8.706,8.6367,8.5768,8.5296,8.4606,8.5203,8.681,8.6999,8.7157,8.706,8.706,8.706,8.7217,8.8539,8.8633,8.8511,9.1087,9.1895,9.1833,9.2505,9.3682,9.4725,9.427,9.4659,9.5163,9.4464,9.3599,9.2761,9.2548,9.1094,8.9737,8.952,8.749,8.5702,8.5702,8.4523,8.3413,8.3413,8.2789,8.2477,8.3309,8.4072,8.464,8.4894,8.7845,9.0053,9.0077,9.2082,9.3322,9.3028,9.337,9.371,9.3966,9.4302,9.4186,9.3495,9.3458,9.2721,9.1063,9.0953,9.0548,8.9811,8.8989,8.8179,8.7247,8.7247,8.7295,8.7269,8.7269,8.7269,6.5062,6.4644,6.3946,6.3841,6.3841,6.3539,6.2813,6.2996,6.2875,6.1075,6.024,5.9452,5.8489,6.0478,6.316,6.5644,6.9179,7.2361,7.4234,7.4517,7.491,7.5603,7.6641,7.7397,7.7617,7.9946,8.1614,8.2118,8.4101,8.4888,8.3912,8.4573,8.5517,8.6682,8.5801,8.5895,8.706,8.5675,8.5549,8.6713,8.6713,8.6588,8.6304,8.514,8.4605,8.4542,8.3377,8.3534,8.4636,8.5044,8.5675,8.6336,8.6336,8.6493,8.6839,8.7909,8.7941,8.7721,8.9987,9.0834,9.1129,9.2057,9.334,9.4472,9.4472,9.4085,9.3492,9.2319,9.0944,8.971,8.8901,8.7823,8.6959,8.748,8.5815,8.4176,8.4176,8.3136,8.2199,8.2199,8.2199,8.2199,8.2199,8.3517,8.4768,8.5297,8.8128,9.0464,9.126,9.1922,9.1914,9.0887,9.1078,9.1404,9.1736,9.1964,9.1971,9.1763,9.1468,9.0584,8.9037,8.9921,8.9295,8.679,8.7111,8.7295,8.7269,8.7269,8.7269,8.7269,8.7269,8.7269,6.3925,6.4051,6.3841,6.322,6.3083,6.2783,6.154,6.1375,6.1045,5.9655,5.9236,5.9258,5.9543,6.3194,6.6615,6.7941,7.251,7.5491,7.3974,7.4296,7.384,7.1668,7.1543,7.2109,7.3242,7.4784,7.6704,7.9096,7.8561,7.853,7.9474,8.2999,8.5045,8.5234,8.6241,8.6871,8.706,8.5675,8.5077,8.5234,8.5234,8.4605,8.3409,8.322,8.3157,8.3125,8.2814,8.2968,8.3157,8.3188,8.3314,8.344,8.344,8.4164,8.5266,8.5454,8.6902,8.8822,8.92,9.0644,9.2281,9.1066,9.0361,8.9866,8.9866,8.953,8.9134,8.8933,8.8063,8.7309,8.7585,8.5968,8.4352,8.4932,8.3748,8.2512,8.2512,8.2373,8.2199,8.2199,8.2199,8.2199,8.2199,8.3517,8.4803,8.5444,8.8551,9.0533,8.9794,9.0267,9.0721,9.0779,9.0803,9.1101,9.1699,9.179,9.1324,9.0216,8.8742,8.7232,8.5648,8.4396,8.4027,8.457,8.6358,8.7242,8.7269,8.7269,8.7269,8.7269,8.7269,8.7269,6.2612,6.3101,6.3327,6.3083,6.2976,6.3006,6.3155,6.3215,6.3066,6.2497,6.3006,6.331,6.2297,6.4682,6.6787,6.6948,6.9169,7.0557,6.9617,6.9731,6.9811,6.9402,6.9339,6.9906,7.1291,7.1983,7.3148,7.5099,7.4029,7.4218,7.6327,7.8939,8.1048,8.259,8.3975,8.4699,8.4699,8.4101,8.3786,8.3786,8.3786,8.3472,8.2873,8.2873,8.2873,8.2873,8.2873,8.2873,8.2873,8.2873,8.2873,8.2873,8.2873,8.3251,8.3881,8.4668,8.621,8.8035,8.8791,8.9058,8.9079,8.8407,8.8108,8.7896,8.7896,8.7541,8.6989,8.6314,8.5292,8.4316,8.4155,8.3339,8.263,8.3159,8.272,8.2199,8.2199,8.2199,8.2199,8.2199,8.2199,8.2199,8.2199,8.2789,8.3525,8.4522,8.6762,8.8442,8.8655,8.9068,8.9049,8.8457,8.8518,8.8426,8.7945,8.7921,8.7272,8.5759,8.4985,8.3429,8.0918,8.1277,8.295,8.586,8.681,8.7279,8.7269,8.7269,8.7269,8.7269,8.7269,8.7252,6.1065,6.1553,6.1989,6.1989,6.1989,6.2348,6.3634,6.3933,6.4023,6.4352,6.525,6.5592,6.425,6.5127,6.6234,6.6442,6.6989,6.7257,6.7126,6.7257,6.7514,6.7797,6.786,6.8301,6.9371,6.9811,7.0284,7.0882,7.0378,7.0913,7.2927,7.4721,7.6767,7.9159,8.0922,8.1992,8.2338,8.2685,8.2873,8.2873,8.2873,8.2873,8.2873,8.2873,8.2873,8.2873,8.2873,8.2873,8.2873,8.2873,8.2873,8.2873,8.2873,8.3062,8.3472,8.4195,8.5549,8.706,8.7189,8.6543,8.5772,8.5973,8.587,8.5737,8.5737,8.5214,8.443,8.3476,8.2766,8.2007,8.1283,8.1396,8.1679,8.1958,8.2119,8.2199,8.2199,8.2199,8.2199,8.2199,8.2199,8.2199,8.2199,8.2671,8.3427,8.4604,8.6095,8.7014,8.6823,8.7371,8.7121,8.5417,8.6142,8.6106,8.4423,8.469,8.4396,8.3143,8.1883,8.0329,7.8482,8.0239,8.3134,8.7214,8.7289,8.7269,8.7269,8.7269,8.7279,8.7299,8.7299,8.7258,5.9236,5.9296,5.9326,5.9326,5.9326,5.9655,6.0912,6.1211,6.157,6.2826,6.3126,6.337,6.3871,6.4395,6.5668,6.8048,6.9583,7.0107,6.9383,6.9867,6.9371,6.6727,6.6412,6.6412,6.6507,6.7734,6.7986,6.6695,6.7766,6.8552,6.871,7.1291,7.3431,7.491,7.7523,7.9569,8.0891,8.2213,8.2873,8.2873,8.2873,8.2873,8.2873,8.2873,8.2873,8.2873,8.2873,8.2873,8.2873,8.2873,8.2873,8.2873,8.2873,8.3692,8.4699,8.344,8.4699,8.662,8.3486,8.2939,8.37,8.4426,8.3445,8.196,8.196,8.1201,8.0352,7.9865,8.0573,8.1332,8.0369,8.1145,8.2119,8.1597,8.1842,8.2199,8.2199,8.2199,8.2199,8.2199,8.2199,8.2199,8.2199,8.3823,8.5579,8.6726,8.8256,8.7887,8.3962,8.4744,8.4692,8.2171,8.4668,8.5462,8.2766,8.4027,8.4911,8.4838,8.0402,7.8666,8.0623,8.1772,8.3933,8.7251,8.7289,8.7269,8.7269,8.7269,8.7308,8.7284,8.7284,8.7266,5.789,5.8488,5.9147,5.9147,5.9147,5.9236,5.9685,5.9805,5.9954,6.0433,6.1809,6.319,6.3781,6.4795,6.5997,6.772,6.7579,6.7294,6.7364,6.7597,6.7419,6.6412,6.6286,6.6286,6.6286,6.6727,6.6821,6.6318,6.6758,6.7419,6.8332,7.0221,7.192,7.3242,7.5131,7.6327,7.683,7.9065,8.0198,8.0198,8.2024,8.2873,8.2873,8.2873,8.2873,8.2873,8.2873,8.2873,8.2873,8.2873,8.2873,8.2873,8.2873,8.2622,8.2244,8.174,8.2181,8.2806,8.1162,8.0588,8.0706,8.0989,8.0326,7.9461,7.9461,7.9569,7.9687,7.9869,8.0491,8.1009,8.0975,8.1562,8.2199,8.2004,8.2119,8.2199,8.2199,8.2199,8.2199,8.2199,8.2199,8.2324,8.2679,8.3328,8.4205,8.54,8.461,8.3385,8.1928,8.2317,8.2489,8.1749,8.2814,8.2915,8.1073,8.0439,8.0218,8.0218,8.0498,8.0129,7.8813,7.91,8.1809,8.7214,8.7289,8.7252,8.7258,8.7258,8.729,8.7279,8.8062,8.7281,5.6095,5.6976,5.8139,5.7686,5.8185,5.8736,5.89,5.8923,5.8945,5.9327,6.0873,6.2358,6.293,6.3939,6.493,6.5992,6.5518,6.5334,6.585,6.6068,6.6286,6.6286,6.6286,6.6286,6.6286,6.6286,6.6286,6.6286,6.6286,6.6695,6.764,6.8584,6.9748,7.1102,7.2518,7.3494,7.3935,7.6201,7.7334,7.7365,7.9222,8.0104,8.0104,8.0104,8.0607,8.1457,8.0985,8.1331,8.2118,8.1677,8.1457,8.1457,8.1457,8.0922,8.0104,8.0104,7.9939,7.9555,7.9441,7.8845,7.8117,7.8416,7.7886,7.7236,7.7236,7.7698,7.8342,7.8958,7.9656,8.0224,8.0873,8.1479,8.1958,8.1958,8.2085,8.2199,8.2199,8.2199,8.2279,8.2481,8.2481,8.2714,8.3283,8.3467,8.3683,8.3965,8.264,8.1458,8.0917,8.109,8.0979,8.0106,8.1231,8.1286,7.9379,7.8231,7.7894,7.8636,8.2029,8.2145,7.7747,7.7526,8.0614,8.713,8.7272,8.7247,8.7273,8.7684,8.784,8.7792,8.5258,8.2896,5.4093,5.485,5.6236,5.5061,5.6314,5.797,5.8358,5.845,5.8726,5.9654,6.0061,6.0573,6.1203,6.1732,6.2128,6.2974,6.379,6.4491,6.5075,6.5724,6.6255,6.6286,6.6286,6.6286,6.6286,6.6286,6.6286,6.6286,6.6286,6.6286,6.6286,6.6286,6.6916,6.8269,6.9685,7.107,7.2361,7.3809,7.4533,7.4533,7.4596,7.4627,7.4627,7.4627,7.6075,7.8498,7.7239,7.8184,8.0513,7.9159,7.8593,7.8593,7.8593,7.8593,7.8561,7.8498,7.7783,7.6967,7.789,7.7223,7.6094,7.683,7.6161,7.5021,7.5021,7.5367,7.5926,7.6908,7.7871,7.8843,7.9773,8.0667,8.1376,8.1376,8.1704,8.2095,8.221,8.221,8.2368,8.2949,8.2954,8.3177,8.3896,8.4342,8.4102,8.2634,8.2784,8.2506,8.0917,8.0926,8.0017,7.7114,7.9828,8.0689,7.7833,7.7526,7.8489,8.0601,8.467,8.4152,7.782,7.7562,8.0544,8.6906,8.7058,8.7055,8.7016,8.8097,8.86,8.8285,7.8838,7.4357,5.5605,5.5386,5.5487,5.668,5.6707,5.6697,5.7821,5.7266,5.6922,5.8183,5.8015,5.8202,5.9952,5.9896,6.0176,6.2002,6.2721,6.3504,6.507,6.5026,6.5407,6.6929,6.6674,6.6286,6.6286,6.6286,6.6286,6.6286,6.6286,6.6286,6.6286,6.6286,6.6444,6.6853,6.7262,6.764,6.8017,7.0472,7.17,7.17,7.3714,7.4627,7.4627,7.4627,7.5036,7.576,7.5382,7.5634,7.6327,7.5918,7.576,7.5871,7.625,7.6545,7.6322,7.4252,7.3694,7.4002,7.4861,7.5152,7.536,7.5503,7.5357,7.5021,7.5021,7.5108,7.5382,7.5924,7.6484,7.7119,7.774,7.8211,7.8604,7.8604,7.8758,7.9335,8.0904,8.1223,8.1687,8.3398,8.2693,8.248,8.42,8.2785,8.1722,8.2845,8.1184,7.9184,7.7559,7.7397,7.7302,7.681,7.7826,7.8275,7.7612,7.7575,7.779,7.8452,7.9576,7.9408,7.7642,7.7575,7.8803,8.1433,8.1508,8.1533,8.1501,8.0236,7.8784,7.7225,7.77,7.7237,5.1477,5.0894,5.1299,5.349,5.3664,5.4198,5.7727,5.6896,5.599,5.7904,5.7914,5.7963,5.8897,5.8816,5.9155,6.0444,6.0962,6.1804,6.3487,6.3803,6.4392,6.5976,6.5218,6.4902,6.5724,6.5628,6.5688,6.6255,6.6286,6.6286,6.6286,6.6286,6.6286,6.6286,6.6286,6.6286,6.6286,6.7954,6.8773,6.8804,7.0378,7.1133,7.1133,7.1133,7.1133,7.1196,7.1763,7.2707,7.3714,7.3179,7.2927,7.2927,7.3322,7.3533,7.3456,7.251,7.2774,7.3794,7.4191,7.427,7.4116,7.4116,7.3681,7.3144,7.3144,7.3347,7.3649,7.4507,7.5007,7.5663,7.6677,7.7162,7.7359,7.7511,7.7737,7.8241,7.955,7.9941,8.0575,8.2044,8.1507,8.1348,8.2887,8.162,8.0625,8.1112,7.9075,7.7089,7.6151,7.6006,7.5877,7.568,7.6479,7.7121,7.7549,7.6303,7.6085,7.7491,7.7575,7.7579,7.7576,7.5381,7.4477,7.5152,7.5175,7.518,7.5158,7.3857,7.2559,7.1388,7.4666,7.5982,4.4341,4.4022,4.5744,4.7487,4.8328,5.0312,0.0,5.5647,5.4392,5.714,5.8004,5.8133,5.7798,5.8217,5.8739,5.8966,5.9361,6.0072,6.1418,6.2355,6.314,6.3799,6.2822,6.2843,6.4632,6.4521,6.4871,6.5971,6.6192,6.6286,6.6286,6.6286,6.6286,6.6286,6.6286,6.6286,6.6286,6.6286,6.6286,6.6286,6.6286,6.6286,6.6286,6.6286,6.6286,6.6349,6.7608,6.956,7.1763,7.0567,7.0095,7.0198,7.03,7.0269,7.0416,7.1824,7.3241,7.4432,7.4519,7.3681,7.2608,7.2608,7.1752,7.0645,7.0645,7.1036,7.1659,7.2979,7.3605,7.4307,7.6068,7.6568,7.6645,7.7026,7.7474,7.7868,7.8113,7.8566,7.9172,8.0022,8.0012,8.0123,8.0751,8.0556,7.9725,7.7956,7.6439,7.5465,7.5465,7.5465,7.5028,7.397,7.5303,7.6517,7.7152,7.4096,7.3428,7.6463,7.6636,7.665,7.6644,7.1964,6.9404,6.942,6.9409,6.939,6.9397,6.9397,6.9419,6.944,7.1019,7.2523,0.0,0.0,0.0,0.0,0.0,0.0,0.0,4.6508,4.6258,5.0573,5.1573,5.2654,5.6153,5.7406,5.8268,5.9354,6.0172,6.0725,6.1238,6.1371,6.1316,6.0993,6.1584,6.2226,6.2721,6.4104,6.4897,6.4776,6.5688,6.6286,6.6286,6.6286,6.6286,6.6286,6.6286,6.6286,6.6286,6.6286,6.6286,6.6286,6.6286,6.6286,6.6286,6.6286,6.6286,6.6318,6.6569,6.701,6.7482,6.723,6.7497,6.8108,6.8611,6.8517,6.8139,6.9023,6.9857,7.0728,7.1235,7.1234,7.0999,7.0999,7.1076,7.1149,7.1149,7.1433,7.1966,7.2544,7.2797,7.2981,7.3659,7.3873,7.3873,7.3945,7.4335,7.5197,7.6895,7.763,7.8555,8.036,7.972,7.9251,8.0628,7.8678,7.597,7.3154,7.2432,7.2251,7.2251,7.2251,7.2308,7.2497,7.2844,7.3587,7.4935,7.1206,6.9439,7.0915,7.0986,7.1,7.0974,6.9975,6.9409,6.9412,6.939,6.9375,6.9402,6.9402,6.9402,6.944,7.1019,7.1921,0.0,0.0,0.0,0.0,0.0,0.0,0.0,0.0,0.0,0.0,0.0,4.8211,5.2435,0.0,5.5592,5.8093,5.8998,5.9661,6.0354,6.0171,5.9806,5.95,5.987,6.0497,6.15,6.2173,6.3096,6.4303,6.4933,6.5594,6.6255,6.6286,6.6286,6.6286,6.6286,6.6286,6.6286,6.6286,6.6286,6.6286,6.6286,6.6286,6.6286,6.6286,6.6286,6.6286,6.6286,6.6286,6.6286,6.6286,6.6481,6.6961,6.8017,6.8649,6.9091,6.9351,6.978,7.015,7.0481,7.0563,7.0563,7.0874,7.1149,7.1342,7.1545,7.1898,7.2276,7.2425,7.2646,7.2791,7.2791,7.29,7.3043,7.2829,7.3565,7.4293,7.4476,7.5181,7.5768,7.6024,7.5465,7.5176,7.597,7.4742,7.3154,7.1565,7.1312,7.1312,7.1312,7.1312,7.1123,7.0617,7.1375,7.1639,7.0892,6.9904,6.9106,6.8658,6.8855,6.9124,6.9361,6.9348,6.9248,6.9209,6.9262,6.9359,6.9402,6.9402,6.9402,6.9402,7.0192,7.0982,0.0,0.0,0.0,0.0,0.0,0.0,0.0,0.0,0.0,0.0,0.0,0.0,0.0,0.0,0.0,5.5529,5.7267,5.8419,5.9,5.8727,5.8419,5.8369,5.8325,5.8876,6.0381,6.0334,6.112,6.3328,6.402,6.4807,6.5846,6.616,6.6286,6.6286,6.6286,6.6286,6.6286,6.6286,6.6286,6.6286,6.6286,0.0,6.6286,6.6286,6.6286,6.6286,6.6286,6.6286,6.6286,6.6286,6.6286,6.6418,6.7254,6.827,6.9283,6.9448,6.9644,6.9725,6.9725,6.9926,7.0242,7.0631,7.1026,7.1354,7.1327,7.1811,0.0,7.1703,7.2163,7.276,7.2193,7.2477,7.29,7.2757,7.37,7.4246,7.2639,7.3048,7.319,7.1637,7.1312,7.1312,7.1312,7.0807,7.041,7.041,7.041,7.041,7.041,7.041,6.9953,6.8785,6.9952,6.9847,6.7485,6.8683,6.8995,6.7807,6.7687,6.8162,6.9277,6.9231,6.8706,6.7775,6.7866,6.8398,6.9402,6.9402,6.9402,6.9327,6.7072,6.7222,0.0,0.0,0.0,0.0,0.0,0.0,0.0,0.0,0.0,0.0,0.0,0.0,0.0,0.0,0.0,0.0,5.5786,5.8591,5.7108,5.6996,5.6852,5.6348,5.7772,5.8765,5.8516,5.9934,6.0793,6.0558,6.2918,6.4366,6.4524,6.5657,0.0,0.0,0.0,6.6286,6.6286,6.6286,6.6286,6.6286,6.6286,6.6286,6.6286,6.6286,6.6286,6.6286,6.6286,6.6286,6.6286,6.6286,6.6286,6.6131,6.5037,6.476,6.493,6.5528,6.6172,6.6742,6.6742,0.0,0.0,6.8732,6.9911,7.1072,6.9762,7.0578,7.1393,6.8767,6.993,7.1783,7.0706,7.1505,7.2791,7.3496,7.4163,7.4308,7.3087,7.3268,7.319,7.1637,7.1312,7.1312,7.1312,6.8929,6.7015,6.7015,6.7015,6.7015,6.7015,6.7015,6.7167,6.7424,6.7446,0.0,6.7434,6.6124,6.5831,6.7229,6.5322,6.5617,6.8924,6.9067,6.7205,6.3399,6.3356,6.5329,6.9402,6.9402,6.9402,6.9139,5.8725,5.6394,0.0,0.0,0.0,0.0,0.0,0.0,0.0,0.0,0.0,0.0,0.0,0.0,0.0,0.0,0.0,0.0,5.1743,5.3766,5.2169,5.4306,5.5849,5.5261,5.6629,5.749,5.6927,5.8411,5.9551,6.0054,6.1187,6.2226,6.3044,6.3611,6.3926,6.3926,6.3926,6.4177,6.4712,6.4744,6.4744,6.4744,6.5783,6.5436,6.3957,6.4775,6.4712,6.3926,6.3926,6.4113,6.4453,6.4453,6.4728,6.5052,0.0,0.0,0.0,0.0,6.5806,6.6976,6.644,6.6641,6.7222,6.7453,6.8044,6.8679,6.8225,6.8685,6.9071,6.7772,6.8531,6.9532,6.8774,7.0021,7.1343,7.0919,7.2057,7.2639,7.0643,7.0571,7.0482,6.8821,6.8496,0.0,6.8496,6.7377,6.6474,6.6474,6.6474,6.6474,6.6474,6.6474,6.6567,6.6751,6.6705,6.6849,6.7437,6.6672,0.0,0.0,0.0,6.7231,6.8721,6.8899,0.0,0.0,0.0,6.1164,6.2146,5.9252,0.0,0.0,5.489,5.3387,0.0,0.0,0.0,0.0,0.0,0.0,0.0,0.0,0.0,0.0,0.0,0.0,0.0,0.0,0.0,0.0,4.6943,4.9033,4.7188,5.1021,5.3727,5.301,5.4705,5.5817,5.5314,5.6655,5.804,5.9456,5.9897,6.0469,6.1596,6.2006,6.21,6.1848,6.1848,6.2289,6.3202,6.2446,6.2604,6.3611,6.4681,6.4146,6.2257,6.3265,6.3202,6.2226,6.2226,6.2558,6.3183,6.3183,6.3588,6.4123,6.3983,6.4051,6.4219,6.4011,6.4831,6.5937,6.5267,6.53,6.5711,6.5978,6.6357,6.6668,6.6522,6.6875,6.7117,6.6299,6.6887,6.7679,6.7128,6.8577,6.9987,6.9167,7.0385,7.1109,6.8909,6.8731,6.8496,6.6799,6.6474,6.6474,6.6474,6.6474,6.6474,6.6474,6.6474,6.6474,6.6474,6.6474,6.6521,6.6567,6.666,6.6929,6.74,6.7191,6.7411,6.8373,6.8275,6.8351,6.8705,6.801,6.7663,6.7749,6.3065,5.9418,0.0,0.0,0.0,0.0,0.0,0.0,0.0,0.0,0.0,0.0,0.0,0.0,0.0,0.0,0.0,0.0,0.0,0.0,0.0,0.0,0.0,0.0,0.0,0.0,4.3158,4.6979,4.9803,4.8852,5.1861,5.3789,5.3529,5.5075,5.6623,5.8125,5.9362,6.006,6.0091,6.1471,6.1817,6.0904,6.0873,6.1313,6.2257,5.9582,6.0023,6.3579,6.2761,6.2289,6.2226,6.2257,6.2257,6.2226,6.2226,6.2558,6.3183,6.3183,6.3588,6.3928,6.178,6.1371,6.1948,6.1914,6.1948,6.1982,6.1948,6.2853,6.4026,6.4026,6.5032,6.6081,6.4537,6.5298,6.6099,6.3362,6.4862,6.7018,6.6031,6.7192,6.8893,6.9729,7.0255,7.027,6.9227,6.8965,6.8496,6.6799,6.6474,6.6474,6.6474,6.6474,6.6474,6.6474,6.6474,0.0,6.6474,6.6474,6.6567,6.6796,6.7096,6.7307,6.74,6.6519,6.6628,6.833,6.7251,6.73,6.8918,6.5879,6.4084,6.4084,6.4045,6.1626,5.6773,0.0,0.0,0.0,0.0,0.0,0.0,0.0,0.0,0.0,0.0,0.0,0.0,0.0,0.0,0.0,0.0,0.0,0.0,0.0,0.0,0.0,0.0,0.0,0.0,4.4957,4.7998,4.8438,4.9913,5.0201,4.8463,5.0443,5.2469,5.3854,5.6057,5.7756,5.8701,5.9204,5.9417,5.9102,5.8984,5.9228,5.9456,5.8629,5.8787,5.9928,6.1502,6.125,5.9488,6.04,6.0337,5.9456,5.9456,5.9827,6.0357,6.0357,6.1182,6.2516,6.1785,6.1636,6.1814,6.1814,6.1814,6.1814,6.1814,6.2116,6.259,6.2806,6.3427,6.3872,6.333,6.3569,6.3912,6.2925,6.3639,6.4592,6.4275,6.576,6.7354,6.7018,6.7997,6.8747,6.7569,6.7304,6.716,6.6582,6.5643,6.3946,6.0848,6.373,6.5066,6.0913,6.3802,6.6474,6.6474,6.6474,6.6521,6.6614,6.666,6.6885,6.7307,6.7229,6.7511,6.8373,6.8258,6.8422,6.8982,6.7936,6.73,6.73,6.7376,6.1694,5.0155,0.0,0.0,0.0,0.0,0.0,0.0,0.0,0.0,0.0,0.0,0.0,0.0,0.0,0.0,0.0,0.0,0.0,0.0,0.0,0.0,0.0,0.0,0.0,0.0,0.0,0.0,4.7609,4.7483,0.0,4.488,4.554,4.6898,4.8755,5.0989,5.3254,5.5308,5.5874,5.6461,5.7186,5.7789,5.8157,5.8157,5.8157,5.8157,5.8157,5.9204,5.9141,5.8157,5.8984,5.889,5.8157,5.8348,5.8702,5.9145,5.7908,5.798,5.8944,5.9086,5.8822,5.8524,5.9197,5.9503,5.9707,6.0245,6.082,6.1262,6.1025,5.9935,5.8673,5.8673,5.7954,5.7443,5.9204,6.0276,6.144,6.3312,6.5012,6.6188,6.5645,6.6569,6.7394,6.6643,6.6004,6.5643,6.5643,6.4813,6.2646,5.7993,6.0523,6.178,5.7777,6.0552,6.3946,6.6185,6.6474,6.6474,6.6474,6.666,6.6929,6.743,6.7855,6.8208,6.8596,6.8874,6.8993,6.8993,6.8993,6.7872,6.5517,6.4882,5.8714,0.0,0.0,0.0,0.0,0.0,0.0,0.0,0.0,0.0,0.0,0.0,0.0,0.0,0.0,0.0,0.0,0.0,0.0,0.0,0.0,0.0,0.0,0.0,0.0,0.0,0.0,0.0,4.6372,4.4452,0.0,0.0,0.0,0.0,4.2932,4.4474,4.676,4.9945,5.1351,5.2951,5.473,5.6757,5.7884,5.7884,5.7715,5.781,5.7904,5.6025,5.6151,5.7999,5.7999,5.7999,5.7999,5.8428,5.9017,5.9345,5.5958,5.4141,5.3546,5.3692,5.3035,5.2136,5.4145,5.4964,5.5348,5.7203,5.8703,5.9556,5.8351,5.4966,5.1238,5.0967,4.8941,0.0,0.0,5.4826,5.7427,6.2614,6.4355,6.4864,6.5497,6.5934,6.6221,6.6221,6.5066,6.3946,6.3694,6.3585,6.1924,5.6946,0.0,5.6584,5.6259,5.6765,5.933,6.5354,6.6329,6.6474,6.6474,6.6966,6.7389,6.7781,6.8174,6.8529,6.8817,6.8881,6.8833,6.8758,6.8534,6.5393,5.8977,5.704,0.0,0.0,0.0,0.0,0.0,0.0,0.0,0.0,0.0,0.0,0.0,0.0,0.0,0.0,0.0,0.0,0.0,0.0,0.0,0.0,0.0,0.0,0.0,0.0,0.0,0.0,4.2161,4.5437,4.4402,4.0921,3.7859,0.0,0.0,0.0,0.0,0.0,0.0,4.3658,4.5916,4.5878,4.3246,5.0467,5.4389,5.4389,5.2695,5.2941,5.4924,5.4452,5.4829,5.5962,5.5962,5.5962,5.5931,5.5369,5.5419,5.5785,5.3873,5.244,5.1231,4.8919,4.7275,4.6532,4.9253,4.9602,4.9414,5.4564,5.4974,5.321,5.3425,5.2435,5.0419,4.6432,0.0,0.0,0.0,0.0,4.9632,5.4724,5.6328,5.7609,6.1495,6.2734,6.2971,6.2971,6.2683,6.1347,5.7736,5.6111,5.2284,4.2751,4.6073,0.0,4.369,5.1056,5.8138,6.0913,6.4307,6.6474,6.6474,6.6966,6.7266,6.7389,6.8036,6.7953,6.678,6.697,6.6552,6.5281,6.1692,5.8401,5.5522,0.0,0.0,0.0,0.0,0.0,0.0,0.0,0.0,0.0,0.0,0.0,0.0,0.0,0.0,0.0,0.0,0.0,0.0,0.0,0.0,0.0,0.0,0.0,0.0,0.0,0.0,0.0,3.84,4.1579,4.1062,3.7083,3.3814,0.0,0.0,0.0,0.0,0.0,0.0,0.0,0.0,0.0,3.6433,4.6337,5.1619,5.1619,5.0411,5.1178,5.3854,5.3444,5.3728,5.464,5.4849,5.4928,5.4976,5.4946,5.439,5.3186,5.0375,4.8064,4.6043,0.0,0.0,0.0,0.0,4.3473,4.3449,4.7687,4.7124,4.4719,4.5854,0.0,0.0,0.0,0.0,0.0,0.0,0.0,4.5975,5.1086,5.4665,5.7734,6.0774,6.1683,6.178,6.178,5.6869,5.185,4.9828,4.759,4.3401,3.4963,3.7299,0.0,0.0,0.0,5.2681,5.7813,6.1924,6.476,6.5627,6.5378,6.5228,6.55,6.5958,6.5903,6.5117,6.5242,6.3972,6.0832,5.7376,5.2738,0.0,0.0,0.0,0.0,0.0,0.0,0.0,0.0,0.0,0.0,0.0,0.0,0.0,0.0,0.0,0.0,0.0,0.0,0.0,0.0,0.0,0.0,0.0,0.0,0.0,0.0,0.0,0.0,0.0,3.7344,3.7433,0.0,0.0,0.0,0.0,0.0,0.0,0.0,0.0,0.0,0.0,0.0,0.0,0.0,4.6488,4.6488,4.759,4.951,5.2217,5.0675,5.036,5.1147,5.2367,5.2909,5.3098,5.3779,0.0,5.1293,4.5483,0.0,0.0,0.0,0.0,0.0,0.0,0.0,0.0,0.0,0.0,0.0,0.0,0.0,0.0,0.0,0.0,0.0,0.0,0.0,0.0,0.0,0.0,5.8603,5.9168,5.9794,6.0011,5.9144,4.9214,4.0592,4.1097,3.8824,3.5324,0.0,0.0,0.0,0.0,0.0,0.0,5.5105,5.9594,6.2581,6.4446,6.3397,6.2781,6.3369,6.3458,6.3497,6.3649,6.2813,6.0308,5.5784,5.3674,0.0,0.0,0.0,0.0,0.0,0.0,0.0,0.0,0.0,0.0,0.0,0.0,0.0,0.0,0.0,0.0,0.0,0.0,0.0,0.0,0.0,0.0,0.0,0.0,0.0,0.0,0.0,0.0,0.0,0.0,0.0,0.0,0.0,0.0,0.0,0.0,0.0,0.0,0.0,0.0,0.0,0.0,0.0,0.0,0.0,0.0,0.0,0.0,0.0,0.0,3.8809,3.6668,3.6983,4.1637,4.4037,4.4584,4.2952,4.5528,5.0043,3.8217,0.0,0.0,0.0,0.0,0.0,0.0,0.0,0.0,0.0,0.0,0.0,0.0,0.0,0.0,0.0,0.0,0.0,0.0,0.0,0.0,0.0,0.0,4.4118,4.5719,4.9106,5.0586,4.5315,0.0,0.0,0.0,0.0,0.0,0.0,0.0,0.0,0.0,0.0,0.0,5.1069,5.7954,6.2813,6.4103,6.3714,6.3413,6.3532,6.3718,6.3325,6.2103,5.6868,5.283,0.0,0.0,0.0,0.0,0.0,0.0,0.0,0.0,0.0,0.0,0.0,0.0,0.0,0.0,0.0,0.0,0.0,0.0,0.0,0.0,0.0,0.0,0.0,0.0,0.0,0.0,0.0,0.0,0.0,0.0,0.0,0.0,0.0,0.0,0.0,0.0,0.0,0.0,0.0,0.0,0.0,0.0,0.0,0.0,0.0,0.0,0.0,0.0,0.0,0.0,0.0,0.0,0.0,0.0,0.0,0.0,0.0,0.0,4.221,4.093,0.0,0.0,0.0,0.0,0.0,0.0,0.0,0.0,0.0,0.0,0.0,0.0,0.0,0.0,0.0,0.0,0.0,0.0,0.0,0.0,0.0,0.0,0.0,0.0,0.0,0.0,0.0,0.0,0.0,0.0,0.0,0.0,0.0,0.0,0.0,0.0,0.0,0.0,0.0,0.0,4.9774,5.6094,6.0583,6.2451,6.1604,6.1005,6.1131,6.1307,6.0055,5.6783,5.2664,0.0,0.0,0.0,0.0,0.0,0.0,0.0,0.0,0.0,0.0,0.0,0.0,0.0,0.0,0.0,0.0,0.0,0.0,0.0,0.0,0.0,0.0,0.0,0.0,0.0,0.0,0.0,0.0,0.0,0.0,0.0,0.0,0.0,0.0,0.0,0.0,0.0,0.0,0.0,0.0,0.0,0.0,0.0,0.0,0.0,0.0,0.0,0.0,0.0,0.0,0.0,0.0,0.0,0.0,0.0,0.0,0.0,0.0,0.0,4.0894,3.6365,0.0,0.0,0.0,0.0,0.0,0.0,0.0,0.0,0.0,0.0,0.0,0.0,0.0,0.0,0.0,0.0,0.0,0.0,0.0,0.0,0.0,0.0,0.0,0.0,0.0,0.0,0.0,0.0,0.0,0.0,0.0,0.0,0.0,0.0,0.0,0.0,0.0,0.0,0.0,0.0,5.0923,5.5429,5.85,6.0532,5.9477,5.8707,5.8977,5.9066,5.7049,5.2217,4.8885,0.0,0.0,0.0,0.0,0.0,0.0,0.0,0.0,0.0,0.0,0.0,0.0,0.0,0.0,0.0,0.0,0.0,0.0,0.0,0.0,0.0,0.0,0.0,0.0,0.0,0.0,0.0,0.0,0.0,0.0,0.0,0.0,0.0,0.0,0.0,0.0,0.0,0.0,0.0,0.0,0.0,0.0,0.0,0.0,0.0,0.0,0.0,0.0,0.0,0.0,0.0,0.0,0.0,0.0,0.0,0.0,0.0,0.0,0.0,0.0,0.0,0.0,0.0,0.0,0.0,0.0,0.0,0.0,0.0,0.0,0.0,0.0,0.0,0.0,0.0,0.0,0.0,0.0,0.0,0.0,0.0,0.0,0.0,0.0,0.0,0.0,0.0,0.0,0.0,0.0,0.0,0.0,0.0,0.0,0.0,0.0,0.0,0.0,0.0,0.0,0.0,5.5358,5.756,5.8463,5.9053,5.9082,5.9097,5.923,5.9267,5.7185,5.2217,0.0,0.0,0.0,0.0,0.0,0.0,0.0,0.0,0.0,0.0,0.0,0.0,0.0,0.0,0.0,0.0,0.0,0.0,0.0,0.0,0.0,0.0,0.0,0.0,0.0,0.0,0.0,0.0,0.0,0.0,0.0,0.0,0.0,0.0,0.0,0.0,0.0,0.0,0.0,0.0,0.0,0.0,0.0,0.0,0.0,0.0,0.0,0.0,0.0,0.0,0.0,0.0,0.0,0.0,0.0,0.0,0.0,0.0,0.0,0.0,0.0,0.0,0.0,0.0,0.0,0.0,0.0,0.0,0.0,0.0,0.0,0.0,0.0,0.0,0.0,0.0,0.0,0.0,0.0,0.0,0.0,0.0,0.0,0.0,0.0,0.0,0.0,0.0,0.0,0.0,0.0,0.0,0.0,0.0,0.0,0.0,0.0,0.0,0.0,0.0,0.0,0.0,5.5755,5.8017,5.8278,5.8424,5.8834,5.9104,5.9189,5.9267,5.5929,4.795,0.0,0.0,0.0,0.0,0.0,0.0,0.0,0.0,0.0,0.0,0.0,0.0,0.0,0.0,0.0,0.0,0.0,0.0,0.0,0.0,0.0,0.0,0.0,0.0,0.0,0.0,0.0,0.0,0.0,0.0,0.0,0.0,0.0,0.0,0.0,0.0,0.0,0.0,0.0,0.0,0.0,0.0,0.0,0.0,0.0,0.0,0.0,0.0,0.0,0.0,0.0,0.0,0.0,0.0,0.0,0.0,0.0,0.0,0.0,0.0,0.0,0.0,0.0,0.0,0.0,0.0,0.0,0.0,0.0,0.0,0.0,0.0,0.0,0.0,0.0,0.0,0.0,0.0,0.0,0.0,0.0,0.0,0.0,0.0,0.0,0.0,0.0,0.0,0.0,0.0,0.0,0.0,0.0,0.0,0.0,0.0,0.0,0.0,0.0,0.0,0.0,0.0,5.5632,5.8119,5.8234,5.8507,5.8834,5.9147,5.9189,5.9307,5.5119,4.5115,0.0,0.0,0.0,0.0,0.0,0.0,0.0,0.0,0.0,0.0,0.0,0.0,0.0,0.0,0.0,0.0,0.0,0.0,0.0,0.0,0.0,0.0,0.0,0.0,0.0,0.0,0.0,0.0,0.0,0.0,0.0,0.0,0.0,0.0,0.0,0.0,0.0,0.0,0.0,0.0,0.0,0.0,0.0,0.0,0.0,0.0,0.0,0.0,0.0,0.0,0.0,0.0,0.0,0.0,0.0,0.0,0.0,0.0,0.0,0.0,0.0,0.0,0.0,0.0,0.0,0.0,0.0,0.0,0.0,0.0,0.0,0.0,0.0,0.0,0.0,0.0,0.0,0.0,0.0,0.0,0.0,0.0,0.0,0.0,0.0,0.0,0.0,0.0,0.0,0.0,0.0,0.0,0.0,0.0,0.0,0.0,0.0,0.0,0.0,0.0,0.0,0.0,5.5604,5.8134,5.8471,5.9343,5.9238,5.9189,5.9459,5.9477,5.5191,0.0,0.0,0.0,0.0,0.0,0.0,0.0,0.0,0.0,0.0,0.0,0.0,0.0,0.0,0.0,0.0,0.0,0.0,0.0,0.0,0.0,0.0,0.0,0.0,0.0,0.0,0.0,0.0,0.0,0.0,0.0,0.0,0.0,0.0,0.0,0.0,0.0,0.0,0.0,0.0,0.0,0.0,0.0,0.0,0.0,0.0,0.0,0.0,0.0,0.0,0.0,0.0,0.0,0.0,0.0,0.0,0.0,0.0,0.0,0.0,0.0,0.0,0.0,0.0,0.0,0.0,0.0,0.0,0.0,0.0,0.0,0.0,0.0,0.0,0.0,0.0,0.0,0.0,0.0,0.0,0.0,0.0,0.0,0.0,0.0,0.0,0.0,0.0,0.0,0.0,0.0,0.0,0.0,0.0,0.0,0.0,0.0,0.0,0.0,0.0,0.0,0.0,0.0,5.5618,5.814,5.8468,5.9373,5.9397,5.9384,5.9477,5.9477,5.5191,4.5153,0.0,0.0,0.0,0.0,0.0,0.0,0.0,0.0,0.0,0.0,0.0,0.0,0.0,0.0,0.0,0.0,0.0,0.0,0.0,0.0,0.0,0.0,0.0,0.0,0.0,0.0,0.0,0.0,0.0,0.0,0.0,0.0,0.0,0.0,0.0,0.0,0.0,0.0,0.0,0.0,0.0,0.0,0.0,0.0,0.0,0.0,0.0,0.0,0.0,0.0,0.0,0.0,0.0,0.0,0.0,0.0,0.0,0.0,0.0,0.0,0.0,0.0,0.0,0.0,0.0,0.0,0.0,0.0,0.0,0.0,0.0,0.0,0.0,0.0,0.0,0.0,0.0,0.0,0.0,0.0,0.0,0.0,0.0,0.0,0.0,0.0,0.0,0.0,0.0,0.0,0.0,0.0,0.0,0.0,0.0,0.0,0.0,0.0,0.0,0.0,0.0,0.0,0.0,5.3792,5.8626,5.9224,5.938,5.9477,5.9477,5.9477,5.5191,4.5153,0.0,0.0,0.0,0.0,0.0,0.0,0.0,0.0,0.0,0.0,0.0,0.0,0.0,0.0,0.0,0.0,0.0,0.0,0.0,0.0,0.0,0.0,0.0,0.0,0.0,0.0,0.0,0.0,0.0,0.0,0.0,0.0,0.0,0.0,0.0,0.0,0.0,0.0,0.0,0.0,0.0,0.0,0.0,0.0,0.0,0.0,0.0,0.0,0.0,0.0,0.0,0.0,0.0,0.0,0.0,0.0,0.0,0.0,0.0,0.0,0.0,0.0,0.0,0.0,0.0,0.0,0.0,0.0,0.0,0.0,0.0,0.0,0.0,0.0,0.0,0.0,0.0,0.0,0.0,0.0,0.0,0.0,0.0,0.0,0.0,0.0,0.0,0.0,0.0,0.0,0.0,0.0,0.0,0.0,0.0,0.0,0.0,0.0,0.0,0.0,0.0,0.0,0.0,4.7337,5.8908,5.8908,5.9264,5.9477,5.9477,5.9477,5.5191,4.5153,4.1469,0.0,0.0,0.0,0.0,0.0,0.0,0.0,0.0,0.0,0.0,0.0,0.0,0.0,0.0,0.0,0.0,0.0,0.0,0.0,0.0,0.0,0.0,0.0,0.0,0.0,0.0,0.0,0.0,0.0,0.0,0.0,0.0,0.0,0.0,0.0,0.0,0.0,0.0,0.0,0.0,0.0,0.0,0.0,0.0,0.0,0.0,0.0,0.0,0.0,0.0,0.0,0.0,0.0,0.0,0.0,0.0,0.0,0.0,0.0,0.0,0.0,0.0,0.0,0.0,0.0,0.0,0.0,0.0,0.0,0.0,0.0,0.0,0.0,0.0,0.0,0.0,0.0,0.0,0.0,0.0,0.0,0.0,0.0,0.0,0.0,0.0,0.0,0.0,0.0,0.0,0.0,0.0,0.0,0.0,0.0,0.0,0.0,0.0,0.0,0.0,0.0,0.0,5.4812,5.8885,5.9325,5.944,5.9477,5.9477,5.9477,5.5191,4.5153,4.1469,0.0,0.0,0.0,0.0,0.0,0.0,0.0,0.0,0.0,0.0,0.0,0.0,0.0,0.0,0.0,0.0,0.0,0.0,0.0,0.0,0.0,0.0,0.0,0.0,0.0,0.0,0.0,0.0,0.0,0.0,0.0,0.0,0.0,0.0,0.0,0.0,0.0,0.0,0.0,0.0,0.0,0.0,0.0,0.0,0.0,0.0,0.0,0.0,0.0,0.0,0.0,0.0,0.0,0.0,0.0,0.0,0.0,0.0,0.0,0.0,0.0,0.0,0.0,0.0,0.0,0.0,0.0,0.0,0.0,0.0,0.0,0.0,0.0,0.0,0.0,0.0,0.0,0.0,0.0,0.0,0.0,0.0,0.0,0.0,0.0,0.0,0.0,0.0,0.0,0.0,0.0,0.0,0.0,0.0,0.0,0.0,0.0,0.0,0.0,0.0,0.0,0.0,5.1206,5.3997,5.7749,5.8275,5.8312,5.8312,5.7597,5.3236,4.4038,4.1055,0.0,0.0,0.0,0.0,0.0,0.0,0.0,0.0,0.0,0.0,0.0,0.0,0.0,0.0,0.0,0.0,0.0,0.0,0.0,0.0,0.0,0.0,0.0,0.0,0.0,0.0,0.0,0.0,0.0,0.0,0.0,0.0,0.0,0.0,0.0,0.0,0.0,0.0,0.0,0.0,0.0,0.0,0.0,0.0,0.0,0.0,0.0,0.0,0.0,0.0,0.0,0.0,0.0,0.0,0.0,0.0,0.0,0.0,0.0,0.0,0.0,0.0,0.0,0.0,0.0,0.0,0.0,0.0,0.0,0.0,0.0,0.0,0.0,0.0,0.0,0.0,0.0,0.0,0.0,0.0,0.0,0.0,0.0,0.0,0.0,0.0,0.0,0.0,0.0,0.0,0.0,0.0,0.0,0.0,0.0,0.0,0.0,0.0,0.0,0.0,0.0,0.0,0.0,4.7482,5.4667,5.6117,5.6545,5.6545,5.5266,5.0921,4.2685,0.0,0.0,0.0,0.0,0.0,0.0,0.0,0.0,0.0,0.0,0.0,0.0,0.0,0.0,0.0,0.0,0.0,0.0,0.0,0.0,0.0,0.0,0.0,0.0,0.0,0.0,0.0,0.0,0.0,0.0,0.0,0.0,0.0,0.0,0.0,0.0,0.0,0.0,0.0,0.0,0.0,0.0,0.0,0.0,0.0,0.0,0.0,0.0,0.0,0.0,0.0,0.0,0.0,0.0,0.0,0.0,0.0,0.0,0.0,0.0,0.0,0.0,0.0,0.0,0.0,0.0,0.0,0.0,0.0,0.0,0.0,0.0,0.0,0.0,0.0,0.0,0.0,0.0,0.0,0.0,0.0,0.0,0.0,0.0,0.0,0.0,0.0,0.0,0.0,0.0,0.0,0.0,0.0,0.0,0.0,0.0,0.0,0.0,0.0,0.0,0.0,0.0,0.0,0.0,4.4326,4.9611,5.2947,5.4832,5.4832,5.4606,5.0883,4.2572,0.0,0.0,0.0,0.0,0.0,0.0,0.0,0.0,0.0,0.0,0.0,0.0,0.0,0.0]}],[{"header":{"parameterUnit":"kt","parameterCategory":2,"dx":1,"dy":1,"la1":29.285339999999998,"la2":30.599998999999997,"lo1":-89.70041500000002,"lo2":-87.6738589999976,"nx":112,"ny":82,"refTime":"2022-10-04T00:00:00:Z","depth":0,"parameterNumber":2,"parameterNumberName":"V-component_of_WINDS"},"data":[-1.1869,-1.2093,-1.1642,-1.0584,-0.9965,-0.931,-0.803,-0.7862,-0.798,-0.7869,-0.8582,-0.9007,-0.8962,0.0,0.0,0.0,0.0,0.0,0.0,-0.6162,0.0,0.0,0.0,0.0,0.0,0.0,0.0,0.0,0.0,0.0,0.0,-1.2512,-1.2512,-1.2512,-1.2512,-1.2512,-1.2512,-1.2512,-1.2512,-1.2512,-1.2512,-1.2512,-1.2512,-1.2512,-1.2512,-1.2512,-1.2512,-1.2512,-1.2486,-1.2184,-1.1968,-1.1799,-1.1482,-1.127,-1.1144,-1.1144,-1.1144,-1.1144,-1.1144,-1.1144,-1.1144,-1.1144,-1.1144,-1.0971,-1.009,-0.9913,-0.958,-0.8064,-0.7689,-0.7483,-0.6671,-0.5596,-0.4694,-0.3831,-0.2961,-0.2089,-0.1568,-0.1046,-0.0523,-0.0523,-0.0174,0.0174,0.0174,0.0871,0.1046,-0.0349,0.0523,0.1395,0.1395,0.2266,0.2812,0.2873,0.2894,0.2904,0.2904,0.2884,0.2882,0.2903,0.2849,0.2808,0.279,0.279,0.279,0.279,0.279,0.279,0.279,0.279,0.2965,0.3313,0.2965,0.2965,-1.1713,-1.1909,-1.1592,-1.0044,-0.936,-0.867,-0.7322,-0.7263,-0.7456,-0.7231,-0.822,-0.9167,-0.8735,0.0,0.0,0.0,0.0,0.0,0.0,0.0,0.0,0.0,0.0,0.0,0.0,0.0,0.0,0.0,-1.3311,0.0,-1.2459,-1.2512,-1.2512,-1.2512,-1.2512,-1.2512,-1.2512,-1.2512,-1.2512,-1.2512,-1.2512,-1.2512,-1.2512,-1.2512,-1.2512,-1.2512,-1.2512,-1.2512,-1.2496,-1.2274,-1.2047,-1.1804,-1.1566,-1.1339,-1.1144,-1.1144,-1.1144,-1.1144,-1.1144,-1.1196,-1.1244,-1.117,-1.1196,-1.1244,-1.1165,-1.1144,-1.0971,-1.0268,-1.0263,-0.9917,-0.9047,-0.8172,-0.7129,-0.6264,-0.5393,-0.4348,-0.3484,-0.2962,-0.2439,-0.2092,-0.1743,-0.1395,-0.1395,-0.1046,-0.1046,-0.1918,-0.0871,0.0,-0.0,0.0705,0.1247,0.128,0.1846,0.2236,0.2267,0.2632,0.2988,0.2968,0.2911,0.2851,0.2793,0.279,0.279,0.279,0.279,0.279,0.279,0.279,0.279,0.279,0.279,0.2833,-1.1773,-1.1664,-1.1183,-0.9254,-0.8724,-0.8309,-0.6731,-0.6948,-0.7519,-0.7573,-0.8998,-1.0381,-1.0651,0.0,0.0,0.0,0.0,0.0,0.0,0.0,0.0,0.0,0.0,0.0,0.0,-1.7671,-1.6412,-1.5647,-1.4197,-1.3102,-1.2438,-1.2512,-1.2512,-1.2512,-1.2512,-1.2512,-1.2512,-1.2512,-1.2512,-1.2512,-1.2512,-1.2512,-1.2512,-1.2512,-1.2512,-1.2512,-1.2512,-1.2512,-1.2496,-1.2285,-1.2058,-1.1815,-1.1577,-1.135,-1.1159,-1.1159,-1.1149,-1.1144,-1.1144,-1.1286,-1.1429,-1.1223,-1.1302,-1.1434,-1.1217,-1.1149,-1.1144,-1.1144,-1.1144,-1.0797,-0.9913,-0.974,-0.9566,-0.87,-0.8358,-0.8184,-0.732,-0.5923,-0.4703,-0.3836,-0.2441,-0.1569,-0.1569,-0.2617,-0.3667,-0.3491,-0.2444,-0.1407,-0.1616,-0.162,-0.1644,-0.1707,-0.0375,0.0565,0.0783,0.2124,0.2842,0.2785,0.291,0.285,0.2617,0.2616,0.279,0.279,0.279,0.279,0.279,0.279,0.279,0.279,0.2797,0.2924,-1.1052,-1.2131,-1.317,-1.1967,-1.1605,-1.1367,-1.059,-0.9703,-0.936,-1.0555,-1.0268,0.0,0.0,0.0,0.0,0.0,0.0,-1.3823,-1.2537,-1.5069,-1.7978,0.0,0.0,-2.1909,-2.299,-2.2006,-2.0485,-1.9064,-1.8654,-1.7078,-1.3817,-1.5013,-1.5206,-1.3676,-1.3488,-1.3488,-1.3488,-1.3488,-1.3488,-1.3482,-1.3105,-1.2911,-1.2911,-1.2706,-1.2512,-1.2512,-1.2512,-1.2512,-1.2507,-1.284,-1.2677,-1.2063,-1.2187,-1.2306,-1.2446,-1.2446,-1.2156,-1.1657,-1.1657,-1.1528,-1.1249,-1.135,-1.1424,-1.1461,-1.1402,-1.127,-1.1144,-1.1144,-1.1144,-1.0971,-1.0792,-1.0792,-1.0441,-0.9566,-0.9393,-0.9047,-0.8184,-0.766,-0.7139,-0.6273,-0.5751,-0.5229,-0.4535,-0.5475,-0.5885,-0.5346,-0.3969,-0.3284,-0.3303,-0.2388,-0.167,-0.171,-0.1327,-0.1145,-0.0978,-0.0585,-0.0384,-0.0371,0.0717,0.1403,0.1395,0.2266,0.279,0.279,0.279,0.279,0.279,0.279,0.279,0.2794,0.2967,0.3081,-1.2618,-1.3685,-1.469,-1.3621,-1.3557,-1.3424,-1.1782,-1.1179,-1.115,-1.1637,0.0,0.0,0.0,0.0,0.0,0.0,-1.5873,-1.7008,-1.5991,-1.8857,-2.1745,-2.3959,-2.5529,-2.636,-2.5951,-2.4997,-2.3671,-2.2199,-2.1358,-1.9702,-1.6684,-1.7687,-1.7878,-1.6734,-1.6541,-1.6541,-1.6541,-1.6541,-1.6541,-1.6548,-1.5405,-1.4832,-1.4832,-1.3676,-1.3094,-1.3094,-1.3094,-1.3094,-1.3094,-1.3488,-1.3346,-1.3107,-1.4243,-1.4086,-1.3378,-1.3162,-1.2805,-1.2313,-1.2198,-1.2065,-1.185,-1.2088,-1.2232,-1.2094,-1.1535,-1.1381,-1.1265,-1.117,-1.1144,-1.1144,-1.1144,-1.1144,-1.0971,-1.0441,-1.0263,-1.009,-0.9047,-0.8874,-0.87,-0.7667,-0.7493,-0.7536,-0.7137,-0.7591,-0.7828,-0.728,-0.6613,-0.5938,-0.5427,-0.4684,-0.3964,-0.3656,-0.3085,-0.2711,-0.2545,-0.196,-0.1548,-0.1503,-0.0729,-0.0178,-0.0177,0.0525,0.0871,0.0871,0.1569,0.1951,0.202,0.257,0.2203,0.1103,0.1732,0.1767,-1.4871,-1.5531,-1.5747,-1.4383,-1.4744,-1.4722,-1.2027,0.0,-1.3092,-1.2621,0.0,-1.4447,-1.5468,0.0,0.0,-1.6862,-1.951,-2.1258,-2.0684,-2.2983,-2.4872,-2.5259,-2.8614,-3.0116,-2.8157,-2.7207,-2.6108,-2.4949,-2.3304,-2.1812,-2.0484,-2.0536,-2.0536,-2.0346,-2.0346,-2.0346,-2.0346,-2.0346,-2.0346,-2.0346,-1.8453,-1.7495,-1.7502,-1.5592,-1.4639,-1.4639,-1.4639,-1.4639,-1.4639,-1.4832,-1.4496,-1.4462,-1.69,-1.6691,-1.4543,-1.4054,-1.3838,-1.3743,-1.3309,-1.3391,-1.3654,-1.3566,-1.3649,-1.3589,-1.2221,-1.1871,-1.1606,-1.1376,-1.1144,-1.1144,-1.1144,-1.1144,-1.1144,-1.1144,-1.1144,-1.0792,-1.009,-0.9913,-0.9576,-0.8729,-0.8559,-0.8669,-0.9201,-0.9275,-0.9291,-0.9102,-0.9118,-0.8814,-0.7817,-0.7644,-0.7313,-0.6461,-0.5099,-0.4117,-0.4117,-0.294,-0.1944,-0.1907,-0.206,-0.2021,-0.1621,-0.1763,-0.1751,-0.1767,-0.0354,0.0366,0.0393,0.1767,0.0982,-0.157,-0.0196,-0.0196,-1.2753,-1.3931,-1.5359,-1.4943,-1.4888,-1.5244,0.0,0.0,0.0,-1.9579,-1.945,-1.9213,-2.0672,-2.0381,-2.0367,-2.1634,-2.3746,-2.4895,-2.3945,-2.7124,-2.9436,-2.9119,-3.0151,-3.0409,-2.9189,-2.926,-2.8151,-2.5461,-2.6086,-2.5024,-2.1694,-2.303,-2.303,-2.1514,-2.1514,-2.1514,-2.1514,-2.1514,-2.1514,-2.1514,-2.0571,-2.019,-2.019,-1.9401,-1.9011,-1.9011,-1.9011,-1.9011,-1.9019,-1.9417,-1.8422,-1.6833,-1.9699,-2.0454,-1.997,-1.9823,-1.9019,-1.814,-1.8065,-1.7916,-1.7337,-1.5887,-1.6754,-1.8116,-1.5417,-1.3961,-1.3188,-1.2913,-1.1991,-1.1144,-1.1144,-1.1144,-1.1144,-1.1144,-1.1144,-1.0971,-1.0792,-1.0792,-1.067,-0.9957,-0.9812,-0.9889,-1.0135,-1.0312,-1.0039,-0.9276,-0.9207,-0.931,-0.8954,-0.8185,-0.7614,-0.7448,-0.6472,-0.5689,-0.5689,-0.5493,-0.5255,-0.5154,-0.524,-0.4601,-0.3266,-0.3184,-0.2878,-0.1724,-0.1535,-0.1353,-0.1375,-0.0982,-0.0981,-0.1568,-0.1176,-0.1177,-1.3743,-1.4574,-1.5683,-1.5285,-1.5487,0.0,0.0,-1.6425,-1.7223,-1.981,-2.0125,-2.0637,-2.2455,-2.2572,-2.2561,-2.3089,-2.5341,-2.7124,-2.7383,-2.9424,-3.0797,-3.0538,-3.0738,-3.0585,-2.9823,-3.021,-2.9665,-2.7635,-2.7899,-2.7119,-2.4958,-2.57,-2.5888,-2.4749,-2.4749,-2.4749,-2.4749,-2.4749,-2.4875,-2.5115,-2.3527,-2.2957,-2.315,-2.1595,-2.0934,-2.0934,-2.0934,-2.0934,-2.0934,-2.1332,-2.1133,-2.1115,-2.2652,-2.2537,-2.1569,-2.1356,-2.1022,-2.0473,-2.0271,-2.0157,-1.9809,-1.8903,-1.9407,-2.0061,-1.8397,-1.7236,-1.6184,-1.5178,-1.4029,-1.319,-1.319,-1.2674,-1.2163,-1.2163,-1.1657,-1.1144,-1.1144,-1.1233,-1.1168,-1.0922,-1.0942,-1.1165,-1.1378,-1.1507,-1.1384,-1.0799,-1.0887,-1.0757,-1.0177,-0.9592,-0.9171,-0.8504,-0.7922,-0.773,-0.773,-0.7151,-0.6932,-0.6866,-0.6407,-0.5565,-0.4729,-0.4781,-0.4533,-0.3915,-0.3136,-0.2745,-0.2747,-0.3533,-0.3923,-0.3921,-0.3136,-0.3138,-1.4796,-1.5207,-1.551,-1.551,-1.5965,0.0,-1.5838,-1.6835,-1.8226,-1.988,-2.1012,-2.2091,-2.3769,-2.4403,-2.459,-2.4285,-2.6409,-2.8544,-2.9799,-3.0421,-3.0773,-3.0879,-3.089,-3.0726,-3.0316,-3.0562,-3.0398,-2.9576,-2.9048,-2.8567,-2.8122,-2.8098,-2.8098,-2.8098,-2.8098,-2.8098,-2.8098,-2.8098,-2.8321,-2.8755,-2.656,-2.5795,-2.6138,-2.4229,-2.3293,-2.3293,-2.3215,-2.3176,-2.3167,-2.3079,-2.3907,-2.5592,-2.5592,-2.4589,-2.3128,-2.2777,-2.2728,-2.2348,-2.2197,-2.2296,-2.2397,-2.1835,-2.1933,-2.2226,-2.1149,-2.0511,-1.981,-1.7964,-1.6508,-1.5391,-1.5391,-1.4543,-1.3515,-1.3515,-1.2674,-1.1841,-1.1544,-1.1696,-1.2033,-1.2486,-1.2879,-1.3064,-1.2862,-1.2895,-1.2706,-1.2512,-1.2512,-1.2123,-1.1341,-1.0919,-1.0451,-0.9531,-0.9293,-0.9096,-0.9131,-0.8377,-0.7821,-0.766,-0.6836,-0.6153,-0.5962,-0.6007,-0.5989,-0.6073,-0.4903,-0.4313,-0.4313,-0.5689,-0.6279,-0.6279,-0.4903,-0.5099,0.0,0.0,0.0,-1.5592,-1.5521,0.0,-2.1047,-2.1599,-2.2162,-2.5986,-2.6855,-2.7007,-2.723,-2.7324,-2.7512,-2.7934,-2.8673,-2.9248,-2.9424,-2.9893,-3.0374,-3.0832,-3.089,-3.0867,-3.0808,-3.0445,-3.0163,-3.0046,-2.9576,-2.9248,-2.9201,-2.9189,-2.9189,-2.9189,-2.9189,-2.9189,-2.9189,-2.9189,-2.9224,-2.9283,-2.9017,-2.882,-2.8878,-2.8624,-2.8589,-2.8566,-2.7936,-2.7731,-2.7696,-2.7228,-2.7762,-2.8797,-2.8797,-2.8325,-2.7731,-2.7865,-2.7267,-2.6463,-2.6417,-2.6428,-2.6099,-2.4252,-2.5124,-2.645,-2.3746,-2.3529,-2.3734,-2.1468,-1.8622,-1.6398,-1.6398,-1.5725,-1.4885,-1.4885,-1.4885,-1.4447,-1.3497,-1.3402,-1.3921,-1.5712,-1.6282,-1.615,-1.4826,-1.4445,-1.4058,-1.2706,-1.2512,-1.2318,-1.2318,-1.1384,-1.0693,-1.048,-0.9569,-0.8973,-0.912,-0.8942,-0.863,-0.7806,-0.7459,-0.702,-0.5979,-0.5948,-0.5989,-0.6073,-0.5887,-0.5887,-0.5887,-0.6083,-0.6279,-0.6279,-0.6083,-0.6083,0.0,0.0,-1.396,-1.5029,0.0,0.0,-2.0249,-2.127,-2.2432,-2.5376,-2.6245,-2.6737,-2.7629,-2.7793,-2.7864,-2.8098,-2.8579,-2.8919,-2.8919,-2.9623,-3.0198,-3.0421,-3.0703,-3.089,-3.089,-3.0703,-3.0574,-3.0574,-3.0093,-2.9811,-2.9811,-2.953,-2.9365,-2.9365,-2.9365,-2.9365,-2.9365,-2.9365,-2.9518,-2.9799,-2.9506,-2.953,-2.9799,-2.9506,-2.9365,-2.9354,-2.9142,-2.9048,-2.9037,-2.8802,-2.8966,-2.9365,-2.9365,-2.9236,-2.9013,-2.872,-2.8333,-2.7899,-2.7582,-2.7476,-2.7292,-2.653,-2.6863,-2.7548,-2.5941,-2.5567,-2.5317,-2.3436,-2.1814,-2.0299,-1.9128,-1.8277,-1.742,-1.6908,-1.6357,-1.5821,-1.5421,-1.5408,-1.5664,-1.6668,-1.706,-1.6962,-1.6184,-1.6184,-1.5991,-1.5219,-1.4445,-1.3864,-1.3864,-1.262,-1.1702,-1.1445,-1.0965,-1.0577,-1.0657,-1.0107,-0.9675,-0.9584,-0.8923,-0.8246,-0.7714,-0.713,-0.6845,-0.6867,-0.6279,-0.6083,-0.6279,-0.6083,-0.6083,-0.6279,-0.6279,-0.6279,-1.2779,0.0,0.0,0.0,0.0,0.0,-2.0989,-2.2091,-2.3229,-2.5153,-2.5869,-2.6479,-2.7582,-2.7793,-2.7793,-2.7793,-2.8122,-2.8438,-2.8591,-2.9236,-2.9811,-3.0093,-3.0445,-3.0738,-3.0879,-3.089,-3.089,-3.089,-3.055,-3.0339,-3.0339,-2.9987,-2.9788,-2.9788,-2.9788,-2.9788,-2.9788,-2.9788,-2.9975,-3.0327,-2.9964,-2.9975,-3.0327,-2.9952,-2.9788,-2.9776,-2.9635,-2.9659,-2.9788,-2.9788,-2.9788,-2.9788,-2.9788,-2.9705,-2.953,-2.9166,-2.8931,-2.8743,-2.8204,-2.8016,-2.7993,-2.784,-2.7793,-2.7699,-2.7183,-2.6772,-2.6196,-2.4988,-2.4397,-2.3765,-2.2234,-2.0917,-1.992,-1.9225,-1.8355,-1.7484,-1.7213,-1.7689,-1.8195,-1.8445,-1.83,-1.8308,-1.7731,-1.7731,-1.7539,-1.7154,-1.6184,-1.5412,-1.5412,-1.4378,-1.3399,-1.2604,-1.2497,-1.2276,-1.173,-1.1095,-1.0713,-1.0785,-0.9923,-0.9362,-0.9048,-0.8399,-0.799,-0.781,-0.6994,-0.6478,-0.6674,-0.687,-0.687,-0.6674,-0.6674,-0.6478,0.0,0.0,0.0,-1.9651,-2.0332,-2.12,-2.5764,-2.608,-2.5834,-2.7383,-2.7711,-2.7735,-2.7781,-2.7793,-2.7793,-2.7793,-2.7805,-2.7993,-2.8532,-2.8638,-2.9025,-3.0011,-3.014,-3.0339,-3.0832,-3.089,-3.089,-3.089,-3.0879,-3.0867,-3.0867,-3.0843,-3.0843,-3.0843,-3.0843,-3.0843,-3.0843,-3.0843,-3.0843,-3.0867,-3.0843,-3.0843,-3.0867,-3.0843,-3.0843,-3.082,-3.0316,-3.0386,-3.0843,-3.0843,-3.0843,-3.0843,-3.0843,-3.0538,-3.0104,-3.0093,-2.9776,-2.9271,-2.8755,-2.8579,-2.8497,-2.7957,-2.7793,-2.7699,-2.7183,-2.7019,-2.6902,-2.6397,-2.6233,-2.5869,-2.4974,-2.3389,-2.215,-2.1971,-2.1265,-2.0114,-1.9011,-2.0319,-2.155,-2.1568,-2.1568,-2.1187,-1.9667,-1.9283,-1.8892,-1.7347,-1.7154,-1.6962,-1.6962,-1.6682,-1.6002,-1.4238,-1.3959,-1.3083,-1.1665,-1.1468,-1.1249,-1.0732,-1.0525,-1.0134,-0.933,-0.9077,-0.8916,-0.9137,-0.7948,-0.746,-0.7464,-0.8646,-0.865,-0.7659,-0.7659,-0.7264,-1.5523,-1.6648,-1.7997,-2.1106,-2.2795,-2.418,-2.6092,-2.6784,-2.7171,-2.7688,-2.7793,-2.7793,-2.7793,-2.7793,-2.7793,-2.7793,-2.7793,-2.7852,-2.804,-2.838,-2.8732,-2.9072,-2.9424,-2.9823,-3.0327,-3.0374,-3.0515,-3.0867,-3.089,-3.089,-3.089,-3.089,-3.089,-3.089,-3.089,-3.089,-3.089,-3.089,-3.089,-3.089,-3.089,-3.089,-3.089,-3.089,-3.089,-3.0879,-3.0703,-3.0726,-3.089,-3.089,-3.089,-3.089,-3.089,-3.0773,-3.0585,-3.0257,-3.0022,-2.9799,-2.9295,-2.9119,-2.9025,-2.8497,-2.8333,-2.8239,-2.7699,-2.73,-2.6995,-2.6819,-2.6526,-2.6092,-2.5915,-2.4842,-2.3851,-2.3605,-2.2998,-2.2326,-2.1896,-2.2424,-2.2519,-2.1949,-2.1759,-2.1568,-2.0996,-2.0996,-2.0805,-2.0224,-1.9275,-1.87,-1.87,-1.7634,-1.6596,-1.5532,-1.5387,-1.4703,-1.3083,-1.2892,-1.2537,-1.1751,-1.1709,-1.1526,-1.1326,-1.0674,-1.029,-1.0124,-0.9127,-0.8744,-0.9385,-0.8992,-0.8599,-0.8404,-0.8436,-0.8251,-1.7751,-1.8695,-1.9865,-2.4032,-2.5805,-2.6647,-2.737,-2.8045,-2.834,-2.798,-2.7793,-2.7793,-2.7793,-2.798,-2.798,-2.798,-2.8166,-2.8364,-2.8364,-2.8676,-2.9035,-2.9406,-2.9753,-3.0231,-3.0938,-3.0806,-3.0743,-3.1074,-3.1098,-3.089,-3.089,-3.089,-3.089,-3.089,-3.089,-3.089,-3.089,-3.089,-3.089,-3.089,-3.089,-3.089,-3.089,-3.089,-3.089,-3.089,-3.089,-3.1293,-3.1913,-3.1913,-3.15,-3.089,-3.15,-3.15,-3.0843,-3.0515,-3.0398,-3.0327,-2.9823,-2.9635,-2.9553,-2.9048,-2.8755,-2.8509,-2.7957,-2.7559,-2.7265,-2.7078,-2.6925,-2.6819,-2.6819,-2.6447,-2.5804,-2.5005,-2.4582,-2.4424,-2.4424,-2.3856,-2.3098,-2.2519,-2.1949,-2.1759,-2.1759,-2.1759,-2.1759,-2.1759,-2.0996,-2.0241,-2.0241,-1.9458,-1.8281,-1.7351,-1.7,-1.6292,-1.4829,-1.4438,-1.4188,-1.3875,-1.3361,-1.3045,-1.3105,-1.1919,-1.1272,-1.1279,-1.0165,-0.9906,-1.1072,-1.0125,-0.9557,-0.937,-0.922,-0.9044,-2.0009,-2.062,-2.1456,-2.8313,-2.9371,-2.8856,-2.9757,-3.001,-2.964,-2.8154,-2.798,-2.798,-2.8154,-2.8539,-2.8923,-2.8923,-2.9294,-2.9678,-2.9678,-2.9678,-3.0078,-3.113,-3.1255,-3.1495,-3.2577,-3.229,-3.1901,-3.1938,-3.1512,-3.1086,-3.0879,-3.0879,-3.0879,-3.0879,-3.0879,-3.0879,-3.0879,-3.0879,-3.089,-3.089,-3.089,-3.089,-3.089,-3.089,-3.089,-3.0879,-3.1086,-3.2108,-3.3536,-3.3536,-3.2714,-3.1293,-3.2919,-3.2508,-3.1293,-3.1086,-3.1098,-3.1015,-3.0339,-3.0163,-3.0081,-2.9576,-2.9084,-2.8579,-2.8004,-2.784,-2.7723,-2.7218,-2.7418,-2.7793,-2.7793,-2.7793,-2.7606,-2.6506,-2.6318,-2.6318,-2.6318,-2.4801,-2.3468,-2.3288,-2.2529,-2.1759,-2.1759,-2.1759,-2.1759,-2.1759,-2.1759,-2.1759,-2.1759,-2.1759,-2.1035,-1.9339,-1.8787,-1.802,-1.6728,-1.6369,-1.6175,-1.6766,-1.5518,-1.4694,-1.4895,-1.3305,-1.2512,-1.2318,-1.1127,-1.1106,-1.2561,-1.2209,-1.15,-1.0619,-1.0441,-0.9913,-2.3556,-2.5059,-2.6177,-3.0626,-3.1142,-3.058,-3.1508,-3.1682,-3.1314,-2.964,-2.9455,-3.0169,-3.2698,-3.3244,-3.344,-3.344,-3.344,-3.3621,-3.3621,-3.3621,-3.3906,-3.4674,-3.4773,-3.5257,-3.6523,-3.6453,-3.6066,-3.4915,-3.4533,-3.3728,-3.2108,-3.212,-3.212,-3.212,-3.212,-3.212,-3.212,-3.212,-3.1913,-3.1524,-3.1524,-3.1305,-3.089,-3.089,-3.1293,-3.2108,-3.3728,-3.4342,-3.4164,-3.5769,-3.5566,-3.4586,-3.4981,-3.5376,-3.5552,-3.3536,-3.333,-3.3715,-3.155,-3.0703,-3.0609,-3.0104,-2.9846,-2.9576,-2.8673,-2.8403,-2.8286,-2.7746,-2.7688,-2.7793,-2.7793,-2.7793,-2.7793,-2.742,-2.7431,-2.7244,-2.6506,-2.5942,-2.499,-2.3667,-2.2529,-2.1759,-2.1759,-2.1759,-2.1759,-2.1759,-2.1759,-2.1759,-2.1759,-2.1759,-2.1422,-2.0659,-2.0516,-1.9779,-1.8201,-1.7805,-1.7485,-1.6763,-1.6303,-1.6273,-1.6494,-1.6099,-1.5296,-1.41,-1.47,-1.5137,-1.5596,-1.5062,-1.4702,-1.4515,-1.3092,-1.2382,-2.3223,-2.5723,-2.8905,-3.3756,-3.3768,-3.2867,-3.3703,-3.3496,-3.2935,-3.1811,-3.2347,-3.3621,-3.4693,-3.5234,-3.5399,-3.5399,-3.5593,-3.5608,-3.5608,-3.5608,-3.5955,-3.7075,-3.7196,-3.7726,-3.9073,-3.8997,-3.8341,-3.7506,-3.7333,-3.6539,-3.5335,-3.4329,-3.3933,-3.3933,-3.2919,-3.252,-3.252,-3.252,-3.2326,-3.1926,-3.1731,-3.1719,-3.15,-3.1305,-3.3125,-3.6351,-3.6944,-3.7146,-3.7376,-3.8569,-3.8383,-3.7188,-3.7404,-3.7794,-3.775,-3.5742,-3.5756,-3.6351,-3.4329,-3.333,-3.2676,-3.1766,-3.0914,-2.9975,-2.9178,-2.8779,-2.8497,-2.7946,-2.7793,-2.7793,-2.7793,-2.7793,-2.7793,-2.7793,-2.7793,-2.7606,-2.7057,-2.687,-2.6495,-2.499,-2.3468,-2.2519,-2.2519,-2.2139,-2.1759,-2.1759,-2.1759,-2.1759,-2.1759,-2.1759,-2.1676,-2.1465,-2.1281,-2.0782,-1.997,-1.9728,-1.9542,-1.8954,-1.8351,-1.8016,-1.8154,-1.7554,-1.6755,-1.5764,-1.7154,-1.7394,-1.6661,-1.6285,-1.6184,-1.6157,-1.5092,-1.4605,-2.2458,-2.582,-3.0672,-3.6683,-3.6539,-3.5199,-3.5887,-3.5593,-3.4918,-3.4346,-3.6147,-3.7397,-3.6132,-3.6295,-3.6653,-3.6653,-3.7041,-3.7251,-3.7251,-3.7251,-3.7739,-3.9108,-3.9266,-3.9833,-4.125,-4.0948,-4.052,-4.0122,-3.9739,-3.934,-3.914,-3.7347,-3.6351,-3.6351,-3.4533,-3.3523,-3.3523,-3.3523,-3.3523,-3.3523,-3.2932,-3.2932,-3.333,-3.2932,-3.5959,-4.1177,-3.9954,-4.0352,-4.1573,-4.1771,-4.0963,-3.954,-4.0184,-4.0184,-3.954,-3.8368,-3.8554,-3.934,-3.7966,-3.6567,-3.5159,-3.4342,-3.2607,-3.0734,-3.0021,-2.9498,-2.8783,-2.8051,-2.7852,-2.7793,-2.7793,-2.7793,-2.7793,-2.7793,-2.7793,-2.7793,-2.7793,-2.7793,-2.742,-2.6506,-2.4801,-2.3667,-2.3278,-2.2519,-2.1759,-2.1759,-2.1759,-2.1759,-2.1759,-2.1759,-2.1759,-2.1759,-2.1465,-2.1391,-2.1731,-2.155,-2.136,-2.1759,-2.0545,-1.9749,-1.9749,-1.8359,-1.7757,-1.7757,-1.8756,-1.8748,-1.7361,-1.7164,-1.7167,-1.7126,-1.6938,-1.6522,-2.8867,-3.1372,-3.3806,-3.683,-3.7146,-3.6955,-3.7691,-3.8312,-3.8172,-3.6878,-3.8655,-4.0448,-4.0815,-4.099,-4.099,-4.099,-4.1164,-4.1181,-4.1181,-4.1181,-4.1755,-4.3285,-4.3476,-4.4067,-4.5807,-4.5753,-4.4942,-4.3166,-4.297,-4.2182,-4.0383,-3.9984,-3.9785,-3.9785,-3.9385,-3.9185,-3.9185,-3.9185,-3.9185,-3.9185,-3.854,-3.8124,-3.7736,-3.8124,-3.914,-4.0796,-4.2182,-4.256,-4.215,-4.395,-4.3967,-4.297,-4.2986,-4.3575,-4.395,-4.1558,-4.136,-4.1937,-3.954,-3.7952,-3.6972,-3.677,-3.5701,-3.4526,-3.2545,-3.179,-3.086,-2.8987,-2.8145,-2.7793,-2.7793,-2.7793,-2.7793,-2.7793,-2.7793,-2.7793,-2.7793,-2.7793,-2.742,-2.6506,-2.5942,-2.5179,-2.3667,-2.2519,-2.1759,-2.1759,-2.1759,-2.1759,-2.1759,-2.1759,-2.1759,-2.1759,-2.1703,-2.1685,-2.1759,-2.1759,-2.1759,-2.1759,-2.1559,-2.136,-2.136,-2.1151,-2.0952,-2.0952,-2.116,-2.116,-2.0952,-2.0554,-2.0414,-2.0357,-1.8787,-1.8023,-2.6927,-3.0305,-3.3726,-3.4741,-3.6518,-3.8132,-3.8878,-3.9276,-3.9721,-4.0411,-4.1073,-4.1704,-4.2087,-4.226,-4.226,-4.226,-4.226,-4.226,-4.226,-4.226,-4.2688,-4.3847,-4.4181,-4.5076,-4.6217,-4.6698,-4.6562,-4.5559,-4.5559,-4.4959,-4.3967,-4.279,-4.2198,-4.2198,-4.1193,-4.0597,-4.0597,-4.0597,-4.0597,-4.0597,-4.0367,-3.9939,-3.9325,-4.2118,-4.3738,-4.3967,-4.4959,-4.5154,-4.4748,-4.5753,-4.5964,-4.5365,-4.4765,-4.5171,-4.5947,-4.4162,-4.4146,-4.4731,-4.2937,-4.1344,-4.0153,-3.957,-3.8182,-3.6268,-3.5035,-3.4075,-3.2905,-3.0537,-2.9735,-2.9264,-2.8051,-2.7793,-2.7793,-2.7793,-2.7793,-2.7793,-2.7793,-2.7793,-2.7606,-2.7233,-2.7057,-2.6682,-2.5179,-2.4046,-2.3098,-2.1949,-2.1759,-2.1759,-2.1759,-2.1759,-2.1759,-2.1759,-2.1759,-2.1759,-2.1759,-2.1759,-2.1759,-2.1759,-2.1759,-2.1759,-2.1759,-2.1759,-2.1759,-2.1759,-2.1759,-2.1759,-2.1759,-2.1559,-2.1559,-2.155,-2.0554,-2.0147,-2.5527,-2.9206,-3.3229,-3.3762,-3.5658,-3.7943,-3.9518,-3.9816,-4.0465,-4.2638,-4.2528,-4.2046,-4.2225,-4.2118,-4.2046,-4.2225,-4.226,-4.226,-4.226,-4.226,-4.2599,-4.3544,-4.4239,-4.4987,-4.5932,-4.6574,-4.6948,-4.6948,-4.6948,-4.6948,-4.6948,-4.5365,-4.4391,-4.4391,-4.279,-4.1985,-4.1985,-4.1985,-4.1985,-4.1985,-4.1985,-4.1755,-4.1328,-4.5331,-4.6948,-4.6948,-4.6948,-4.6948,-4.6948,-4.6948,-4.6948,-4.6948,-4.5947,-4.6158,-4.6948,-4.5947,-4.614,-4.6948,-4.5947,-4.4748,-4.3346,-4.256,-4.0582,-3.8481,-3.7557,-3.6537,-3.5244,-3.247,-3.1709,-3.1098,-2.8858,-2.834,-2.834,-2.834,-2.798,-2.7793,-2.7793,-2.7793,-2.7793,-2.7793,-2.7793,-2.742,-2.6506,-2.5566,-2.4424,-2.2339,-2.1949,-2.1759,-2.1759,-2.1759,-2.1759,-2.1759,-2.1759,-2.1759,-2.1759,-2.1759,-2.1759,-2.1759,-2.1759,-2.1759,-2.1759,-2.1759,-2.1759,-2.1759,-2.1759,-2.1759,-2.1759,-2.1759,-2.1759,-2.1759,-2.1759,-2.1559,-3.1241,-3.2992,-3.4436,-3.6495,-3.5714,-3.5537,-3.9886,-4.0915,-4.1199,-4.2016,-4.1708,-4.1369,-4.2118,-4.1636,-4.1387,-4.2135,-4.226,-4.226,-4.226,-4.226,-4.2813,-4.4146,-4.4394,-4.5201,-4.6698,-4.6912,-4.6948,-4.6948,-4.6948,-4.6948,-4.6948,-4.6755,-4.6755,-4.6755,-4.6544,-4.6544,-4.6544,-4.6544,-4.6544,-4.6544,-4.6544,-4.6351,-4.6334,-4.6737,-4.6948,-4.6948,-4.6948,-4.6948,-4.6948,-4.6948,-4.6948,-4.6948,-4.6948,-4.6948,-4.6948,-4.6948,-4.6948,-4.6948,-4.6948,-4.614,-4.5137,-4.4942,-4.4162,-4.2773,-4.0321,-3.9103,-3.8096,-3.4704,-3.3334,-3.2578,-3.0335,-2.9825,-2.9825,-2.9825,-2.8712,-2.7793,-2.7793,-2.7793,-2.7793,-2.7793,-2.7793,-2.742,-2.6506,-2.613,-2.5378,-2.3478,-2.2329,-2.1759,-2.1759,-2.1759,-2.1759,-2.1759,-2.1759,-2.1759,-2.1759,-2.1759,-2.1759,-2.1759,-2.1759,-2.1759,-2.1759,-2.1759,-2.1759,-2.1759,-2.1759,-2.1759,-2.1759,-2.1759,-2.1759,-2.1759,-2.1759,-2.1759,-2.61,-2.8338,-3.0854,-3.2173,-3.3945,-3.604,-3.8375,-3.9301,-4.0139,-4.1886,-4.2367,-4.226,-4.1636,-4.1654,-4.1708,-4.1547,-4.1922,-4.226,-4.226,-4.226,-4.2652,-4.3757,-4.4128,-4.5041,-4.6128,-4.6663,-4.6948,-4.6948,-4.6948,-4.6948,-4.6948,-4.6948,-4.6948,-4.6948,-4.6948,-4.6948,-4.6948,-4.6948,-4.6948,-4.6948,-4.6948,-4.6948,-4.6948,-4.6948,-4.6948,-4.6948,-4.6948,-4.6948,-4.6948,-4.6948,-4.6948,-4.6948,-4.6948,-4.6948,-4.6948,-4.6948,-4.6948,-4.6948,-4.6948,-4.6737,-4.6351,-4.6351,-4.5559,-4.4358,-4.279,-4.1628,-4.0191,-3.6405,-3.5371,-3.4552,-3.1922,-3.0564,-3.0195,-3.1117,-3.0195,-2.9084,-2.9084,-2.834,-2.7793,-2.7793,-2.7793,-2.7606,-2.7244,-2.6682,-2.5942,-2.5179,-2.3667,-2.2529,-2.1759,-2.1759,-2.1759,-2.1759,-2.1759,-2.1759,-2.1759,-2.1759,-2.1759,-2.1759,-2.1759,-2.1759,-2.1759,-2.1759,-2.1759,-2.1759,-2.1759,-2.1759,-2.1759,-2.1759,-2.1759,-2.1759,-2.1759,-2.1759,-2.3869,-2.6036,-2.8857,-3.0281,-3.2854,-3.5508,-3.724,-3.7908,-3.8743,-4.1013,-4.1975,-4.2153,-4.1512,-4.1476,-4.1512,-4.1405,-4.1886,-4.226,-4.226,-4.226,-4.2528,-4.3294,-4.4114,-4.4732,-4.5682,-4.6484,-4.6948,-4.6948,-4.6948,-4.6948,-4.6948,-4.6948,-4.6948,-4.6948,-4.6948,-4.6948,-4.6948,-4.6948,-4.6948,-4.6948,-4.6948,-4.6948,-4.6948,-4.6948,-4.6948,-4.6948,-4.6948,-4.6948,-4.6948,-4.6948,-4.6948,-4.6948,-4.6948,-4.6948,-4.6948,-4.6948,-4.6948,-4.6948,-4.6948,-4.6948,-4.6948,-4.6948,-4.6544,-4.5559,-4.457,-4.3396,-4.1925,-3.8417,-3.7276,-3.6411,-3.3638,-3.2021,-3.1471,-3.2584,-3.1288,-2.9997,-2.9997,-2.8898,-2.7793,-2.7793,-2.7793,-2.7793,-2.7793,-2.7244,-2.6495,-2.6318,-2.4801,-2.3478,-2.2329,-2.1958,-2.1759,-2.1759,-2.1759,-2.1759,-2.1759,-2.1759,-2.1759,-2.1759,-2.1759,-2.1759,-2.1759,-2.1759,-2.1759,-2.1759,-2.1759,-2.1759,-2.1759,-2.1759,-2.1759,-2.1759,-2.1759,-2.1759,-2.7695,-2.8566,-2.9944,-3.3335,-3.2962,-3.2981,-3.6772,-3.7105,-3.7162,-3.9427,-3.9907,-4.0389,-4.1957,-4.0959,-4.0424,-4.1993,-4.2242,-4.226,-4.226,-4.226,-4.2528,-4.3294,-4.4114,-4.4732,-4.5682,-4.6484,-4.6948,-4.6948,-4.6948,-4.6948,-4.6948,-4.6948,-4.6948,-4.6948,-4.6948,-4.6948,-4.6948,-4.6948,-4.6948,-4.6948,-4.6948,-4.6948,-4.6948,-4.6948,-4.6948,-4.6948,-4.6948,-4.6948,-4.6948,-4.6948,-4.6948,-4.6948,-4.6948,-4.6948,-4.6948,-4.6948,-4.6948,-4.6948,-4.6948,-4.6948,-4.6948,-4.6948,-4.6948,-4.6737,-4.5559,-4.457,-4.3294,-4.0941,-3.9392,-3.7921,-3.5089,-3.439,-3.439,-3.439,-3.2191,-2.9997,-2.9997,-2.8898,-2.7793,-2.7793,-2.7793,-2.7793,-2.7793,-2.7793,-2.742,-2.6318,-2.5378,-2.4424,-2.3468,-2.2339,-2.1759,-2.1759,-2.1759,-2.1759,-2.1759,-2.1759,-2.1759,-2.1759,-2.1759,-2.1759,-2.1759,-2.1759,-2.1759,-2.1759,-2.1759,-2.1759,-2.1759,-2.1759,-2.1759,-2.1759,-2.1759,-2.1759,-2.5161,-2.6768,-2.8894,-3.0908,-3.2457,-3.4222,-3.6341,-3.7231,-3.7899,-3.8818,-3.866,-3.8588,-3.9658,-4.0763,-4.1476,-4.1422,-4.1886,-4.226,-4.226,-4.226,-4.2528,-4.3294,-4.4114,-4.4732,-4.5682,-4.6484,-4.6948,-4.6948,-4.6948,-4.6948,-4.6948,-4.6948,-4.6948,-4.6948,-4.6948,-4.6948,-4.6948,-4.6948,-4.6948,-4.6948,-4.6948,-4.6948,-4.6948,-4.6948,-4.6948,-4.6948,-4.6948,-4.6948,-4.6948,-4.6948,-4.6948,-4.6948,-4.6948,-4.6948,-4.6948,-4.6948,-4.6948,-4.6948,-4.6948,-4.6948,-4.6948,-4.6948,-4.6948,-4.6755,-4.5559,-4.5154,-4.4071,-4.113,-3.9973,-3.9407,-3.8272,-3.7428,-3.6865,-3.7291,-3.5363,-3.3747,-3.3747,-3.2617,-3.1003,-2.9517,-2.9269,-2.8898,-2.798,-2.7793,-2.7606,-2.7431,-2.5931,-2.4812,-2.4434,-2.2899,-2.1759,-2.1759,-2.1759,-2.1759,-2.1759,-2.1759,-2.1759,-2.1759,-2.1759,-2.1759,-2.1759,-2.1759,-2.1759,-2.1759,-2.1759,-2.1759,-2.1759,-2.1759,-2.1759,-2.1759,-2.1759,-2.1759,-2.5581,-2.7559,-2.9488,-3.1341,-3.3267,-3.4854,-3.542,-3.62,-3.7023,-3.7733,-3.7584,-3.7657,-3.926,-4.1669,-4.307,-4.2361,-4.2608,-4.2779,-4.226,-4.226,-4.2421,-4.2902,-4.3668,-4.447,-4.5069,-4.6039,-4.6627,-4.693,-4.6948,-4.6948,-4.6948,-4.6948,-4.6948,-4.6948,-4.6948,-4.6948,-4.6948,-4.6948,-4.6948,-4.6948,-4.6948,-4.6948,-4.6948,-4.6948,-4.6948,-4.6948,-4.6948,-4.6948,-4.6948,-4.6948,-4.6948,-4.6948,-4.6948,-4.6948,-4.6948,-4.6948,-4.6948,-4.6948,-4.6948,-4.6948,-4.7194,-4.7304,-4.7411,-4.7465,-4.6947,-4.6622,-4.5574,-4.2818,-4.154,-4.0803,-3.9787,-3.8837,-3.8111,-3.8512,-3.7152,-3.5712,-3.5712,-3.4566,-3.3063,-3.1537,-3.07,-3.0077,-2.8749,-2.8154,-2.7793,-2.7793,-2.6495,-2.5189,-2.5001,-2.3478,-2.2139,-2.1759,-2.1759,-2.1759,-2.1759,-2.1759,-2.1759,-2.1759,-2.1759,-2.1759,-2.1759,-2.1759,-2.1759,-2.1759,-2.1759,-2.1759,-2.1759,-2.1759,-2.1759,-2.1759,-2.1759,-2.1759,-2.8194,-2.9956,-3.1325,-3.3665,-3.4896,-3.5255,-3.4551,-3.4631,-3.5165,-3.6358,-3.6553,-3.7443,-4.0046,-4.2901,-4.4685,-4.4479,-4.4441,-4.3947,-4.2906,-4.2768,-4.2768,-4.2768,-4.3451,-4.4008,-4.4542,-4.5308,-4.6092,-4.6894,-4.6948,-4.6948,-4.6948,-4.6948,-4.6948,-4.6948,-4.6948,-4.6948,-4.6948,-4.6948,-4.6948,-4.6948,-4.6948,-4.6948,-4.6948,-4.6948,-4.6948,-4.6948,-4.6948,-4.6948,-4.6948,-4.6948,-4.6948,-4.6948,-4.6948,-4.6948,-4.6966,-4.7019,-4.7037,-4.7037,-4.7108,-4.7126,-4.7251,-4.8017,-4.8249,-4.8392,-4.9105,-4.8693,-4.7503,-4.5489,-4.384,-4.2262,-4.0418,-3.9269,-3.8698,-3.8744,-3.7762,-3.6572,-3.6572,-3.5598,-3.4441,-3.3644,-3.2375,-3.1072,-3.0162,-2.8923,-2.798,-2.7793,-2.687,-2.5942,-2.5189,-2.4046,-2.2909,-2.1949,-2.1759,-2.1759,-2.1759,-2.1759,-2.1759,-2.1759,-2.1759,-2.1759,-2.1759,-2.1759,-2.1759,-2.1759,-2.1759,-2.1759,-2.1759,-2.1759,-2.1759,-2.1759,-2.1759,-2.1759,-2.6814,-2.9,-3.0842,-3.1219,-3.5374,-3.8829,-3.6718,-3.654,-3.6415,-3.5186,-3.4929,-3.5315,-3.6592,-3.9056,-4.2063,-4.5218,-4.5237,-4.5359,-4.7325,-4.7594,-4.7594,-4.7594,-4.8148,-4.8113,-4.6233,-4.6954,-4.7223,-4.7087,-4.6948,-4.6948,-4.6948,-4.6948,-4.6948,-4.6948,-4.6948,-4.6948,-4.6948,-4.6948,-4.6948,-4.6948,-4.6948,-4.6948,-4.6948,-4.6948,-4.6948,-4.6948,-4.6948,-4.6948,-4.6948,-4.6948,-4.6948,-4.6948,-4.6948,-4.6948,-4.7019,-4.7661,-4.7893,-4.7964,-4.857,-4.8766,-4.8784,-4.898,-4.9051,-4.9087,-4.9265,-4.9116,-4.8517,-4.5673,-4.495,-4.4637,-4.2634,-4.069,-3.9532,-4.0057,-3.9584,-3.8813,-3.8813,-3.8619,-3.7828,-3.6015,-3.493,-3.3625,-3.1248,-3.0115,-2.9084,-2.798,-2.687,-2.613,-2.5942,-2.4424,-2.3288,-2.2899,-2.2329,-2.1759,-2.1759,-2.1759,-2.1759,-2.1759,-2.1759,-2.1759,-2.1759,-2.1759,-2.1759,-2.1759,-2.1759,-2.1759,-2.1759,-2.1759,-2.1759,-2.1759,-2.1759,-2.1759,-2.7918,-3.0274,-3.166,-3.0251,-3.4009,-3.7503,-3.5251,-3.5147,-3.5343,-3.4238,-3.4018,-3.4685,-3.6825,-3.8036,-4.0315,-4.4772,-4.5329,-4.5561,-4.704,-4.7629,-4.8179,-4.9003,-4.8767,-4.8629,-4.8848,-4.8494,-4.8431,-4.9112,-4.8445,-4.8063,-4.8063,-4.7315,-4.6948,-4.6948,-4.6948,-4.6948,-4.6948,-4.7322,-4.7322,-4.6948,-4.6948,-4.6948,-4.6948,-4.6948,-4.6948,-4.6948,-4.6948,-4.6948,-4.6948,-4.6948,-4.6948,-4.6983,-4.7358,-4.7518,-4.7607,-4.8409,-4.8712,-4.8766,-4.9176,-4.9318,-4.9372,-4.9728,-4.9853,-4.9907,-5.0299,-5.0406,-4.9885,-4.7124,-4.6201,-4.5589,-4.3933,-4.1805,-4.0211,-4.0582,-4.0381,-4.0118,-4.0118,-4.0118,-3.9707,-3.8244,-3.7072,-3.568,-3.34,-3.1534,-3.0127,-2.8935,-2.7793,-2.687,-2.6318,-2.5378,-2.4424,-2.4046,-2.3098,-2.2529,-2.2529,-2.1949,-2.1759,-2.1759,-2.1759,-2.1759,-2.1759,-2.1759,-2.1759,-2.1759,-2.1759,-2.1759,-2.1759,-2.1759,-2.1759,-2.1759,-2.1759,-2.1759,-2.9414,-3.2142,-3.3459,-3.1208,-3.2949,-3.4775,-3.314,-3.3183,-3.3586,-3.3586,-3.3586,-3.4563,-3.7726,-3.8002,-3.9042,-4.3012,-4.4672,-4.5578,-4.5883,-4.6815,-4.7886,-4.961,-4.8263,-4.8521,-5.1333,-5.0066,-4.9729,-5.1476,-5.0416,-4.9545,-4.9355,-4.8373,-4.7692,-4.7498,-4.7304,-4.7692,-4.8061,-4.8767,-4.8767,-4.7674,-4.7674,-4.762,-4.7126,-4.7126,-4.7073,-4.6966,-4.709,-4.7126,-4.7144,-4.7269,-4.7304,-4.7376,-4.8071,-4.8356,-4.8427,-4.9069,-4.939,-4.9497,-4.9497,-4.9568,-4.9782,-5.0441,-5.0637,-5.078,-5.1475,-5.1689,-5.1247,-4.9042,-4.7344,-4.5795,-4.497,-4.2697,-4.0674,-4.0858,-4.0659,-4.0674,-4.0674,-4.0674,-4.0504,-3.9918,-3.8741,-3.7321,-3.5712,-3.3359,-3.1424,-3.0457,-2.9084,-2.7793,-2.687,-2.6506,-2.5942,-2.5001,-2.4046,-2.3478,-2.3098,-2.2529,-2.1949,-2.1759,-2.1759,-2.1759,-2.1759,-2.1759,-2.1759,-2.1759,-2.1759,-2.1759,-2.1759,-2.1759,-2.1759,-2.1759,-2.1832,-2.1823,-2.8448,-3.2079,-3.6006,-3.6367,-3.6282,-3.6049,-3.5752,-3.4605,-3.3586,-3.3586,-3.3586,-3.3756,-3.4329,-3.624,-3.7981,-3.8681,-4.2238,-4.6126,-5.0082,-5.1402,-5.2072,-5.2366,-5.2135,-5.1833,-5.1168,-5.0789,-5.0823,-5.1476,-5.1921,-5.1776,-5.0253,-5.0692,-5.0488,-4.9145,-4.8962,-5.0326,-5.3051,-5.3186,-5.2578,-5.1046,-5.1046,-4.9941,-4.7982,-4.7982,-4.7607,-4.6983,-4.7679,-4.7982,-4.8035,-4.8695,-4.8962,-4.8962,-4.9087,-4.914,-4.9158,-4.9283,-4.9728,-5.0281,-5.0281,-5.0744,-5.135,-5.1457,-5.1493,-5.1529,-5.1635,-5.1689,-5.1459,-5.0146,-4.7975,-4.6001,-4.5795,-4.3305,-4.0858,-4.1653,-4.1256,-4.0674,-4.0674,-4.0674,-4.0628,-4.0535,-3.9845,-3.8604,-3.6499,-3.5335,-3.4017,-3.213,-3.0564,-2.9628,-2.9455,-2.7606,-2.5942,-2.5001,-2.4812,-2.3856,-2.2139,-2.2709,-2.2709,-2.1759,-2.1759,-2.1759,-2.1759,-2.1759,-2.1759,-2.1759,-2.1759,-2.1759,-2.1759,-2.1759,-2.1759,-2.1768,-2.2126,-2.2108,-3.1463,-3.4372,-3.6962,-3.641,-3.6282,-3.6197,-3.5709,-3.4966,-3.4202,-3.3692,-3.3586,-3.3735,-3.4244,-3.4966,-3.6325,-3.8851,-4.1059,-4.3925,-4.8129,-4.9933,-5.1589,-5.3627,-5.2969,-5.2626,-5.3571,-5.3718,-5.3901,-5.4673,-5.4861,-5.46,-5.3828,-5.3225,-5.2826,-5.2071,-5.2071,-5.2876,-5.491,-5.491,-5.4279,-5.3024,-5.3024,-5.2438,-5.1506,-5.1506,-5.1299,-5.0941,-5.0354,-5.0124,-5.0142,-4.9561,-4.9318,-4.9354,-4.9782,-4.9942,-4.9996,-5.0423,-5.0816,-5.1119,-5.1119,-5.1368,-5.1689,-5.1689,-5.1689,-5.1689,-5.1689,-5.1689,-5.1689,-5.1016,-4.9056,-4.7044,-4.7044,-4.4316,-4.1637,-4.2033,-4.1438,-4.0674,-4.0674,-4.0674,-4.0674,-4.0674,-4.0412,-3.9783,-3.832,-3.7176,-3.5885,-3.4147,-3.1963,-3.0352,-3.0048,-2.834,-2.687,-2.6484,-2.5555,-2.4424,-2.3478,-2.3478,-2.2909,-2.1759,-2.1759,-2.186,-2.2089,-2.2098,-2.2199,-2.2411,-2.2411,-2.2411,-2.2411,-2.2411,-2.2411,-2.2411,-2.2402,-2.2402,-3.6027,0.0,-3.8384,-3.6983,-3.6983,-3.7089,0.0,-3.5624,-3.5051,-3.4117,-3.3735,-3.3798,-3.4541,-3.4244,-3.5157,-3.8936,-3.9934,-4.1526,-4.5263,-4.7025,-4.9233,-5.2778,-5.2332,-5.2757,-5.5326,-5.5963,-5.6621,-5.7576,-5.754,-5.729,-5.6903,-5.5915,-5.5227,-5.4812,-5.5622,-5.6138,-5.6798,-5.6798,-5.6279,-5.5425,-5.5425,-5.5128,-5.4517,-5.4517,-5.4419,-5.4243,-5.3018,-5.2497,-5.2516,-5.1555,-5.0855,-5.052,-5.1097,-5.1142,-5.0833,-5.1457,-5.1689,-5.1689,-5.1689,-5.1689,-5.1689,-5.1689,-5.1689,-5.1689,-5.1689,-5.1689,-5.1689,-5.1689,-5.0031,-4.8104,-4.8135,-4.5254,-4.2423,-4.246,-4.1637,-4.0674,-4.0674,-4.0674,-4.0674,-4.0674,-4.0674,-4.0443,-3.9763,-3.8666,-3.7441,-3.6128,-3.368,-3.1774,-3.0642,-2.9269,-2.8166,-2.742,-2.6119,-2.5001,-2.4613,-2.3577,-2.2681,-2.1906,-2.1997,-2.219,-2.2512,-2.2521,-2.2668,-2.2962,-2.2971,-2.2971,-2.2971,-2.2971,-2.2925,-2.2833,-2.2622,-2.264,0.0,-4.2227,-4.1632,-4.1505,-4.0847,-3.9998,-3.8958,-3.7492,0.0,-3.5093,-3.4202,-3.3607,-3.3671,-3.435,-3.5284,-3.6452,-3.8108,-4.0439,-4.4286,-4.4923,-4.6069,-4.8978,-5.0782,-5.2502,-5.4413,-5.6175,-5.7597,-5.8553,-5.9466,-5.9176,-5.7824,-5.8422,-5.8042,-5.6354,-5.9233,-6.0894,-6.0958,-6.0958,-6.0338,-5.867,-5.867,-5.762,-5.5401,-5.5401,-5.4969,-5.4282,-5.4848,-5.5181,-5.5259,-5.5837,-5.5141,-5.3727,-5.3783,-5.3002,-5.16,-5.1671,-5.1689,-5.1689,-5.1689,-5.1689,-5.1689,-5.1689,-5.1689,-5.1689,-5.1689,-5.1689,-5.1689,-5.1689,-5.0418,-4.8969,-4.9293,-4.623,-4.3419,-4.3561,-4.2033,-4.0674,-4.0674,-4.0674,-4.0674,-4.0674,-4.0674,-4.0443,-3.9763,-3.964,-3.9,-3.7663,-3.6122,-3.4389,-3.2313,-3.0749,-2.8898,-2.6495,-2.613,-2.5378,-2.3667,-2.289,-2.2346,-2.2346,-2.2686,-2.2897,-2.2925,-2.2925,-2.2943,-2.2971,-2.2971,-2.2971,-2.2971,-2.2971,-2.2787,-2.2438,-2.2769,-2.2751,-4.1356,-4.2227,-4.2715,-4.2099,-4.1696,-4.1038,-3.9381,-3.8151,-3.6792,-3.5306,-3.4244,-3.3586,-3.3586,-3.3883,-3.4987,-3.7662,-3.8577,-4.0143,-4.3437,-4.5878,-4.7301,-4.7195,-5.0379,-5.333,-5.5198,-5.7088,-5.8574,-5.9487,-6.0421,-6.0733,-6.014,-6.0276,-6.0263,-5.9619,-6.0863,-6.1461,-6.1461,-6.1461,-6.1063,-6.0464,-6.0464,-6.0076,-5.9124,-5.9124,-5.8939,-5.865,-5.7981,-5.7741,0.0,-5.6822,-5.6138,-5.5519,-5.5519,-5.5332,-5.4729,-5.4729,-5.4123,-5.3094,-5.3094,-5.2481,-5.1689,-5.1689,-5.1689,-5.1689,-5.1689,-5.1689,-5.1689,-5.1689,-5.0873,-4.9767,-4.9089,-4.6619,-4.4316,-4.414,-4.2285,-4.0782,-4.1215,-4.1307,-4.1184,-4.0751,-4.1014,-4.0952,-3.9825,-3.964,-3.9192,-3.7848,-3.5549,-3.3631,-3.2497,-3.0195,-2.8166,-2.7233,-2.6119,-2.5106,-2.4613,-2.3829,-2.3064,-2.2732,-2.2888,-2.309,-2.3348,-2.3366,-2.3476,-2.3724,-2.3724,-2.3724,-2.3724,-2.3724,-2.3522,-2.3136,-2.2778,-2.2659,-4.2418,-4.3055,-4.3649,-4.2991,-4.2821,-4.2354,-4.0486,-3.9085,-3.7747,-3.6197,-3.4881,-3.4117,-3.4414,-3.4456,-3.5391,-3.8257,-3.9212,-4.0698,-4.3819,-4.6706,-4.8362,-4.7938,-5.0973,-5.384,-5.5708,-5.8149,-5.9848,-6.0463,-6.11,-6.1461,-6.1461,-6.1461,-6.1461,-6.1461,-6.1461,-6.1461,-6.1461,-6.1461,-6.1461,-6.1461,-6.1461,-6.1461,-6.1461,-6.1461,-6.1461,-6.1262,-6.0284,-5.9882,-5.966,-5.8609,-5.7776,-5.7388,-5.7388,-5.696,-5.653,-5.653,-5.5519,-5.4085,-5.4085,-5.3094,-5.1689,-5.1689,-5.1689,-5.1689,-5.1689,-5.2095,-5.2288,-5.1883,-5.1279,-5.0571,-4.9717,-4.7591,-4.5448,-4.4937,-4.2855,-4.1122,-4.1585,-4.1524,-4.123,-4.0767,-4.0875,-4.0813,-4.0087,-3.9779,-3.9269,-3.8126,-3.6231,-3.4229,-3.2524,-3.0564,-2.8898,-2.798,-2.6307,-2.5434,-2.5649,-2.4449,-2.366,-2.3155,-2.3283,-2.3485,-2.377,-2.3779,-2.3908,-2.4174,-2.4183,-2.4183,-2.4183,-2.4055,-2.3862,-2.3577,-2.2769,-2.253,-4.5369,-4.5432,-4.4711,-4.4711,-4.4711,-4.4222,-4.2397,-4.0507,-3.8768,-3.7938,-3.6282,-3.5263,-3.6155,-3.6325,-3.6643,-3.7599,-3.9339,-4.1845,-4.556,-4.6982,-4.8617,-5.1313,-5.2523,-5.3861,-5.5708,-5.9274,-6.1461,-6.1461,-6.1461,-6.1461,-6.1461,-6.1461,-6.1461,-6.1461,-6.1461,-6.1461,-6.1461,-6.1461,-6.1461,-6.1461,-6.1461,-6.1461,-6.1461,-6.1461,-6.1461,-6.1461,-6.1461,-6.1461,-6.1461,-6.1461,-6.0464,-5.9075,-5.9075,-5.802,-5.653,-5.653,-5.5519,-5.4104,-5.4085,-5.3094,-5.1689,-5.1689,-5.1689,-5.1689,-5.1689,-5.2902,-5.3686,-5.2077,-5.1689,-5.1493,-5.0691,-4.8795,-4.6933,-4.6184,-4.3819,-4.1693,-4.1693,-4.1153,-4.0674,-4.0659,-4.0103,-3.9856,-4.0535,-4.0072,-3.9393,-3.8713,-3.8605,-3.7175,-3.2763,-3.2245,-3.1143,-2.8178,-2.6892,-2.6347,-2.6329,-2.4591,-2.3596,-2.3605,-2.3963,-2.4183,-2.4183,-2.4183,-2.4183,-2.4183,-2.4183,-2.4183,-2.4174,-2.3788,-2.3596,-2.3568,-2.276,-2.2392,-4.5072,-4.4923,-4.4711,-4.4711,-4.4711,-4.4365,-4.3036,-4.1117,-3.9477,-3.8628,-3.6918,-3.5675,-3.6272,-3.6325,-3.6855,-3.8344,-3.9764,-4.1399,-4.3861,-4.6706,-4.8829,-4.9636,-5.2884,-5.5283,-5.5835,-5.868,-6.0739,-6.1419,-6.1461,-6.1461,-6.1461,-6.1461,-6.1461,-6.1461,-6.1461,-6.1461,-6.1461,-6.1461,-6.1461,-6.1461,-6.1461,-6.1461,-6.1461,-6.1461,-6.1461,-6.1461,-6.1461,-6.1461,-6.1461,-6.1461,-6.1063,-6.0685,-6.0685,-6.0464,-6.0021,-6.0021,-5.9034,-5.7408,-5.6138,-5.471,-5.3286,-5.3286,-5.3286,-5.3495,-5.471,-5.471,-5.3876,-5.3495,-5.2481,-5.1635,-5.1386,-4.8812,-4.5985,-4.4811,-4.2569,-4.1107,-4.1585,-4.1153,-4.052,-4.0041,-3.9779,-3.9562,-3.9269,-3.9053,-3.8698,-3.8034,-3.7371,-3.6017,-3.314,-3.2279,-3.1201,-2.909,-2.7913,-2.6993,-2.6612,-2.535,-2.4309,-2.399,-2.4119,-2.4183,-2.4183,-2.4183,-2.4183,-2.4183,-2.4183,-2.4046,-2.377,-2.366,-2.3302,-2.2741,-2.2503,-2.2227,-4.4859,-4.4999,-4.5143,-4.5143,-4.5143,-4.4935,-4.3714,-4.194,-4.0438,-3.9826,-3.8258,-3.7121,-3.7739,-3.7571,-3.8193,-4.0465,-4.1929,-4.3692,-4.6345,-4.9275,-5.1292,-5.1653,-5.4859,-5.6875,-5.6493,-5.8977,-6.0697,-6.0888,-6.1249,-6.1461,-6.1461,-6.1461,-6.1461,-6.1461,-6.11,-6.1079,-6.1461,-6.11,-6.11,-6.1461,-6.1461,-6.1461,-6.1461,-6.1079,-6.0909,-6.0909,-6.0522,-6.0543,-6.093,-6.0789,-6.1178,-6.1461,-6.1461,-6.1461,-6.1461,-6.1461,-6.0234,-5.8365,-5.788,-5.5719,-5.3655,-5.4803,-5.5106,-5.5313,-5.6344,-5.5313,-5.3876,-5.3286,-5.2481,-5.1689,-5.1689,-4.9456,-4.6608,-4.4171,-4.2148,-4.0705,-4.0844,-4.0335,-3.9732,-3.9315,-3.9022,-3.879,-3.8636,-3.862,-3.8481,-3.8095,-3.7832,-3.6659,-3.3742,-3.3027,-3.1891,-2.9562,-2.8306,-2.7433,-2.7114,-2.5677,-2.4535,-2.4165,-2.4183,-2.4183,-2.4183,-2.4183,-2.411,-2.3954,-2.3945,-2.3752,-2.3348,-2.3191,-2.287,-2.2383,-2.2218,-2.2007,-4.4855,-4.5287,-4.5861,-4.6025,-4.6025,-4.5642,-4.452,-4.2946,-4.1739,-4.1351,-3.996,-3.9079,-3.9938,-3.972,-4.038,-4.297,-4.5072,-4.7577,-5.1016,-5.3096,-5.4561,-5.5411,-5.7194,-5.8043,-5.7258,-5.955,-6.0803,-6.0102,-6.0845,-6.1355,-6.1355,-6.1419,-6.1461,-6.1461,-6.0548,-6.0506,-6.1461,-6.0527,-6.0485,-6.1355,-6.1355,-6.1291,-6.1185,-6.0315,-5.9911,-5.9848,-5.9038,-5.9144,-6.0039,-5.9867,-6.0443,-6.1228,-6.1228,-6.1228,-6.1228,-6.1313,-5.9795,-5.8049,-5.8769,-5.6467,-5.3688,-5.6091,-5.6755,-5.653,-5.6755,-5.5519,-5.3686,-5.2288,-5.1829,-5.1582,-5.1564,-5.0067,-4.7779,-4.4091,-4.1801,-4.0304,-3.9686,-3.9007,-3.8528,-3.8528,-3.8003,-3.7771,-3.842,-3.8528,-3.8528,-3.8528,-3.9161,-3.8022,-3.4483,-3.3929,-3.2827,-2.9902,-2.8489,-2.7753,-2.7543,-2.5441,-2.4165,-2.4128,-2.4128,-2.411,-2.4073,-2.4036,-2.3862,-2.355,-2.3504,-2.3283,-2.2861,-2.2512,-2.2337,-2.2319,-2.1942,-2.1759,-4.5431,-4.5718,-4.6025,-4.6594,-4.6736,-4.6506,-4.5185,-4.394,-4.2966,-4.217,-4.1047,-4.0184,-4.0062,-4.1722,-4.3201,-4.3267,-4.6175,-4.8617,-4.9424,-5.1165,-5.2417,-5.2629,-5.4285,-5.5623,-5.6154,-5.7427,-5.8722,-5.9954,-6.0251,-6.0357,-6.0357,-6.1079,-6.1461,-6.1461,-6.0548,-6.0506,-6.1461,-6.0527,-6.0166,-6.0357,-6.0357,-5.9996,-5.9317,-5.9105,-5.9019,-5.8888,-5.8781,-5.8807,-5.895,-5.9076,-5.9165,-5.9317,-5.9317,-5.9317,-5.9402,-6.0102,-6.0035,-5.9602,-5.9151,-5.8528,-5.778,-5.8386,-5.7593,-5.6755,-5.8224,-5.6363,-5.3876,-5.3686,-5.2219,-5.0518,-4.9874,-4.7591,-4.5321,-4.3062,-4.0714,-3.9007,-3.8868,-3.8327,-3.7864,-3.7864,-3.7308,-3.7045,-3.774,-3.7864,-3.7864,-3.7864,-3.7707,-3.6839,-3.4276,-3.3627,-3.2785,-3.0755,-2.9519,-2.86,-2.7753,-2.6294,-2.4896,-2.3742,-2.3724,-2.3577,-2.3247,-2.2934,-2.2879,-2.31,-2.2806,-2.2644,-2.2438,-2.2345,-2.2106,-2.1887,-2.1805,-2.1759,-4.5861,-4.6453,-4.7041,-4.7464,-4.7627,-4.7473,-4.7199,-4.642,-4.5645,-4.4976,-4.3709,-4.2524,-4.1967,-4.2816,-4.3778,-4.4406,-4.6559,-4.8596,-4.9487,-5.0464,-5.1249,-5.1717,-5.299,-5.4009,-5.4498,-5.5814,-5.7024,-5.7979,-5.8914,-5.9232,-5.8765,-5.9211,-5.9699,-6.0145,-5.9232,-5.919,-6.0145,-5.9211,-5.8956,-5.9423,-5.9423,-5.919,-5.8722,-5.8255,-5.8124,-5.8076,-5.7606,-5.7741,-5.8005,-5.8131,-5.8237,-5.8722,-5.8722,-5.8722,-5.8829,-5.972,-5.9784,-5.9421,-6.0004,-5.9392,-5.8504,-5.8932,-5.7408,-5.5519,-5.6363,-5.4652,-5.2208,-5.1825,-5.0556,-4.9063,-4.7665,-4.5666,-4.3526,-4.222,-4.0102,-3.8157,-3.8157,-3.7632,-3.7138,-3.7138,-3.686,-3.6721,-3.7092,-3.7431,-3.7463,-3.6693,-3.6836,-3.6155,-3.3678,-3.2382,-3.1225,-2.9555,-2.8324,-2.7314,-2.628,-2.5048,-2.4139,-2.3311,-2.3302,-2.3118,-2.2705,-2.2677,-2.2576,-2.2392,-2.2394,-2.219,-2.2158,-2.2158,-2.1967,-2.1759,-2.1759,-2.1759,-4.6408,-4.7182,-4.8187,-4.8326,-4.8326,-4.8535,-4.8855,-4.8557,-4.8028,-4.7503,-4.6224,-4.5004,-4.4074,-4.3939,-4.4431,-4.6178,-4.7545,-4.8808,-5.0308,-5.0499,-5.0528,-5.0995,-5.1695,-5.2205,-5.2353,-5.3924,-5.505,-5.5389,-5.6727,-5.7258,-5.6599,-5.7045,-5.7682,-5.8468,-5.7873,-5.7937,-5.8722,-5.7788,-5.7703,-5.8489,-5.8489,-5.8404,-5.8213,-5.7427,-5.7067,-5.7024,-5.6239,-5.6345,-5.7088,-5.7093,-5.7517,-5.8234,-5.8234,-5.834,-5.8574,-5.9296,-5.9317,-5.9168,-6.0697,-5.9837,-5.8055,-5.8647,-5.6362,-5.3449,-5.3449,-5.1884,-4.9711,-4.9087,-4.8356,-4.7199,-4.5542,-4.3548,-4.1944,-4.1025,-3.9108,-3.7478,-3.7478,-3.7014,-3.6598,-3.6598,-3.6598,-3.6598,-3.6598,-3.7184,-3.7078,-3.5549,-3.6054,-3.5635,-3.2766,-3.098,-2.9422,-2.8004,-2.6979,-2.5994,-2.4795,-2.3784,-2.3144,-2.2879,-2.2806,-2.2585,-2.2199,-2.242,-2.2264,-2.1639,-2.1921,-2.1967,-2.1759,-2.1759,-2.1759,-2.1759,-2.1759,-2.1759,-4.7518,-4.8047,-4.8326,-4.895,-4.9065,-4.8832,-4.808,-4.7736,-4.748,-4.6608,-4.628,-4.5882,-4.5073,-4.6336,-4.7956,-4.9362,-5.0537,-5.116,-5.1557,-5.0824,-4.9806,-4.8341,-4.8256,-4.8638,-4.9402,-5.0443,-5.1738,-5.3351,-5.299,-5.2969,-5.3606,-5.5984,-5.7364,-5.7491,-5.817,-5.8595,-5.8722,-5.7788,-5.7385,-5.7491,-5.7491,-5.7067,-5.626,-5.6132,-5.609,-5.6069,-5.6122,-5.5963,-5.609,-5.6111,-5.6196,-5.6281,-5.6281,-5.6769,-5.7512,-5.764,-5.8616,-5.9911,-6.0166,-5.9712,-5.879,-5.8295,-5.4832,-5.1103,-5.1103,-4.9372,-4.7393,-4.7286,-4.6087,-4.4486,-4.343,-4.1466,-3.9558,-3.8482,-3.7506,-3.6737,-3.6737,-3.6675,-3.6598,-3.6598,-3.6598,-3.6598,-3.6598,-3.7184,-3.7093,-3.5392,-3.5105,-3.43,-3.2018,-3.0422,-2.904,-2.7971,-2.7761,-2.6769,-2.4785,-2.4595,-2.3831,-2.2493,-2.2126,-2.1749,-2.1354,-2.1042,-2.095,-2.1282,-2.1331,-2.155,-2.1759,-2.1759,-2.1759,-2.1759,-2.1759,-2.1759,-4.7182,-4.7983,-4.8812,-4.9065,-4.9202,-4.9226,-4.9342,-4.9389,-4.9272,-4.8828,-4.9226,-4.902,-4.7158,-4.7644,-4.8302,-4.7753,-4.7761,-4.7816,-4.7846,-4.7478,-4.7088,-4.6812,-4.677,-4.7152,-4.8086,-4.8553,-4.9339,-5.0655,-4.9933,-5.0061,-5.1483,-5.3245,-5.4668,-5.5708,-5.6642,-5.713,-5.713,-5.6727,-5.6515,-5.6515,-5.6515,-5.6302,-5.5899,-5.5899,-5.5899,-5.5899,-5.5899,-5.5899,-5.5899,-5.5899,-5.5899,-5.5899,-5.5899,-5.6154,-5.6578,-5.7109,-5.8149,-5.9381,-5.989,-5.8667,-5.675,-5.6321,-5.3203,-4.9729,-4.9729,-4.8027,-4.601,-4.5172,-4.3928,-4.2499,-4.0592,-3.9305,-3.8312,-3.7242,-3.6829,-3.6598,-3.6598,-3.6598,-3.6598,-3.6598,-3.6598,-3.6598,-3.6598,-3.686,-3.6318,-3.3935,-3.374,-3.2847,-3.0094,-2.8725,-2.7651,-2.6202,-2.5591,-2.4523,-2.2949,-2.2738,-2.2367,-2.1382,-2.1189,-2.0995,-2.055,-2.0831,-2.0874,-2.0811,-2.1242,-2.1559,-2.1759,-2.1759,-2.1759,-2.1759,-2.1759,-2.1351,-4.6646,-4.7445,-4.8431,-4.8431,-4.8431,-4.8711,-4.9716,-4.995,-5.002,-5.0277,-5.0979,-5.0786,-4.8416,-4.8192,-4.7901,-4.6957,-4.604,-4.5579,-4.5705,-4.5579,-4.5539,-4.573,-4.5772,-4.6069,-4.6791,-4.7088,-4.7407,-4.781,-4.7471,-4.7831,-4.919,-5.04,-5.178,-5.3394,-5.4583,-5.5304,-5.5538,-5.5771,-5.5899,-5.5899,-5.5899,-5.5899,-5.5899,-5.5899,-5.5899,-5.5899,-5.5899,-5.5899,-5.5899,-5.5899,-5.5899,-5.5899,-5.5899,-5.6026,-5.6302,-5.6791,-5.7703,-5.8722,-5.8258,-5.6202,-5.3596,-5.3202,-5.0581,-4.7525,-4.7525,-4.6027,-4.4186,-4.3224,-4.1944,-4.0664,-3.9206,-3.8172,-3.7654,-3.7135,-3.6777,-3.6598,-3.6598,-3.6598,-3.6598,-3.6598,-3.6598,-3.6598,-3.6598,-3.6376,-3.5198,-3.2265,-3.2404,-3.167,-2.863,-2.7548,-2.6428,-2.4695,-2.4092,-2.3072,-2.1245,-2.1116,-2.1042,-2.073,-2.0605,-2.0401,-2.0114,-2.0751,-2.0921,-2.0536,-2.136,-2.1759,-2.1759,-2.1759,-2.1559,-2.116,-2.116,-2.0346,-4.628,-4.6327,-4.6351,-4.6351,-4.6351,-4.6608,-4.7589,-4.7823,-4.8104,-4.9085,-4.9319,-4.9066,-4.8349,-4.765,-4.7711,-4.9667,-4.8496,-4.7734,-4.8583,-4.8018,-4.6791,-4.5008,-4.4796,-4.4796,-4.4859,-4.5687,-4.5857,-4.4987,-4.5708,-4.6239,-4.6345,-4.8086,-4.953,-5.0528,-5.229,-5.367,-5.4561,-5.5453,-5.5899,-5.5899,-5.5899,-5.5899,-5.5899,-5.5899,-5.5899,-5.5899,-5.5899,-5.5899,-5.5899,-5.5899,-5.5899,-5.5899,-5.5899,-5.6451,-5.713,-5.6281,-5.713,-5.8151,-5.4217,-5.1826,-5.0292,-4.8989,-4.6255,-4.3579,-4.3579,-4.2496,-4.1163,-4.2019,-4.0392,-3.8576,-4.029,-3.8704,-3.6777,-3.7833,-3.7298,-3.6598,-3.6598,-3.6598,-3.6598,-3.6598,-3.6598,-3.6598,-3.6598,-3.6013,-3.4359,-3.1351,-3.147,-3.0691,-2.7484,-2.7535,-2.6703,-2.3756,-2.4278,-2.3701,-2.0828,-2.095,-2.1171,-2.1152,-2.042,-2.0161,-2.0476,-2.0578,-2.0538,-2.0545,-2.136,-2.1759,-2.1759,-2.1759,-2.0961,-1.955,-1.955,-1.8748,-4.5229,-4.5696,-4.621,-4.621,-4.621,-4.628,-4.6631,-4.6725,-4.6841,-4.7215,-4.8291,-4.8927,-4.8281,-4.8385,-4.8612,-4.8304,-4.732,-4.6466,-4.6298,-4.6025,-4.5475,-4.4796,-4.4711,-4.4711,-4.4711,-4.5008,-4.5072,-4.4732,-4.5029,-4.5475,-4.6091,-4.7364,-4.8511,-4.9402,-5.0676,-5.1483,-5.1823,-5.333,-5.4094,-5.4094,-5.5326,-5.5899,-5.5899,-5.5899,-5.5899,-5.5899,-5.5899,-5.5899,-5.5899,-5.5899,-5.5899,-5.5899,-5.5899,-5.5729,-5.5474,-5.5135,-5.5432,-5.5591,-5.2707,-5.0357,-4.8493,-4.7945,-4.6143,-4.4046,-4.4046,-4.2978,-4.1704,-4.1356,-4.0131,-3.9074,-3.9058,-3.7817,-3.6598,-3.694,-3.6777,-3.6598,-3.6598,-3.6598,-3.6598,-3.6598,-3.6598,-3.6223,-3.5308,-3.4943,-3.3807,-3.0662,-2.9133,-2.79,-2.662,-2.6152,-2.5219,-2.3441,-2.3161,-2.2217,-2.0402,-2.0429,-2.0373,-2.0373,-1.9884,-1.9793,-2.0199,-2.0457,-2.0587,-2.0536,-2.136,-2.1351,-2.0346,-2.0346,-1.9352,-1.7757,-1.7716,-1.6768,-4.3826,-4.4116,-4.441,-4.4064,-4.3846,-4.4061,-4.4789,-4.5009,-4.523,-4.573,-4.6709,-4.7204,-4.6566,-4.6668,-4.6528,-4.5143,-4.5029,-4.4693,-4.3792,-4.4354,-4.4711,-4.4711,-4.4711,-4.4711,-4.4711,-4.4711,-4.4711,-4.4711,-4.4711,-4.4987,-4.5623,-4.626,-4.7046,-4.7959,-4.8914,-4.9572,-4.987,-5.1398,-5.2162,-5.2184,-5.3436,-5.4031,-5.4031,-5.4031,-5.437,-5.4944,-5.4625,-5.4859,-5.5389,-5.5092,-5.4944,-5.4944,-5.4944,-5.4583,-5.4031,-5.4031,-5.291,-5.1417,-4.9399,-4.761,-4.6014,-4.5502,-4.4291,-4.2813,-4.2813,-4.1968,-4.1,-4.0884,-3.9932,-3.9128,-3.9008,-3.7994,-3.7135,-3.7135,-3.6761,-3.6598,-3.6598,-3.6598,-3.6418,-3.5864,-3.5864,-3.5323,-3.386,-3.33,-3.2123,-2.994,-2.7852,-2.6467,-2.6291,-2.5373,-2.4179,-2.297,-2.2337,-2.1401,-1.9975,-1.9868,-1.9963,-1.9971,-1.9693,-1.9532,-1.9926,-1.9869,-1.9726,-1.9716,-1.9948,-1.9542,-1.8351,-1.8238,-1.7472,-1.5678,-1.5609,-1.4803,-4.2072,-4.1333,-4.067,-3.9638,-3.9249,-3.9656,-4.2012,-4.2467,-4.2863,-4.4546,-4.4443,-4.3807,-4.3254,-4.2427,-4.1709,-4.0701,-4.2022,-4.2888,-4.1857,-4.3502,-4.4689,-4.4711,-4.4711,-4.4711,-4.4711,-4.4711,-4.4711,-4.4711,-4.4711,-4.4711,-4.4711,-4.4711,-4.5135,-4.6048,-4.7003,-4.7938,-4.8808,-4.9785,-5.0273,-5.0273,-5.0315,-5.0337,-5.0337,-5.0337,-5.1313,-5.2948,-5.2099,-5.2736,-5.4307,-5.3394,-5.3012,-5.3012,-5.3012,-5.3012,-5.299,-5.2948,-5.0032,-4.6018,-4.4744,-4.3691,-4.2833,-4.1498,-4.0496,-3.989,-3.989,-3.9233,-3.8895,-4.0463,-3.9677,-3.8667,-4.0209,-3.9344,-3.7946,-3.7946,-3.7235,-3.6551,-3.6387,-3.6387,-3.6028,-3.4571,-3.4361,-3.3817,-3.2415,-3.0907,-2.9782,-2.9262,-2.79,-2.6808,-2.6291,-2.5516,-2.4082,-2.2112,-2.2138,-2.1432,-1.9586,-1.9869,-1.9934,-2.0096,-1.9742,-1.9622,-1.9945,-1.8621,-1.7856,-1.7879,-1.6922,-1.6331,-1.6127,-1.6129,-1.5025,-1.3391,-1.3547,-1.2944,-4.1146,-4.0611,-3.9761,-3.932,-3.8611,-3.8423,-3.9739,-3.9542,-3.9305,-4.0551,-4.1382,-4.1707,-4.1397,-4.1745,-4.194,-4.1624,-4.1711,-4.1834,-4.1654,-4.2836,-4.3704,-4.3464,-4.413,-4.4711,-4.4711,-4.4711,-4.4711,-4.4711,-4.4711,-4.4711,-4.4711,-4.4711,-4.4817,-4.5093,-4.5369,-4.5623,-4.5878,-4.7534,-4.8362,-4.8362,-4.9721,-5.0337,-5.0337,-5.0337,-5.0613,-5.1101,-5.0846,-5.1016,-5.1483,-5.1207,-5.1101,-5.0935,-5.023,-4.9709,-4.9564,-4.822,-4.6273,-4.4245,-4.3004,-4.1872,-4.0705,-4.0357,-4.0068,-3.989,-3.989,-3.9726,-3.9451,-3.9313,-3.8551,-3.7613,-3.7288,-3.647,-3.5615,-3.5615,-3.5272,-3.4908,-3.4342,-3.4268,-3.4045,-3.3062,-3.2574,-3.1868,-3.0854,-2.9519,-2.8539,-2.7719,-2.6574,-2.5728,-2.52,-2.4961,-2.4003,-2.2206,-2.14,-2.0608,-1.9531,-1.9521,-1.9756,-1.9924,-1.9656,-1.9064,-1.8282,-1.7731,-1.711,-1.6013,-1.6028,-1.5295,-1.4188,-1.4148,-1.3184,-1.1369,-1.1786,-1.1543,-3.7917,-3.6977,-3.5754,-3.5572,-3.4683,-3.4694,-3.7488,-3.7303,-3.6884,-3.8326,-3.9063,-3.9465,-3.9914,-4.0235,-4.0277,-4.0197,-4.0926,-4.1101,-4.0251,-4.1237,-4.2418,-4.305,-4.3372,-4.3571,-4.3502,-4.3851,-4.4307,-4.4689,-4.4711,-4.4711,-4.4711,-4.4711,-4.4711,-4.4711,-4.4711,-4.4711,-4.4711,-4.5836,-4.6388,-4.6409,-4.7471,-4.798,-4.798,-4.798,-4.798,-4.8023,-4.8405,-4.9042,-4.9721,-4.936,-4.919,-4.919,-4.8531,-4.8211,-4.7703,-4.4,-4.2441,-4.1963,-4.1336,-4.0325,-3.9408,-3.9408,-3.9177,-3.8891,-3.8891,-3.859,-3.8339,-3.8168,-3.7602,-3.6699,-3.6163,-3.5572,-3.5051,-3.4713,-3.4205,-3.3615,-3.3154,-3.2705,-3.1943,-3.0879,-3.0474,-2.9809,-2.854,-2.7905,-2.7173,-2.6551,-2.5693,-2.5048,-2.4743,-2.4696,-2.4106,-2.2417,-2.1569,-2.0665,-1.9156,-1.8495,-1.8266,-1.8425,-1.7731,-1.7021,-1.6312,-1.5679,-1.4983,-1.4098,-1.3763,-1.3087,-1.2072,-1.2028,-1.1492,-1.0351,-1.0494,-1.0679,-3.3262,-3.1838,-3.0421,-3.0107,-2.9182,-2.9636,0.0,-3.4604,-3.4319,-3.6578,-3.6775,-3.6856,-3.8074,-3.7988,-3.7601,-3.7385,-3.929,-4.0139,-3.8192,-3.9343,-4.1004,-4.2831,-4.2175,-4.1595,-4.1773,-4.2706,-4.355,-4.4498,-4.4647,-4.4711,-4.4711,-4.4711,-4.4711,-4.4711,-4.4711,-4.4711,-4.4711,-4.4711,-4.4711,-4.4711,-4.4711,-4.4711,-4.4711,-4.4711,-4.4711,-4.4753,-4.5602,-4.6919,-4.8405,-4.7598,-4.7279,-4.7126,-4.6973,-4.6952,-4.6387,-4.1051,-3.9354,-3.9785,-3.9622,-3.9177,-3.8606,-3.8606,-3.7951,-3.7365,-3.7365,-3.6782,-3.6315,-3.6985,-3.6498,-3.5841,-3.5674,-3.5501,-3.5334,-3.4496,-3.3285,-3.2453,-3.2356,-3.1344,-2.9995,-2.8337,-2.8137,-2.7588,-2.6433,-2.6174,-2.5904,-2.5329,-2.4837,-2.452,-2.452,-2.452,-2.4017,-2.2438,-2.1949,-2.0861,-1.8701,-1.7277,-1.6447,-1.6253,-1.5418,-1.4552,-1.4378,-1.3175,-1.2394,-1.2085,-1.0993,-1.037,-1.0062,-1.0062,-0.9911,-0.9759,-0.9981,-1.0192,0.0,0.0,0.0,0.0,0.0,0.0,0.0,-2.8083,-2.8347,-3.0237,-3.2383,-3.3868,-3.3407,-3.4493,-3.5707,-3.655,-3.6155,-3.6487,-3.8266,-3.891,-3.9629,-4.0947,-3.9423,-3.9262,-4.1711,-4.2028,-4.2549,-4.3487,-4.4307,-4.4711,-4.4711,-4.4711,-4.4711,-4.4711,-4.4711,-4.4711,-4.4711,-4.4711,-4.4711,-4.4711,-4.4711,-4.4711,-4.4711,-4.4711,-4.4711,-4.4732,-4.4902,-4.5199,-4.5517,-4.5348,-4.4675,-4.3808,-4.2873,-4.3023,-4.3619,-4.1473,-4.0129,-3.9205,-3.8276,-3.7876,-3.7751,-3.7751,-3.7197,-3.6644,-3.6644,-3.6005,-3.51,-3.4602,-3.4333,-3.4031,-3.3374,-3.3084,-3.3084,-3.2922,-3.1937,-3.0764,-3.0096,-2.9025,-2.7818,-2.6888,-2.6288,-2.6133,-2.6198,-2.5564,-2.4684,-2.3769,-2.3534,-2.3476,-2.3476,-2.3476,-2.2799,-2.1131,-2.0888,-2.0062,-1.8337,-1.7919,-1.7313,-1.6372,-1.6062,-1.493,-1.2674,-1.2653,-1.1927,-1.0219,-1.037,-1.0213,-0.9754,-0.9754,-0.9754,-0.9759,-0.9981,-1.0108,0.0,0.0,0.0,0.0,0.0,0.0,0.0,0.0,0.0,0.0,0.0,-3.1159,-3.229,0.0,-3.4907,-3.5774,-3.6331,-3.6919,-3.7531,-3.7965,-3.8468,-3.901,-3.851,-3.8727,-4.0321,-4.0956,-4.1763,-4.3169,-4.3798,-4.4244,-4.4689,-4.4711,-4.4711,-4.4711,-4.4711,-4.4711,-4.4711,-4.4711,-4.4711,-4.4711,-4.4711,-4.4711,-4.4711,-4.4711,-4.4711,-4.4711,-4.4711,-4.4711,-4.4711,-4.4711,-4.4421,-4.3693,-4.1886,-4.0842,-4.0091,-3.9638,-3.8879,-3.8287,-3.7673,-3.7519,-3.7519,-3.7092,-3.6644,-3.6351,-3.5866,-3.5067,-3.4281,-3.3965,-3.349,-3.3173,-3.3173,-3.2839,-3.2521,-3.2998,-3.1226,-2.9452,-2.8775,-2.6993,-2.5536,-2.4885,-2.452,-2.4426,-2.4684,-2.4285,-2.3769,-2.3253,-2.3171,-2.3171,-2.3171,-2.3171,-2.2767,-2.159,-2.1312,-2.0542,-1.883,-1.8404,-1.7551,-1.5851,-1.4793,-1.328,-1.1296,-1.1605,-1.1278,-1.0035,-1.0197,-1.0057,-0.9754,-0.9754,-0.9754,-0.9754,-0.9865,-0.9976,0.0,0.0,0.0,0.0,0.0,0.0,0.0,0.0,0.0,0.0,0.0,0.0,0.0,0.0,0.0,-3.4362,-3.6308,-3.7396,-3.6689,-3.7054,-3.7396,-3.7544,-3.824,-3.8784,-3.8838,-3.9745,-4.1032,-4.2715,-4.3182,-4.3713,-4.4413,-4.4626,-4.4711,-4.4711,-4.4711,-4.4711,-4.4711,-4.4711,-4.4711,-4.4711,-4.4711,0.0,-4.4711,-4.4711,-4.4711,-4.4711,-4.4711,-4.4711,-4.4711,-4.4711,-4.4711,-4.4379,-4.1821,-3.9614,-3.7814,-3.7511,-3.7225,-3.7073,-3.7073,-3.718,-3.7152,-3.6573,-3.6385,-3.6161,-3.5368,-3.4637,0.0,-3.3626,-3.3268,-3.2967,-3.3473,-3.3221,-3.2839,-3.3157,-3.0905,-2.8315,-2.7521,-2.5509,-2.3781,-2.3276,-2.3171,-2.3171,-2.3171,-2.3006,-2.2877,-2.2877,-2.2877,-2.2877,-2.2877,-2.2877,-2.2561,-2.1853,-2.1554,-2.0855,-1.9192,-1.8564,-1.7523,-1.5655,-1.331,-1.1559,-1.0354,-1.0656,-1.0575,-1.0129,-1.0294,-1.007,-0.9754,-0.9754,-0.9754,-0.9743,-0.9426,-0.9447,0.0,0.0,0.0,0.0,0.0,0.0,0.0,0.0,0.0,0.0,0.0,0.0,0.0,0.0,0.0,0.0,-3.2533,-3.3827,-3.6557,-3.6661,-3.6744,-3.765,-3.7697,-3.7981,-3.8915,-3.9108,-3.9668,-4.0847,-4.2439,-4.3416,-4.3522,-4.4286,0.0,0.0,0.0,-4.4711,-4.4711,-4.4711,-4.4711,-4.4711,-4.4711,-4.4711,-4.4711,-4.4711,-4.4711,-4.4711,-4.4711,-4.4711,-4.4711,-4.4711,-4.4711,-4.4397,-4.064,-3.8912,-3.8629,-3.7452,-3.6303,-3.5487,-3.5487,0.0,0.0,-3.6353,-3.6393,-3.6213,-3.5354,-3.4997,-3.4628,-3.3169,-3.373,-3.4431,-3.3159,-3.3153,-3.3173,-3.1387,-2.9776,-2.8153,-2.6421,-2.4871,-2.3781,-2.3276,-2.3171,-2.3171,-2.3171,-2.2396,-2.1775,-2.1775,-2.1775,-2.1775,-2.1775,-2.1775,-2.1178,-1.9812,-2.0139,0.0,-1.8384,-1.7255,-1.6719,-1.6762,-1.3885,-1.157,-1.0147,-1.0476,-1.0344,-0.9616,-0.9893,-1.0055,-0.9754,-0.9754,-0.9754,-0.9717,-0.8253,-0.7926,0.0,0.0,0.0,0.0,0.0,0.0,0.0,0.0,0.0,0.0,0.0,0.0,0.0,0.0,0.0,0.0,-3.109,-3.2146,-3.3075,-3.4099,-3.5068,-3.6058,-3.66,-3.7156,-3.8217,-3.8661,-3.9416,-4.0507,-4.1271,-4.1972,-4.2524,-4.2906,-4.3118,-4.3118,-4.3118,-4.3288,-4.3649,-4.367,-4.367,-4.367,-4.4371,-4.4137,-4.314,-4.3692,-4.3649,-4.3118,-4.3118,-4.2839,-4.2257,-4.2257,-4.1834,-4.1045,0.0,0.0,0.0,0.0,-3.5544,-3.5612,-3.5327,-3.5434,-3.5554,-3.5114,-3.5045,-3.4805,-3.4016,-3.3686,-3.3502,-3.2872,-3.2872,-3.2979,-3.2804,-3.2652,-3.2138,-3.0653,-2.9113,-2.7521,-2.5363,-2.3956,-2.2901,-2.2361,-2.2256,0.0,-2.2256,-2.1892,-2.1599,-2.1599,-2.1599,-2.1599,-2.1599,-2.1599,-2.1308,-2.0727,-2.0872,-2.0278,-1.8227,-1.7709,0.0,0.0,0.0,-1.2461,-1.2117,-1.153,0.0,0.0,0.0,-0.9414,-0.8734,-0.8327,0.0,0.0,-0.7714,-0.7503,0.0,0.0,0.0,0.0,0.0,0.0,0.0,0.0,0.0,0.0,0.0,0.0,0.0,0.0,0.0,0.0,-2.9476,-3.0788,-3.0644,-3.2192,-3.3736,-3.4921,-3.5866,-3.6595,-3.7486,-3.8214,-3.9148,-4.0104,-4.0401,-4.0979,-4.1547,-4.1823,-4.1887,-4.1717,-4.1717,-4.2014,-4.263,-4.2121,-4.2227,-4.2906,-4.3628,-4.3267,-4.1993,-4.2673,-4.263,-4.1972,-4.1972,-4.1406,-4.0446,-4.0446,-3.9734,-3.872,-3.6941,-3.6054,-3.5597,-3.4394,-3.4471,-3.5059,-3.4703,-3.4721,-3.4756,-3.4163,-3.4176,-3.4152,-3.3348,-3.2979,-3.2917,-3.2515,-3.2262,-3.21,-3.2198,-3.1615,-3.0795,-2.9538,-2.8081,-2.641,-2.4233,-2.2997,-2.2256,-2.1704,-2.1599,-2.1599,-2.1599,-2.1599,-2.1599,-2.1599,-2.1599,-2.1599,-2.1599,-2.1599,-2.1454,-2.1308,-2.1018,-2.0143,-1.8218,-1.7377,-1.634,-1.4689,-1.3271,-1.2668,-1.3044,-1.1992,-1.1323,-1.1034,-1.0271,-0.9278,0.0,0.0,0.0,0.0,0.0,0.0,0.0,0.0,0.0,0.0,0.0,0.0,0.0,0.0,0.0,0.0,0.0,0.0,0.0,0.0,0.0,0.0,0.0,0.0,-3.0501,-3.1987,-3.3435,-3.5007,-3.581,-3.6623,-3.7135,-3.75,-3.8193,-3.9022,-4.004,-4.0702,-4.0723,-4.1462,-4.1696,-4.108,-4.1059,-4.1356,-4.1993,-4.0189,-4.0486,-4.2885,-4.2333,-4.2014,-4.1972,-4.1993,-4.1993,-4.1972,-4.1972,-4.1406,-4.0446,-4.0446,-3.9734,-3.8602,-3.5669,-3.3844,-3.2938,-3.2921,-3.2938,-3.2956,-3.2938,-3.342,-3.4043,-3.4043,-3.4578,-3.4951,-3.4134,-3.3992,-3.3679,-3.211,-3.2339,-3.2687,-3.0967,-3.0444,-2.9599,-2.7467,-2.6093,-2.4712,-2.2828,-2.2408,-2.2256,-2.1704,-2.1599,-2.1599,-2.1599,-2.1599,-2.1599,-2.1599,-2.1599,0.0,-2.1599,-2.1599,-2.1308,-2.0581,-1.9716,-1.8983,-1.8218,-1.5663,-1.4314,-1.4524,-1.2768,-1.1867,-1.2307,-1.1616,-1.13,-1.13,-1.0861,-0.9898,-0.8485,0.0,0.0,0.0,0.0,0.0,0.0,0.0,0.0,0.0,0.0,0.0,0.0,0.0,0.0,0.0,0.0,0.0,0.0,0.0,0.0,0.0,0.0,0.0,0.0,-2.8779,-3.0578,-3.2061,-3.1952,-3.2136,-3.2843,-3.4184,-3.5391,-3.6325,-3.7811,-3.8957,-3.9594,-3.9934,-3.9889,-3.9678,-3.9785,-3.9762,-4.0104,-3.936,-3.9466,-4.0422,-4.1484,-4.1314,-4.0125,-4.0741,-4.0698,-4.0104,-4.0104,-3.9411,-3.8452,-3.8452,-3.7126,-3.4832,-3.3721,-3.3118,-3.2867,-3.2867,-3.2867,-3.2867,-3.2867,-3.3027,-3.3105,-3.2695,-3.2318,-3.2194,-3.1921,-3.1868,-3.1691,-3.1202,-3.0867,-3.0636,-2.9972,-2.9278,-2.8071,-2.6062,-2.5085,-2.4007,-2.2281,-2.1868,-2.1822,-2.1634,-2.1329,-2.0777,-1.9624,-2.0707,-2.1141,-1.9792,-2.073,-2.1599,-2.1599,-2.1599,-2.1454,-2.1163,-2.1018,-2.0289,-1.8983,-1.7074,-1.5586,-1.4689,-1.2959,-1.2065,-1.2163,-1.1979,-1.1867,-1.1867,-1.1426,-1.0186,-0.8056,0.0,0.0,0.0,0.0,0.0,0.0,0.0,0.0,0.0,0.0,0.0,0.0,0.0,0.0,0.0,0.0,0.0,0.0,0.0,0.0,0.0,0.0,0.0,0.0,0.0,0.0,-3.1662,-3.0396,0.0,-3.0415,-3.0862,-3.1633,-3.2885,-3.4393,-3.5583,-3.6608,-3.7334,-3.7548,-3.7137,-3.8431,-3.9043,-3.9043,-3.9043,-3.9043,-3.9043,-3.9934,-3.9891,-3.9043,-3.9785,-3.9722,-3.9043,-3.8619,-3.7939,-3.6958,-3.6714,-3.501,-3.2505,-3.2248,-3.1938,-3.1611,-3.1642,-3.1472,-3.1247,-3.1529,-3.1493,-3.1214,-3.0759,-2.9882,-2.9094,-2.9094,-2.858,-2.8328,-2.8876,-2.875,-2.8324,-2.852,-2.7763,-2.6406,-2.4871,-2.3901,-2.3041,-2.1814,-2.1446,-2.1329,-2.1329,-2.1059,-2.0355,-1.8703,-1.9519,-2.0073,-1.8634,-1.9675,-2.0777,-2.1505,-2.1599,-2.1599,-2.1599,-2.1018,-2.0143,-1.8542,-1.6918,-1.5434,-1.38,-1.2765,-1.2321,-1.2321,-1.2321,-1.212,-1.17,-1.1149,-0.9825,0.0,0.0,0.0,0.0,0.0,0.0,0.0,0.0,0.0,0.0,0.0,0.0,0.0,0.0,0.0,0.0,0.0,0.0,0.0,0.0,0.0,0.0,0.0,0.0,0.0,0.0,0.0,-3.3383,-3.0837,0.0,0.0,0.0,0.0,-2.8958,-2.9998,-3.095,-3.1972,-3.3988,-3.4387,-3.3048,-3.6682,-3.8494,-3.8494,-3.8747,-3.881,-3.8873,-3.779,-3.7875,-3.8937,-3.8937,-3.8937,-3.8937,-3.7943,-3.6878,-3.5835,-3.4966,-3.3503,-3.1699,-3.0999,-3.0006,-2.9048,-2.9093,-2.8765,-2.8353,-2.9146,-2.8949,-2.8407,-2.846,-2.7255,-2.5966,-2.5829,-2.4535,0.0,0.0,-2.5711,-2.5869,-2.6417,-2.5675,-2.4575,-2.3516,-2.2381,-2.1517,-2.1517,-2.1141,-2.0777,-2.0695,-2.066,-2.012,-1.8365,0.0,-1.8249,-1.8144,-1.8307,-1.9135,-2.1235,-2.1552,-2.1599,-2.1599,-2.0154,-1.8689,-1.7214,-1.5583,-1.3942,-1.2444,-1.2301,-1.2137,-1.2124,-1.2084,-1.1531,-1.0532,-0.9929,0.0,0.0,0.0,0.0,0.0,0.0,0.0,0.0,0.0,0.0,0.0,0.0,0.0,0.0,0.0,0.0,0.0,0.0,0.0,0.0,0.0,0.0,0.0,0.0,0.0,0.0,-2.751,-2.9507,-3.0374,-2.6701,-2.4235,0.0,0.0,0.0,0.0,0.0,0.0,-2.9034,-2.9534,-2.8529,-2.5474,-2.8991,-3.0928,-3.0928,-3.3732,-3.5709,-3.7047,-3.6728,-3.6983,-3.7747,-3.7747,-3.7747,-3.7726,-3.6996,-3.6162,-3.5028,-3.1892,-2.9669,-2.8252,-2.7256,-2.607,-2.5134,-2.6326,-2.6235,-2.586,-2.7802,-2.7409,-2.6096,-2.5913,-2.5433,-2.4455,-2.2147,0.0,0.0,0.0,0.0,-2.2098,-2.2948,-2.233,-2.1539,-2.2079,-2.1295,-2.0461,-2.0461,-2.0367,-1.9933,-1.876,-1.8232,-1.6988,-1.3891,-1.497,0.0,-1.4196,-1.6589,-1.875,-1.9792,-2.0895,-2.1599,-2.1599,-2.0154,-1.9129,-1.8689,-1.6177,-1.4289,-1.3587,-1.2412,-1.1735,-1.1511,-1.0878,-1.0298,-0.979,0.0,0.0,0.0,0.0,0.0,0.0,0.0,0.0,0.0,0.0,0.0,0.0,0.0,0.0,0.0,0.0,0.0,0.0,0.0,0.0,0.0,0.0,0.0,0.0,0.0,0.0,0.0,-2.4937,-2.6873,-2.7178,-2.3967,-2.175,0.0,0.0,0.0,0.0,0.0,0.0,0.0,0.0,0.0,-2.2436,-2.7704,-3.0558,-3.0558,-3.2581,-3.452,-3.6325,-3.6049,-3.624,-3.6855,-3.6476,-3.6356,-3.6215,-3.5005,-3.3822,-3.2592,-2.9378,-2.6917,-2.5,0.0,0.0,0.0,0.0,-2.239,-2.2019,-2.3646,-2.2984,-2.133,-2.1504,0.0,0.0,0.0,0.0,0.0,0.0,0.0,-1.9752,-2.0511,-2.0847,-2.0871,-2.0926,-2.0489,-2.0073,-2.0073,-1.8478,-1.6847,-1.619,-1.5463,-1.4102,-1.1445,-1.2119,0.0,0.0,0.0,-1.7117,-1.8645,-2.012,-2.073,-2.0378,-1.9366,-1.8243,-1.6939,-1.5228,-1.3708,-1.2805,-1.1945,-1.128,-1.0726,-0.9988,-0.9181,0.0,0.0,0.0,0.0,0.0,0.0,0.0,0.0,0.0,0.0,0.0,0.0,0.0,0.0,0.0,0.0,0.0,0.0,0.0,0.0,0.0,0.0,0.0,0.0,0.0,0.0,0.0,0.0,0.0,-2.4953,-2.4542,0.0,0.0,0.0,0.0,0.0,0.0,0.0,0.0,0.0,0.0,0.0,0.0,0.0,-3.1357,-3.1357,-3.21,-3.3395,-3.5221,-3.418,-3.3968,-3.4499,-3.417,-3.4032,-3.3665,-3.1678,0.0,-2.9913,-2.706,0.0,0.0,0.0,0.0,0.0,0.0,0.0,0.0,0.0,0.0,0.0,0.0,0.0,0.0,0.0,0.0,0.0,0.0,0.0,0.0,0.0,0.0,-2.0465,-1.9511,-1.9428,-1.9499,-1.9217,-1.5991,-1.3287,-1.3452,-1.2708,-1.1563,0.0,0.0,0.0,0.0,0.0,0.0,-1.7639,-1.8933,-1.9432,-1.8632,-1.788,-1.6382,-1.3759,-1.3344,-1.2774,-1.1366,-1.1076,-1.0634,-0.9836,-0.9343,0.0,0.0,0.0,0.0,0.0,0.0,0.0,0.0,0.0,0.0,0.0,0.0,0.0,0.0,0.0,0.0,0.0,0.0,0.0,0.0,0.0,0.0,0.0,0.0,0.0,0.0,0.0,0.0,0.0,0.0,0.0,0.0,0.0,0.0,0.0,0.0,0.0,0.0,0.0,0.0,0.0,0.0,0.0,0.0,0.0,0.0,0.0,0.0,0.0,0.0,-2.6177,-2.4733,-2.4945,-2.7821,-2.8735,-2.759,-2.4923,-2.6685,-3.0817,-2.3881,0.0,0.0,0.0,0.0,0.0,0.0,0.0,0.0,0.0,0.0,0.0,0.0,0.0,0.0,0.0,0.0,0.0,0.0,0.0,0.0,0.0,0.0,-1.5191,-1.5076,-1.5956,-1.6315,-1.4724,0.0,0.0,0.0,0.0,0.0,0.0,0.0,0.0,0.0,0.0,0.0,-1.5006,-1.6755,-1.7715,-1.7027,-1.515,-1.3913,-1.3359,-1.2241,-1.1451,-1.095,-1.0027,-0.9315,0.0,0.0,0.0,0.0,0.0,0.0,0.0,0.0,0.0,0.0,0.0,0.0,0.0,0.0,0.0,0.0,0.0,0.0,0.0,0.0,0.0,0.0,0.0,0.0,0.0,0.0,0.0,0.0,0.0,0.0,0.0,0.0,0.0,0.0,0.0,0.0,0.0,0.0,0.0,0.0,0.0,0.0,0.0,0.0,0.0,0.0,0.0,0.0,0.0,0.0,0.0,0.0,0.0,0.0,0.0,0.0,0.0,0.0,-2.6376,-2.57,0.0,0.0,0.0,0.0,0.0,0.0,0.0,0.0,0.0,0.0,0.0,0.0,0.0,0.0,0.0,0.0,0.0,0.0,0.0,0.0,0.0,0.0,0.0,0.0,0.0,0.0,0.0,0.0,0.0,0.0,0.0,0.0,0.0,0.0,0.0,0.0,0.0,0.0,0.0,0.0,-1.4155,-1.6217,-1.7229,-1.6442,-1.4506,-1.2828,-1.2021,-1.1086,-1.0319,-0.963,-0.9168,0.0,0.0,0.0,0.0,0.0,0.0,0.0,0.0,0.0,0.0,0.0,0.0,0.0,0.0,0.0,0.0,0.0,0.0,0.0,0.0,0.0,0.0,0.0,0.0,0.0,0.0,0.0,0.0,0.0,0.0,0.0,0.0,0.0,0.0,0.0,0.0,0.0,0.0,0.0,0.0,0.0,0.0,0.0,0.0,0.0,0.0,0.0,0.0,0.0,0.0,0.0,0.0,0.0,0.0,0.0,0.0,0.0,0.0,0.0,-2.6811,-2.3956,0.0,0.0,0.0,0.0,0.0,0.0,0.0,0.0,0.0,0.0,0.0,0.0,0.0,0.0,0.0,0.0,0.0,0.0,0.0,0.0,0.0,0.0,0.0,0.0,0.0,0.0,0.0,0.0,0.0,0.0,0.0,0.0,0.0,0.0,0.0,0.0,0.0,0.0,0.0,0.0,-1.3407,-1.5502,-1.6361,-1.5373,-1.3595,-1.1944,-1.0532,-1.0017,-0.9419,-0.8387,-0.829,0.0,0.0,0.0,0.0,0.0,0.0,0.0,0.0,0.0,0.0,0.0,0.0,0.0,0.0,0.0,0.0,0.0,0.0,0.0,0.0,0.0,0.0,0.0,0.0,0.0,0.0,0.0,0.0,0.0,0.0,0.0,0.0,0.0,0.0,0.0,0.0,0.0,0.0,0.0,0.0,0.0,0.0,0.0,0.0,0.0,0.0,0.0,0.0,0.0,0.0,0.0,0.0,0.0,0.0,0.0,0.0,0.0,0.0,0.0,0.0,0.0,0.0,0.0,0.0,0.0,0.0,0.0,0.0,0.0,0.0,0.0,0.0,0.0,0.0,0.0,0.0,0.0,0.0,0.0,0.0,0.0,0.0,0.0,0.0,0.0,0.0,0.0,0.0,0.0,0.0,0.0,0.0,0.0,0.0,0.0,0.0,0.0,0.0,0.0,0.0,0.0,-1.1641,-1.3289,-1.3766,-1.2149,-1.1217,-1.0288,-0.9249,-0.9255,-0.9057,-0.8387,0.0,0.0,0.0,0.0,0.0,0.0,0.0,0.0,0.0,0.0,0.0,0.0,0.0,0.0,0.0,0.0,0.0,0.0,0.0,0.0,0.0,0.0,0.0,0.0,0.0,0.0,0.0,0.0,0.0,0.0,0.0,0.0,0.0,0.0,0.0,0.0,0.0,0.0,0.0,0.0,0.0,0.0,0.0,0.0,0.0,0.0,0.0,0.0,0.0,0.0,0.0,0.0,0.0,0.0,0.0,0.0,0.0,0.0,0.0,0.0,0.0,0.0,0.0,0.0,0.0,0.0,0.0,0.0,0.0,0.0,0.0,0.0,0.0,0.0,0.0,0.0,0.0,0.0,0.0,0.0,0.0,0.0,0.0,0.0,0.0,0.0,0.0,0.0,0.0,0.0,0.0,0.0,0.0,0.0,0.0,0.0,0.0,0.0,0.0,0.0,0.0,0.0,-1.1597,-1.2995,-1.3723,-1.3086,-1.1303,-1.0023,-0.9507,-0.9255,-0.8483,-0.7166,0.0,0.0,0.0,0.0,0.0,0.0,0.0,0.0,0.0,0.0,0.0,0.0,0.0,0.0,0.0,0.0,0.0,0.0,0.0,0.0,0.0,0.0,0.0,0.0,0.0,0.0,0.0,0.0,0.0,0.0,0.0,0.0,0.0,0.0,0.0,0.0,0.0,0.0,0.0,0.0,0.0,0.0,0.0,0.0,0.0,0.0,0.0,0.0,0.0,0.0,0.0,0.0,0.0,0.0,0.0,0.0,0.0,0.0,0.0,0.0,0.0,0.0,0.0,0.0,0.0,0.0,0.0,0.0,0.0,0.0,0.0,0.0,0.0,0.0,0.0,0.0,0.0,0.0,0.0,0.0,0.0,0.0,0.0,0.0,0.0,0.0,0.0,0.0,0.0,0.0,0.0,0.0,0.0,0.0,0.0,0.0,0.0,0.0,0.0,0.0,0.0,0.0,-1.1445,-1.2885,-1.3578,-1.3239,-1.1303,-0.9765,-0.9507,-0.8996,-0.7992,-0.6341,0.0,0.0,0.0,0.0,0.0,0.0,0.0,0.0,0.0,0.0,0.0,0.0,0.0,0.0,0.0,0.0,0.0,0.0,0.0,0.0,0.0,0.0,0.0,0.0,0.0,0.0,0.0,0.0,0.0,0.0,0.0,0.0,0.0,0.0,0.0,0.0,0.0,0.0,0.0,0.0,0.0,0.0,0.0,0.0,0.0,0.0,0.0,0.0,0.0,0.0,0.0,0.0,0.0,0.0,0.0,0.0,0.0,0.0,0.0,0.0,0.0,0.0,0.0,0.0,0.0,0.0,0.0,0.0,0.0,0.0,0.0,0.0,0.0,0.0,0.0,0.0,0.0,0.0,0.0,0.0,0.0,0.0,0.0,0.0,0.0,0.0,0.0,0.0,0.0,0.0,0.0,0.0,0.0,0.0,0.0,0.0,0.0,0.0,0.0,0.0,0.0,0.0,-1.0808,-1.2092,-1.2695,-1.1669,-1.0579,-0.9507,-0.8489,-0.8359,-0.7757,0.0,0.0,0.0,0.0,0.0,0.0,0.0,0.0,0.0,0.0,0.0,0.0,0.0,0.0,0.0,0.0,0.0,0.0,0.0,0.0,0.0,0.0,0.0,0.0,0.0,0.0,0.0,0.0,0.0,0.0,0.0,0.0,0.0,0.0,0.0,0.0,0.0,0.0,0.0,0.0,0.0,0.0,0.0,0.0,0.0,0.0,0.0,0.0,0.0,0.0,0.0,0.0,0.0,0.0,0.0,0.0,0.0,0.0,0.0,0.0,0.0,0.0,0.0,0.0,0.0,0.0,0.0,0.0,0.0,0.0,0.0,0.0,0.0,0.0,0.0,0.0,0.0,0.0,0.0,0.0,0.0,0.0,0.0,0.0,0.0,0.0,0.0,0.0,0.0,0.0,0.0,0.0,0.0,0.0,0.0,0.0,0.0,0.0,0.0,0.0,0.0,0.0,0.0,-0.9682,-1.0252,-1.0573,-1.0469,-0.9408,-0.8743,-0.8359,-0.8359,-0.7757,-0.6346,0.0,0.0,0.0,0.0,0.0,0.0,0.0,0.0,0.0,0.0,0.0,0.0,0.0,0.0,0.0,0.0,0.0,0.0,0.0,0.0,0.0,0.0,0.0,0.0,0.0,0.0,0.0,0.0,0.0,0.0,0.0,0.0,0.0,0.0,0.0,0.0,0.0,0.0,0.0,0.0,0.0,0.0,0.0,0.0,0.0,0.0,0.0,0.0,0.0,0.0,0.0,0.0,0.0,0.0,0.0,0.0,0.0,0.0,0.0,0.0,0.0,0.0,0.0,0.0,0.0,0.0,0.0,0.0,0.0,0.0,0.0,0.0,0.0,0.0,0.0,0.0,0.0,0.0,0.0,0.0,0.0,0.0,0.0,0.0,0.0,0.0,0.0,0.0,0.0,0.0,0.0,0.0,0.0,0.0,0.0,0.0,0.0,0.0,0.0,0.0,0.0,0.0,0.0,-0.997,-1.0337,-1.0443,-0.9272,-0.8359,-0.8359,-0.8359,-0.7757,-0.6346,0.0,0.0,0.0,0.0,0.0,0.0,0.0,0.0,0.0,0.0,0.0,0.0,0.0,0.0,0.0,0.0,0.0,0.0,0.0,0.0,0.0,0.0,0.0,0.0,0.0,0.0,0.0,0.0,0.0,0.0,0.0,0.0,0.0,0.0,0.0,0.0,0.0,0.0,0.0,0.0,0.0,0.0,0.0,0.0,0.0,0.0,0.0,0.0,0.0,0.0,0.0,0.0,0.0,0.0,0.0,0.0,0.0,0.0,0.0,0.0,0.0,0.0,0.0,0.0,0.0,0.0,0.0,0.0,0.0,0.0,0.0,0.0,0.0,0.0,0.0,0.0,0.0,0.0,0.0,0.0,0.0,0.0,0.0,0.0,0.0,0.0,0.0,0.0,0.0,0.0,0.0,0.0,0.0,0.0,0.0,0.0,0.0,0.0,0.0,0.0,0.0,0.0,0.0,-1.082,-1.1317,-1.1317,-0.9519,-0.8359,-0.8359,-0.8359,-0.7757,-0.6346,-0.5828,0.0,0.0,0.0,0.0,0.0,0.0,0.0,0.0,0.0,0.0,0.0,0.0,0.0,0.0,0.0,0.0,0.0,0.0,0.0,0.0,0.0,0.0,0.0,0.0,0.0,0.0,0.0,0.0,0.0,0.0,0.0,0.0,0.0,0.0,0.0,0.0,0.0,0.0,0.0,0.0,0.0,0.0,0.0,0.0,0.0,0.0,0.0,0.0,0.0,0.0,0.0,0.0,0.0,0.0,0.0,0.0,0.0,0.0,0.0,0.0,0.0,0.0,0.0,0.0,0.0,0.0,0.0,0.0,0.0,0.0,0.0,0.0,0.0,0.0,0.0,0.0,0.0,0.0,0.0,0.0,0.0,0.0,0.0,0.0,0.0,0.0,0.0,0.0,0.0,0.0,0.0,0.0,0.0,0.0,0.0,0.0,0.0,0.0,0.0,0.0,0.0,0.0,-0.9665,-0.9722,-0.9131,-0.8618,-0.8359,-0.8359,-0.8359,-0.7757,-0.6346,-0.5828,0.0,0.0,0.0,0.0,0.0,0.0,0.0,0.0,0.0,0.0,0.0,0.0,0.0,0.0,0.0,0.0,0.0,0.0,0.0,0.0,0.0,0.0,0.0,0.0,0.0,0.0,0.0,0.0,0.0,0.0,0.0,0.0,0.0,0.0,0.0,0.0,0.0,0.0,0.0,0.0,0.0,0.0,0.0,0.0,0.0,0.0,0.0,0.0,0.0,0.0,0.0,0.0,0.0,0.0,0.0,0.0,0.0,0.0,0.0,0.0,0.0,0.0,0.0,0.0,0.0,0.0,0.0,0.0,0.0,0.0,0.0,0.0,0.0,0.0,0.0,0.0,0.0,0.0,0.0,0.0,0.0,0.0,0.0,0.0,0.0,0.0,0.0,0.0,0.0,0.0,0.0,0.0,0.0,0.0,0.0,0.0,0.0,0.0,0.0,0.0,0.0,0.0,-0.8454,-0.8794,-0.8888,-0.845,-0.8195,-0.8195,-0.8095,-0.7482,-0.6091,-0.577,0.0,0.0,0.0,0.0,0.0,0.0,0.0,0.0,0.0,0.0,0.0,0.0,0.0,0.0,0.0,0.0,0.0,0.0,0.0,0.0,0.0,0.0,0.0,0.0,0.0,0.0,0.0,0.0,0.0,0.0,0.0,0.0,0.0,0.0,0.0,0.0,0.0,0.0,0.0,0.0,0.0,0.0,0.0,0.0,0.0,0.0,0.0,0.0,0.0,0.0,0.0,0.0,0.0,0.0,0.0,0.0,0.0,0.0,0.0,0.0,0.0,0.0,0.0,0.0,0.0,0.0,0.0,0.0,0.0,0.0,0.0,0.0,0.0,0.0,0.0,0.0,0.0,0.0,0.0,0.0,0.0,0.0,0.0,0.0,0.0,0.0,0.0,0.0,0.0,0.0,0.0,0.0,0.0,0.0,0.0,0.0,0.0,0.0,0.0,0.0,0.0,0.0,0.0,-0.8159,-0.9393,-0.8512,-0.7947,-0.7947,-0.7767,-0.7043,-0.5904,0.0,0.0,0.0,0.0,0.0,0.0,0.0,0.0,0.0,0.0,0.0,0.0,0.0,0.0,0.0,0.0,0.0,0.0,0.0,0.0,0.0,0.0,0.0,0.0,0.0,0.0,0.0,0.0,0.0,0.0,0.0,0.0,0.0,0.0,0.0,0.0,0.0,0.0,0.0,0.0,0.0,0.0,0.0,0.0,0.0,0.0,0.0,0.0,0.0,0.0,0.0,0.0,0.0,0.0,0.0,0.0,0.0,0.0,0.0,0.0,0.0,0.0,0.0,0.0,0.0,0.0,0.0,0.0,0.0,0.0,0.0,0.0,0.0,0.0,0.0,0.0,0.0,0.0,0.0,0.0,0.0,0.0,0.0,0.0,0.0,0.0,0.0,0.0,0.0,0.0,0.0,0.0,0.0,0.0,0.0,0.0,0.0,0.0,0.0,0.0,0.0,0.0,0.0,0.0,-0.7916,-0.9195,-0.8386,-0.7584,-0.7584,-0.7553,-0.7038,-0.5888,0.0,0.0,0.0,0.0,0.0,0.0,0.0,0.0,0.0,0.0,0.0,0.0,0.0,0.0]}]]]